ECMWFNIL_250_spd_000.txt.gz
Wind_Speed
44 44 43 43 42 43 43 43 43 42 41 39 38 36 36 35 35 36 37 38 40 40 40 41 41 41 41 41 41 42 43 45 47 49 53 56 59 61 63 63 60 57
46 46 46 45 45 45 45 45 45 45 44 43 42 41 40 39 39 38 39 40 40 41 41 42 42 43 42 42 42 42 43 44 46 48 51 54 57 60 62 65 66 64
49 49 48 48 47 47 47 47 47 47 47 46 45 45 44 44 43 42 42 41 42 42 42 42 43 43 44 44 44 44 44 44 45 47 49 52 55 58 60 63 65 67
50 50 50 50 50 50 50 50 50 49 49 49 48 48 47 47 46 46 45 45 44 44 44 44 43 44 45 45 45 46 46 45 45 47 48 50 52 55 58 60 63 65
53 52 52 52 53 53 53 53 53 53 52 51 51 50 49 49 49 49 49 48 48 47 46 46 46 45 46 46 47 47 48 48 48 48 49 50 51 53 55 57 60 62
55 54 54 54 55 56 55 55 55 55 55 54 53 53 52 52 51 51 51 51 51 50 50 50 49 48 48 48 48 48 49 50 51 51 51 51 51 52 54 55 57 59
58 57 56 56 57 58 58 58 57 57 57 57 57 56 56 55 55 54 54 53 53 53 53 54 53 53 52 52 51 50 50 51 52 53 53 53 53 53 54 55 56 57
62 61 60 60 60 61 61 61 60 60 60 60 60 59 59 59 58 58 57 57 56 55 55 56 57 57 57 56 55 54 53 53 53 54 54 55 56 56 56 56 57 58
65 65 64 64 63 63 64 63 63 62 62 62 62 62 62 62 62 61 61 60 60 59 59 59 59 60 60 60 59 58 57 57 56 56 56 56 57 58 58 58 58 59
67 68 67 66 66 66 66 66 66 65 65 65 65 65 65 65 64 64 64 63 63 63 62 63 63 63 63 63 63 62 62 61 60 59 59 59 59 59 60 61 61 61
67 69 69 68 68 68 69 69 69 69 69 69 69 68 68 67 67 66 66 66 66 66 66 67 67 67 67 66 66 66 66 66 65 64 63 62 62 62 62 63 63 64
64 67 67 66 66 66 68 69 70 71 72 73 73 72 71 70 70 69 68 68 68 68 69 69 70 71 70 70 69 69 69 69 69 68 68 67 66 65 65 65 65 66
62 64 64 62 61 62 64 67 69 71 73 74 74 74 74 74 73 71 71 71 71 71 72 72 72 73 73 73 72 72 72 72 72 72 72 71 70 69 69 68 68 68
64 64 62 60 60 61 63 65 67 69 72 73 74 75 76 75 74 73 73 74 75 76 76 76 75 75 75 75 75 75 75 74 74 74 75 74 74 74 73 72 72 71
66 65 63 61 61 62 63 64 65 67 69 72 73 74 74 74 73 73 73 75 78 80 80 80 80 79 78 77 77 77 77 77 77 78 78 77 77 77 77 76 76 75
68 68 67 65 63 63 64 64 66 67 69 71 72 72 72 71 70 69 69 71 77 82 81 81 82 82 82 81 80 79 79 79 80 80 81 81 80 80 80 80 80 79
71 71 70 69 67 66 65 65 67 68 70 71 71 70 70 69 68 67 66 68 74 79 80 81 82 84 85 85 85 84 83 81 81 82 83 83 83 83 83 83 83 82
73 73 73 72 71 69 67 67 68 69 71 72 72 70 69 68 66 66 67 70 73 75 76 79 81 84 86 88 88 88 86 84 84 84 84 85 85 85 86 86 86 85
75 75 75 75 74 72 70 70 71 71 72 73 73 72 70 68 67 66 68 71 73 72 73 76 79 82 85 88 90 90 88 87 87 88 88 88 87 87 87 88 88 88
77 77 77 76 76 74 73 72 72 73 73 73 74 74 73 71 69 68 69 71 72 72 72 76 78 80 83 86 87 87 86 87 89 91 91 91 91 91 90 90 90 90
79 79 78 78 78 76 75 74 74 74 75 75 75 75 74 73 72 71 71 72 72 72 73 76 79 81 83 83 82 81 83 85 88 90 91 92 93 94 94 93 92 92
82 82 81 80 80 79 77 76 76 76 76 76 76 76 76 75 74 74 73 73 73 74 75 77 79 81 82 80 79 79 81 84 86 87 88 89 92 94 96 96 95 95
84 83 83 82 82 81 79 78 78 78 77 77 78 78 77 77 76 76 75 75 75 76 76 77 79 81 81 78 77 78 81 83 84 85 85 86 88 91 94 96 96 97
85 84 83 83 82 82 81 80 79 79 79 79 79 79 79 79 79 78 77 77 77 76 78 79 80 81 80 78 77 78 79 80 81 83 83 84 85 87 89 92 94 97
83 82 82 81 81 81 80 80 80 80 80 80 80 80 80 81 80 79 79 78 77 77 78 79 80 79 79 78 77 78 78 78 80 81 81 82 82 83 85 88 91 94
81 80 79 79 78 78 78 78 79 79 79 79 80 80 80 80 80 80 80 80 79 77 77 77 77 78 78 78 78 77 76 76 78 78 78 78 79 81 83 85 87 90

ECMWFNIL_250_spd_003.txt.gz
Wind_Speed
43 42 41 41 40 40 40 40 40 40 39 38 38 39 39 39 38 37 37 36 35 35 36 38 39 40 41 42 42 42 41 42 43 45 47 52 57 59 59 58 58 57
46 46 45 45 44 43 43 43 43 43 42 42 41 41 41 41 41 40 39 38 37 36 36 37 39 40 42 43 43 43 43 42 43 44 46 49 52 56 58 58 58 60
48 48 48 47 47 47 46 46 46 45 45 45 44 44 43 43 44 43 43 42 41 40 39 38 39 40 42 44 45 45 45 45 45 45 45 47 50 53 56 58 58 60
50 49 49 48 48 48 48 49 49 48 47 47 47 47 47 47 47 47 47 47 46 45 44 42 41 41 42 43 45 46 47 47 47 47 46 47 49 51 54 56 58 59
52 51 50 50 49 49 49 50 50 50 50 50 50 50 50 50 50 50 50 50 50 50 49 48 46 44 43 43 45 46 47 48 48 48 48 49 50 51 53 55 57 59
53 52 52 52 52 51 52 52 52 52 52 52 53 54 54 54 54 53 53 53 53 52 52 52 51 49 48 46 46 46 47 48 49 49 49 50 51 52 53 55 57 59
54 53 53 53 53 53 53 54 54 54 54 55 56 56 57 57 57 57 57 56 55 55 54 54 54 53 52 51 50 49 48 48 49 49 50 50 52 53 53 54 57 59
56 56 55 55 56 55 54 55 56 56 57 57 58 58 58 59 59 59 59 59 59 58 57 56 56 56 56 55 54 53 52 51 51 50 50 51 51 53 55 55 56 57
59 59 59 59 58 56 56 58 59 60 59 58 58 60 61 61 61 61 61 61 61 61 60 60 59 59 58 58 58 57 57 56 55 53 52 52 52 53 54 56 56 57
62 62 63 63 61 59 59 61 62 62 63 62 62 62 61 62 63 64 64 63 63 62 62 63 63 63 62 61 61 60 60 60 59 58 57 55 55 55 56 56 57 58
62 63 62 63 64 64 64 65 64 63 64 65 66 65 62 63 64 64 64 64 65 65 66 66 66 66 65 65 64 63 63 62 62 62 61 61 59 59 59 59 59 59
60 59 57 59 63 65 65 66 64 63 64 67 68 68 66 65 65 65 64 64 66 68 70 70 69 68 67 67 67 67 66 65 65 64 64 64 64 64 63 63 63 63
58 56 54 58 62 63 63 64 63 64 67 69 68 69 67 66 67 67 66 66 68 69 70 71 71 71 71 70 70 70 70 69 68 68 67 67 68 68 68 68 67 67
59 57 57 60 62 62 62 62 62 63 66 67 68 68 66 64 65 66 66 66 69 72 71 70 71 72 72 73 73 72 72 72 72 71 70 70 71 70 71 71 71 71
61 60 60 60 61 61 61 61 62 63 64 65 66 66 65 65 65 65 65 66 69 71 71 71 73 74 74 74 75 75 75 74 74 74 73 73 73 74 74 74 74 75
65 64 63 62 62 62 62 62 63 64 64 63 62 62 64 66 67 67 66 66 67 69 69 70 73 76 77 77 78 78 77 77 77 76 76 76 76 76 77 77 78 78
68 67 66 65 65 64 64 65 66 66 66 64 62 62 63 64 65 67 66 63 64 67 69 71 71 73 77 79 79 79 79 80 80 80 80 80 79 79 79 80 81 80
70 70 69 68 68 67 67 68 68 69 69 69 66 65 65 64 66 68 68 67 68 70 71 71 70 72 76 78 77 78 79 81 82 83 84 84 83 83 83 83 83 82
72 72 72 71 71 71 70 70 71 71 72 72 71 69 67 67 68 70 70 71 72 73 72 70 70 73 75 75 75 76 77 79 82 84 85 86 85 85 86 87 86 85
74 74 74 74 74 74 73 73 73 74 75 75 74 73 71 70 70 71 72 72 73 73 72 71 72 74 75 75 76 76 76 79 81 82 84 85 85 85 87 88 89 89
76 76 76 75 75 75 75 75 75 76 76 77 77 76 74 73 72 73 73 73 73 72 71 71 73 75 75 75 76 76 78 79 81 82 83 84 83 83 85 87 89 90
79 78 78 78 78 77 76 76 76 76 77 78 78 78 77 75 75 75 74 74 73 72 71 72 74 74 74 74 75 76 78 80 81 82 83 83 82 82 83 85 86 87
81 81 80 81 81 81 79 78 77 77 77 78 78 78 78 77 76 75 74 74 73 72 72 73 73 72 72 73 74 75 77 80 82 83 83 82 82 82 83 84 84 85
82 82 82 82 82 82 82 80 79 78 78 79 79 79 79 79 77 75 74 74 74 74 74 73 73 72 72 73 73 74 76 79 82 83 84 83 82 82 83 83 83 85
84 84 83 83 83 83 83 82 81 80 79 79 79 79 80 80 78 75 75 76 76 76 74 74 73 72 73 73 74 75 76 78 80 83 84 83 83 83 83 83 84 85
84 84 84 83 83 83 83 82 82 81 80 80 80 80 81 81 78 75 77 78 78 76 74 73 74 74 74 75 75 76 77 77 79 82 83 84 83 84 84 83 84 84

ECMWFNIL_250_spd_006.txt.gz
Wind_Speed
46 46 46 46 44 43 41 40 38 37 36 37 37 37 37 36 36 37 37 37 37 37 37 37 37 38 40 41 42 43 43 42 42 42 44 46 48 50 51 53 52 51
48 47 47 47 46 46 45 44 43 41 40 39 39 39 39 39 39 39 39 39 39 40 40 40 39 39 40 41 42 43 44 44 44 43 44 44 46 49 50 52 52 53
49 48 48 48 47 47 47 46 46 46 45 44 43 42 42 42 42 42 42 42 41 42 42 42 41 41 40 41 41 42 44 45 45 45 45 45 46 48 50 51 51 52
49 50 50 50 49 49 49 49 48 48 48 47 47 47 46 45 45 45 45 44 44 44 44 44 44 44 43 42 42 42 43 44 46 46 46 46 47 48 50 51 51 52
48 49 50 50 51 51 51 51 50 50 49 49 49 50 49 49 49 48 48 48 47 47 46 46 46 46 46 46 44 43 43 43 45 47 48 48 48 48 49 50 51 52
49 50 51 51 51 52 52 52 52 51 52 51 51 51 51 51 51 51 51 51 50 50 49 49 48 49 49 49 49 47 46 44 44 46 48 49 50 50 50 51 51 51
53 53 52 50 50 50 49 51 52 53 54 54 53 54 54 54 54 54 54 53 53 53 52 52 52 52 51 52 52 51 50 49 47 46 47 48 50 51 52 52 52 52
52 53 53 52 52 50 48 50 52 52 52 53 54 55 57 58 58 57 57 56 56 55 55 55 55 54 54 54 53 53 53 53 52 51 49 49 49 51 52 53 54 54
55 57 58 58 57 55 52 52 51 51 51 52 53 55 56 59 60 60 60 59 59 59 59 58 58 58 57 56 56 56 56 56 56 56 55 53 52 52 52 53 54 55
61 63 63 61 60 60 59 56 54 53 53 55 57 57 59 60 60 61 61 61 61 62 62 61 60 60 60 60 59 59 59 59 58 58 58 58 57 57 56 55 55 56
61 62 62 60 59 59 59 58 56 51 47 50 55 56 59 62 63 63 63 64 63 63 64 63 62 62 62 63 63 62 62 61 61 60 60 60 60 60 60 59 59 58
58 59 61 59 57 56 54 55 57 52 44 43 46 50 53 57 59 61 62 64 66 66 65 65 64 64 64 64 64 64 64 64 64 63 63 63 63 63 63 63 63 62
55 57 59 59 57 56 54 54 55 55 51 46 42 43 48 51 53 56 58 61 63 65 66 66 66 66 67 68 68 67 66 66 65 66 66 65 66 66 66 66 66 65
55 56 58 57 56 55 54 53 53 54 56 54 48 45 46 47 48 53 59 62 62 61 63 65 65 65 66 68 69 68 68 67 66 67 68 69 69 69 69 69 68 67
56 56 57 57 57 55 53 52 53 53 54 58 60 57 54 48 43 46 54 59 59 58 58 59 62 64 66 68 69 69 69 69 68 68 69 70 71 72 72 72 71 70
59 58 58 58 58 56 54 54 54 54 55 58 62 63 60 52 47 48 53 56 58 59 60 61 62 64 66 69 72 72 71 70 70 70 70 71 72 73 73 73 74 73
61 60 60 60 59 57 57 57 56 57 58 60 62 63 62 59 58 60 62 64 65 65 65 66 66 65 65 68 71 73 73 72 72 72 72 72 73 74 74 75 75 76
64 63 62 62 62 61 60 60 60 60 60 62 64 66 68 69 70 72 72 71 69 67 66 66 67 66 66 68 70 72 73 73 73 73 73 72 72 74 76 76 76 76
66 66 66 66 66 65 64 65 64 64 64 65 66 68 70 72 74 76 75 73 71 68 66 65 66 66 67 69 70 71 71 72 72 72 72 72 72 73 75 76 77 78
69 68 69 69 69 68 68 68 68 68 69 69 69 70 71 72 74 75 75 74 71 69 67 67 68 68 69 70 71 71 72 72 72 73 72 72 73 73 73 75 76 76
70 71 71 71 71 71 71 71 71 71 72 72 73 73 74 74 74 75 75 74 72 70 69 71 72 72 72 72 72 73 74 75 75 75 75 76 77 77 77 77 77 77
71 72 72 72 72 72 72 72 72 72 73 74 75 76 76 75 75 75 75 74 73 71 72 74 75 76 75 74 73 74 75 77 77 77 78 79 80 80 80 81 82 82
72 73 73 73 73 73 73 73 73 73 74 74 75 76 76 76 75 74 74 73 71 71 73 76 77 78 77 76 75 76 77 78 79 79 79 80 80 80 80 81 83 84
73 73 74 74 74 74 74 74 75 75 75 75 75 76 76 75 74 74 72 70 69 70 74 76 78 78 77 77 77 78 78 79 80 81 81 81 80 81 81 82 83 84
74 74 75 75 75 75 75 75 76 77 77 77 77 76 76 75 74 73 71 69 69 71 73 75 77 77 77 78 78 78 79 79 80 81 81 81 82 83 83 84 85 85
75 75 76 76 76 76 77 77 78 78 79 79 78 78 77 75 74 73 72 70 70 71 72 74 76 77 78 78 79 78 78 79 80 80 81 81 82 83 84 85 85 86

ECMWFNIL_250_spd_009.txt.gz
Wind_Speed
42 43 44 43 44 43 43 45 45 45 46 46 46 45 43 42 40 40 39 39 39 39 38 39 39 39 38 36 36 36 38 39 39 38 38 37 36 36 37 39 43 46
42 42 44 44 44 44 43 44 46 46 47 48 48 48 47 46 44 43 42 42 42 42 41 41 41 41 40 39 38 37 37 38 39 40 41 41 40 40 39 39 40 43
44 42 43 43 44 44 44 45 47 47 47 48 49 49 49 49 48 46 46 45 45 45 44 44 43 42 42 42 41 40 40 39 39 40 41 42 43 43 42 42 41 42
48 45 45 46 46 46 47 49 49 48 47 48 49 50 51 50 50 49 49 48 48 47 47 46 46 45 44 43 43 42 42 41 41 41 41 42 43 44 44 44 44 44
53 51 51 51 50 48 49 51 49 46 47 49 49 49 51 52 52 52 51 51 51 50 50 49 48 48 47 46 45 44 43 43 43 43 43 43 44 44 45 45 45 46
57 58 58 58 56 53 52 51 48 45 46 49 50 51 52 52 53 54 54 53 53 52 52 51 50 50 50 49 48 47 46 45 45 45 45 45 45 45 46 46 46 46
59 61 64 66 65 62 59 55 51 47 47 49 52 54 54 54 56 57 57 56 55 54 53 53 52 52 52 52 51 50 50 49 48 47 47 47 47 47 47 47 47 47
62 62 65 70 70 68 65 62 58 56 56 55 57 58 58 59 59 58 58 57 57 56 55 54 54 53 54 54 53 53 52 52 51 50 50 50 50 50 50 50 49 48
65 65 66 69 71 70 68 68 67 66 64 62 62 62 61 60 58 56 57 57 57 57 57 57 57 56 56 55 55 55 54 54 54 53 53 52 52 53 53 53 53 52
67 68 68 68 69 69 69 68 67 66 64 63 64 65 63 61 60 59 58 57 57 58 58 58 58 58 58 58 57 57 57 56 56 56 56 55 55 55 55 56 56 56
60 64 67 68 68 69 70 69 68 67 66 66 67 67 66 65 65 65 63 61 61 62 61 60 59 59 59 59 59 60 60 59 58 58 58 58 58 57 58 58 58 58
55 59 63 67 69 71 72 71 70 69 68 67 68 70 70 69 69 69 68 67 67 67 66 65 64 63 62 61 61 60 60 60 60 60 60 60 60 60 60 60 60 60
49 49 50 55 63 66 67 67 66 65 65 64 64 65 66 67 67 66 66 67 68 70 71 70 68 67 66 65 64 62 61 61 61 62 62 62 62 62 62 62 62 62
44 41 43 48 55 59 60 62 62 61 61 60 57 55 56 59 61 62 62 63 65 67 69 69 68 67 67 67 66 65 64 64 64 64 64 64 64 64 64 64 64 63
53 52 53 56 58 59 59 59 59 59 59 58 56 55 57 59 60 60 60 61 63 64 66 66 66 66 66 67 67 66 65 64 65 66 67 66 66 66 65 65 66 65
58 60 61 62 62 61 59 59 59 59 59 59 59 60 60 61 59 59 59 60 61 63 64 65 65 66 67 67 67 66 64 63 64 65 65 64 64 64 65 65 66 67
58 59 60 60 60 60 59 59 59 59 59 60 60 60 60 59 58 59 59 60 60 61 63 63 64 65 67 66 66 64 63 64 64 61 60 59 58 59 61 63 65 65
57 58 58 59 59 59 60 60 60 60 60 60 60 60 60 59 59 60 60 60 61 60 61 62 63 65 66 66 66 65 63 63 62 58 57 57 58 60 62 64 65 66
57 57 58 59 60 61 61 62 62 62 62 62 62 62 62 61 61 61 61 61 61 60 61 63 64 66 67 66 66 66 64 63 62 61 61 62 64 66 67 68 69 69
57 58 59 60 61 62 63 64 64 65 65 65 65 65 65 64 63 63 62 62 61 61 63 65 67 68 69 68 68 68 66 66 65 66 67 69 70 72 73 73 73 73
59 60 61 62 62 63 64 65 66 66 67 67 68 68 68 67 67 66 65 63 62 63 66 69 70 71 71 72 73 73 73 73 72 72 73 74 74 75 76 76 76 76
62 63 64 64 65 65 66 67 67 68 69 69 69 70 70 70 69 68 67 65 64 66 69 71 73 73 74 75 76 76 77 78 78 79 79 79 78 78 77 77 77 78
64 66 66 66 67 67 68 68 69 70 70 70 71 71 71 71 71 70 68 67 67 69 71 73 74 75 76 77 77 78 79 80 80 81 81 81 81 81 81 80 79 79
67 68 69 69 70 70 70 70 71 72 72 72 72 72 73 73 72 71 68 68 69 71 73 74 75 76 77 77 78 78 80 81 81 81 81 82 82 83 84 84 83 82
69 70 70 71 72 72 73 73 73 73 73 73 73 73 73 73 72 70 69 69 70 72 73 74 75 76 77 77 78 79 80 81 82 82 82 82 83 84 85 85 85 85
71 72 72 72 73 74 74 75 75 75 75 74 74 74 73 73 72 70 70 70 71 72 73 74 76 77 77 77 78 78 79 81 82 83 83 83 84 84 85 85 85 86

ECMWFNIL_250_spd_012.txt.gz
Wind_Speed
47 49 50 50 49 47 45 43 43 43 43 42 42 41 41 39 37 37 38 39 39 39 39 39 38 37 36 37 37 37 37 37 37 38 38 37 36 34 33 32 32 32
45 48 47 46 45 45 45 44 44 45 45 44 44 43 43 41 38 37 37 39 40 40 41 41 41 41 40 39 39 39 39 39 39 39 39 39 38 37 36 34 33 33
46 49 48 45 45 46 46 45 45 47 47 47 47 46 46 44 42 40 40 40 41 41 41 42 43 44 44 43 43 42 42 42 41 41 41 41 40 39 38 37 36 35
48 51 51 49 49 49 49 48 47 48 48 48 48 50 51 50 48 46 44 43 42 41 42 43 44 45 46 46 46 46 45 45 45 44 44 43 43 42 40 39 38 38
51 53 54 54 54 54 53 52 50 48 49 49 49 51 54 55 54 51 48 45 44 43 43 43 44 45 46 47 48 49 49 48 48 48 47 46 45 45 44 43 42 41
52 55 57 57 58 58 58 57 54 50 50 51 52 53 54 55 54 52 50 48 47 46 44 43 44 45 46 47 48 49 50 51 51 51 51 50 48 47 47 46 45 44
53 54 57 58 59 60 61 62 59 56 53 54 54 55 57 57 57 57 55 53 52 51 48 46 46 47 47 47 48 49 51 52 53 54 54 53 52 50 49 49 48 47
54 56 58 59 60 61 62 64 64 63 61 60 59 59 59 61 63 64 63 61 59 58 56 54 53 53 53 52 52 52 54 54 55 55 55 55 55 54 53 52 51 50
53 54 56 57 56 56 58 59 60 61 63 64 63 62 61 63 65 66 66 66 65 64 64 63 63 63 62 60 58 57 56 55 55 56 56 56 56 56 56 55 54 53
51 52 51 50 50 52 52 50 51 54 57 60 62 62 62 63 65 66 67 67 68 68 67 67 67 67 65 63 62 60 57 55 54 55 56 57 57 58 57 57 57 57
48 48 48 45 42 41 42 42 43 47 49 51 53 56 59 62 65 67 67 67 68 68 68 68 67 66 64 63 63 62 60 58 56 55 55 56 57 58 59 59 59 59
43 44 45 45 41 37 36 35 34 38 43 44 46 50 53 57 60 65 67 67 68 68 69 69 69 68 67 67 67 66 64 63 61 58 58 57 57 58 59 60 60 60
44 43 41 42 45 45 41 36 31 31 34 40 44 48 50 52 54 58 63 66 67 69 70 71 71 71 70 69 69 69 68 67 66 64 63 63 62 61 60 60 60 61
48 45 41 42 47 49 46 41 36 31 30 33 37 41 46 50 50 51 55 58 61 64 67 70 70 70 70 68 67 67 67 68 69 69 68 68 68 67 66 65 65 64
53 50 48 50 52 53 52 51 48 44 42 41 38 37 44 49 50 50 51 52 55 58 61 64 66 67 67 65 64 63 64 65 66 67 68 68 68 68 69 70 69 68
56 55 54 54 56 59 62 64 62 60 57 54 50 49 51 53 54 56 56 57 58 60 60 61 63 65 66 65 65 64 64 64 64 64 64 65 64 64 66 68 69 68
59 59 59 58 58 61 64 66 67 67 65 64 64 65 65 63 63 64 64 64 66 66 65 63 63 65 66 66 66 66 66 66 65 65 64 64 63 62 63 65 66 67
61 63 63 63 63 64 65 66 67 68 68 68 69 72 74 73 73 72 71 71 71 70 68 66 65 65 65 66 66 65 66 66 67 67 67 66 65 64 64 64 65 65
62 63 64 65 66 67 68 69 70 70 71 72 72 74 77 78 78 76 75 74 73 71 69 68 67 67 66 66 67 67 67 67 68 69 69 69 68 67 66 66 66 66
63 64 65 66 67 67 68 69 70 70 71 71 72 73 75 77 77 77 76 74 72 71 71 70 70 70 69 68 68 69 69 69 70 70 71 71 71 71 70 70 69 68
63 65 66 67 67 68 68 68 68 69 69 69 70 71 72 73 74 74 73 72 72 72 72 73 73 72 71 71 71 71 71 71 72 72 71 72 72 73 73 73 72 72
63 64 66 67 68 68 68 68 68 68 68 68 69 70 70 71 72 73 73 73 73 74 74 75 75 75 75 74 74 74 74 74 74 74 74 74 74 75 75 75 75 75
63 64 65 66 66 67 67 68 68 68 68 69 69 70 71 71 72 73 73 74 75 75 76 76 76 76 77 77 77 77 77 77 77 77 77 77 77 77 78 78 78 78
63 64 64 64 65 66 67 67 68 68 69 69 70 71 71 72 72 72 73 74 75 75 76 77 77 77 78 78 78 78 78 79 79 80 80 80 80 81 81 80 80 81
64 64 65 66 66 67 68 68 69 69 70 70 71 72 72 72 72 73 74 74 75 75 76 76 77 77 78 78 79 79 79 80 80 81 81 82 82 83 83 83 83 83
66 66 67 68 69 70 70 70 71 71 72 72 73 73 74 74 73 73 74 74 75 76 77 77 77 77 77 78 78 78 79 79 80 81 82 83 84 84 84 84 85 85

ECMWFNIL_250_spd_015.txt.gz
Wind_Speed
43 42 42 40 38 36 35 37 40 43 45 47 47 47 47 48 48 46 44 43 41 39 38 37 35 33 33 34 35 36 36 35 34 33 32 31 31 32 32 31 30 30
45 46 46 45 43 41 38 36 37 39 41 44 46 47 48 49 49 48 46 44 43 42 40 39 38 36 35 36 36 37 37 37 36 36 35 34 34 33 33 33 33 32
46 49 49 49 48 47 44 41 39 39 39 41 43 44 46 47 47 46 45 44 43 42 41 41 40 40 39 39 38 37 37 37 37 37 37 37 37 36 36 35 35 34
48 51 52 52 52 50 48 46 43 42 41 41 42 43 44 45 45 45 45 45 44 44 43 42 42 42 42 42 40 38 37 37 37 38 38 38 38 39 38 38 38 37
50 51 51 52 52 52 51 48 47 46 44 44 45 46 46 47 48 48 48 47 46 45 45 44 43 43 43 43 42 39 37 37 38 38 38 37 38 39 40 40 40 40
51 50 50 51 50 52 52 50 50 50 49 49 49 49 50 50 50 50 49 48 48 47 47 47 46 46 46 46 45 43 41 40 39 39 38 37 37 37 39 41 42 43
53 51 50 51 51 52 53 51 50 50 50 50 51 52 52 52 52 53 52 52 51 50 50 50 50 50 50 50 49 49 48 46 45 44 43 42 40 40 41 42 43 44
56 55 53 52 52 54 55 53 51 51 52 54 54 54 54 54 54 55 56 56 56 55 55 55 55 55 55 55 54 54 53 52 51 50 50 49 49 49 49 48 48 48
56 55 52 51 53 54 55 55 54 55 56 57 57 56 55 55 56 57 57 58 58 58 58 58 58 59 59 58 58 58 57 57 56 54 53 53 54 54 54 53 52 51
53 53 52 52 53 54 55 55 55 55 56 56 56 56 55 56 57 58 58 58 58 58 57 58 58 59 60 60 60 60 60 59 58 57 56 54 54 54 54 53 52 50
51 52 52 53 53 54 54 54 54 54 55 54 54 53 53 54 56 56 57 58 59 59 58 57 56 56 56 57 59 60 60 60 59 58 58 56 55 55 54 53 52 51
49 50 50 51 52 52 53 54 54 53 52 50 49 48 48 51 53 54 55 56 58 59 57 55 53 53 53 53 54 56 56 57 58 58 58 58 57 57 56 55 55 55
48 48 49 50 51 52 52 52 50 49 46 42 42 44 45 48 51 52 54 57 60 59 55 53 50 49 50 51 50 51 51 52 54 54 55 56 57 57 57 57 57 57
48 48 48 48 49 50 48 44 43 44 42 39 39 41 42 45 47 48 48 50 53 53 50 51 51 48 48 48 46 45 44 44 46 48 50 52 54 55 56 56 56 56
49 49 47 45 45 46 43 40 39 41 42 41 41 41 42 46 48 47 45 43 44 45 43 45 48 47 45 46 45 43 42 42 44 47 49 51 54 56 57 56 56 56
50 50 48 45 45 46 46 45 43 43 44 44 44 44 43 46 48 48 48 46 45 46 44 43 45 48 48 51 53 53 52 52 53 54 55 56 58 60 61 60 60 59
53 52 51 49 49 50 52 52 51 50 50 50 49 46 44 47 50 49 51 52 51 51 50 50 53 57 59 60 61 61 61 61 62 62 62 63 64 65 66 65 64 63
56 55 55 54 54 55 57 58 59 58 57 56 54 50 48 52 54 54 54 56 56 56 57 59 62 65 66 65 64 65 66 67 69 70 70 70 70 70 71 70 69 67
58 58 58 57 58 59 61 63 65 65 64 64 62 59 59 60 62 62 62 61 60 62 64 66 67 68 68 67 68 70 71 72 74 75 76 76 76 75 75 74 73 71
59 60 60 61 61 62 63 64 67 69 69 69 68 68 68 69 70 71 71 69 68 69 71 71 72 71 71 72 73 75 76 77 78 79 80 81 81 80 78 76 75 74
60 60 61 63 63 63 64 65 67 70 72 73 73 73 74 74 76 76 75 76 76 77 77 77 77 76 76 77 77 79 80 81 82 83 83 83 83 82 79 77 76 76
60 60 60 62 63 65 65 66 67 69 72 75 77 78 78 78 78 78 78 79 80 81 81 81 80 80 80 81 81 82 83 83 83 83 83 82 81 80 79 78 77 77
58 59 60 61 63 65 66 68 69 70 71 73 76 77 78 79 80 81 82 82 82 83 84 84 84 83 82 82 82 82 82 81 81 80 80 80 80 80 80 80 80 80
56 58 60 61 62 65 67 68 70 72 73 73 75 76 77 78 80 81 82 83 84 84 84 83 83 81 81 80 80 80 80 80 80 80 80 80 80 81 81 81 82 82
56 58 60 61 62 64 66 68 70 72 73 73 74 75 75 76 78 79 81 81 82 82 82 81 81 80 80 79 79 79 80 80 81 81 81 82 82 83 83 83 83 84
58 59 60 61 62 63 65 68 70 72 72 72 73 73 74 75 76 77 79 80 81 81 81 80 80 80 80 80 80 80 81 81 82 82 83 83 84 84 84 85 85 85

ECMWFNIL_250_spd_018.txt.gz
Wind_Speed
38 38 38 38 38 38 38 37 37 38 37 35 34 34 34 34 35 37 38 40 41 42 42 42 41 40 39 38 37 36 35 35 34 33 32 31 29 29 30 30 29 28
37 37 37 37 38 39 41 42 40 41 41 39 37 35 34 34 34 35 36 37 39 40 41 42 41 41 40 40 39 38 37 37 37 36 36 35 34 32 31 31 32 31
38 40 40 40 41 42 44 44 43 44 43 42 41 39 37 37 37 37 36 36 37 38 39 40 41 41 40 40 39 38 38 38 38 38 38 38 37 35 33 32 33 33
40 43 45 46 46 46 45 45 44 44 44 43 42 42 41 41 41 41 39 38 38 38 39 40 40 41 41 41 40 40 39 39 39 40 40 39 38 37 35 33 33 34
41 47 51 51 50 49 48 47 47 47 47 45 43 43 44 45 45 45 43 42 41 41 42 42 43 43 44 44 43 43 42 41 41 41 41 40 39 38 37 36 35 35
43 47 52 53 52 51 50 50 51 51 50 48 45 45 46 47 47 47 47 46 45 45 45 45 46 47 47 47 47 46 45 44 44 44 44 43 42 41 40 40 39 38
48 50 53 53 53 52 51 50 51 51 50 48 47 47 47 48 48 49 49 49 49 48 48 48 49 49 50 50 50 49 48 48 48 48 47 47 46 45 44 44 44 43
53 55 56 56 55 54 51 49 49 50 50 50 49 49 50 51 51 52 52 52 52 51 51 51 51 52 52 52 52 52 52 52 52 52 52 52 51 51 50 49 49 48
57 59 59 59 57 55 53 52 51 52 53 53 53 53 54 54 54 55 55 54 54 54 55 55 56 56 55 55 54 54 55 55 55 55 54 54 54 54 54 54 53 52
58 60 60 59 58 56 55 54 55 55 56 57 57 56 55 54 55 56 56 55 56 56 57 58 58 58 57 56 55 55 55 56 56 56 55 54 54 54 54 55 55 54
58 60 61 60 60 59 58 57 57 57 56 56 57 56 54 53 54 55 56 57 57 57 57 57 58 57 56 55 56 55 56 55 55 55 55 54 53 52 52 52 53 53
56 58 60 61 62 62 62 61 59 58 56 56 56 56 55 55 56 56 56 57 57 56 56 57 57 56 55 55 55 55 55 54 55 54 53 52 51 50 49 49 49 49
54 55 56 58 60 60 60 60 59 57 56 55 55 55 56 57 57 57 56 56 57 58 59 59 57 57 56 55 55 55 55 54 54 53 52 50 49 47 46 46 45 44
53 54 54 54 55 56 56 56 55 54 54 54 54 54 55 56 56 56 56 57 58 60 62 62 60 59 58 57 57 58 57 55 54 51 49 48 48 46 42 39 39 38
54 54 53 53 52 53 54 53 52 51 51 51 51 52 53 54 53 53 53 54 57 60 61 61 59 59 59 59 59 59 58 55 53 50 47 45 45 44 41 38 40 42
55 55 54 53 51 51 51 52 51 51 49 48 48 49 51 51 50 50 50 53 56 58 58 57 57 58 57 58 59 59 58 56 54 52 48 44 43 43 44 46 49 52
56 56 56 56 55 54 53 52 53 53 52 50 48 48 49 49 47 47 49 51 54 55 57 58 59 59 58 57 57 58 58 57 56 56 54 50 48 48 50 53 55 55
57 57 57 57 58 58 57 55 55 55 55 53 50 48 49 50 49 48 49 51 51 53 57 60 61 60 58 57 56 56 56 56 57 59 59 57 55 54 56 56 56 56
58 58 58 59 59 59 59 59 58 58 57 56 53 51 51 53 54 54 55 56 57 58 59 61 62 60 58 58 57 56 56 56 58 61 61 60 58 58 59 59 58 59
61 60 60 60 60 61 61 61 61 61 60 58 57 56 55 56 57 59 61 63 64 65 66 66 66 64 63 62 62 62 61 60 60 62 62 62 62 61 61 62 63 65
63 62 62 62 62 61 62 62 63 62 61 59 59 59 59 60 60 62 65 67 69 70 71 71 71 71 70 70 69 68 67 66 64 63 64 65 66 66 67 68 70 72
63 61 61 62 63 63 63 63 64 63 62 61 61 62 63 63 64 65 67 70 72 74 74 75 75 75 75 75 74 74 73 72 70 69 69 71 72 74 75 76 77 78
60 60 60 61 62 63 64 65 65 65 64 64 64 65 65 66 67 68 68 70 73 76 78 79 80 80 79 79 78 78 78 78 77 76 76 77 78 80 80 81 81 81
58 57 58 60 61 62 63 64 65 65 66 67 67 68 68 68 69 70 71 72 73 76 79 81 83 84 84 83 83 82 82 81 81 81 81 81 82 83 83 83 83 83
58 57 57 58 59 60 61 62 63 65 67 68 69 69 70 70 71 72 73 75 75 76 78 80 83 85 86 86 86 85 84 83 83 84 84 85 85 85 85 85 86 87
59 59 59 58 58 59 59 59 61 63 65 66 67 68 68 70 71 73 74 76 77 78 79 80 81 82 84 85 85 85 86 86 86 87 87 87 88 88 88 89 89 89

ECMWFNIL_250_spd_021.txt.gz
Wind_Speed
35 35 34 34 36 36 35 34 34 34 35 35 34 33 32 31 30 30 31 31 31 31 31 32 34 37 38 40 41 41 41 41 40 39 38 36 34 33 32 31 31 30
36 37 37 36 36 37 37 36 35 35 36 37 37 35 34 33 32 32 32 33 34 33 32 31 32 33 35 37 38 39 40 40 39 39 38 37 36 35 34 33 33 33
38 40 40 38 38 39 39 39 38 38 38 39 40 38 37 36 36 35 34 34 34 35 35 35 34 34 34 35 36 37 38 39 40 39 39 38 38 37 36 35 34 34
41 43 43 42 41 41 42 42 42 42 41 42 42 41 41 41 40 40 39 38 37 36 37 38 38 37 37 37 38 38 39 39 40 40 40 40 39 38 37 37 36 36
43 44 45 45 45 45 44 45 46 47 45 45 45 44 44 44 44 44 44 44 43 42 41 41 41 41 41 41 41 40 40 41 41 41 41 41 40 39 39 38 38 38
44 44 45 46 48 49 48 48 50 51 50 49 49 48 47 47 46 47 48 48 48 46 45 44 44 44 44 44 44 44 44 43 43 43 43 42 42 42 41 40 40 40
45 45 46 47 49 50 51 51 53 54 53 52 51 50 50 49 49 50 51 51 51 50 49 47 46 46 45 45 46 47 47 47 46 46 45 45 44 44 43 42 42 41
49 48 48 49 49 50 51 52 54 56 55 53 52 52 52 52 52 53 54 53 53 52 51 50 49 48 48 48 48 49 50 50 49 48 48 47 46 45 45 44 44 43
53 52 52 51 51 51 52 53 55 56 55 55 54 55 55 55 55 55 55 55 54 53 52 51 51 51 52 52 52 52 52 51 51 50 49 49 48 48 48 47 47 47
56 55 55 54 53 52 52 53 55 56 56 54 52 53 53 54 54 54 54 54 53 53 53 53 53 53 54 54 54 54 53 53 52 51 50 50 50 50 50 50 50 50
58 58 57 56 56 55 54 53 54 56 58 56 53 51 51 52 52 53 53 53 53 53 54 55 55 55 55 55 54 53 53 52 52 51 51 52 51 51 51 52 52 51
60 59 59 58 57 57 56 56 55 56 58 60 60 60 59 58 56 55 53 52 52 53 54 54 55 56 56 56 55 54 54 53 53 53 53 52 52 52 52 52 52 52
61 60 60 60 59 59 58 58 57 57 57 59 61 64 65 65 63 60 57 55 54 54 55 56 57 57 57 58 58 57 56 55 55 55 54 53 52 51 52 52 52 52
61 61 61 61 61 60 60 59 59 58 58 58 59 61 63 64 64 63 61 59 57 56 56 56 57 57 58 58 58 58 57 56 56 56 55 54 53 53 53 53 52 52
63 62 62 62 62 61 61 60 59 59 58 58 59 59 60 61 62 62 61 59 57 55 55 55 56 58 60 59 57 56 56 56 56 56 55 55 54 54 53 52 50 50
64 64 63 63 63 63 62 61 60 59 59 59 58 58 58 58 58 59 58 56 55 54 54 54 54 56 58 58 57 56 55 55 56 56 56 55 54 52 51 50 48 46
66 65 65 64 64 63 63 62 61 60 59 59 59 59 58 57 55 55 55 55 54 53 53 53 53 54 55 56 56 56 55 55 56 56 55 54 52 51 50 50 48 45
67 66 66 66 65 64 63 63 62 61 61 60 60 59 59 58 56 53 52 52 53 53 53 52 52 53 53 52 53 54 54 55 56 56 56 55 55 54 53 52 51 50
68 68 67 67 66 66 65 64 63 62 62 61 61 60 60 60 59 57 54 53 52 52 52 53 54 55 54 53 54 54 54 55 55 57 58 58 58 57 56 56 56 57
70 70 69 69 68 67 67 66 65 64 63 63 62 62 61 61 61 61 60 58 56 53 51 52 53 55 57 58 57 56 55 56 58 60 61 61 61 62 62 61 61 61
72 72 71 71 70 70 69 68 67 66 65 65 64 63 63 63 63 63 63 62 61 59 57 54 54 56 60 61 60 59 60 61 63 65 65 65 65 66 67 67 66 65
73 73 72 72 71 71 70 70 69 68 67 67 66 65 64 63 64 64 64 64 64 64 63 61 60 63 66 65 63 62 63 65 66 67 68 68 69 69 70 70 70 69
71 71 71 70 70 70 70 69 69 68 68 68 68 68 67 66 66 65 65 66 66 66 66 66 67 68 69 68 68 68 68 68 69 70 70 71 71 72 72 73 73 73
66 67 67 67 67 67 67 66 66 66 66 67 68 69 69 69 69 68 68 68 68 68 68 69 71 72 71 71 72 72 72 72 72 72 73 74 75 75 75 75 76 76
64 64 64 64 64 64 63 62 61 61 62 63 65 66 67 68 69 70 70 71 71 72 72 72 73 74 74 73 74 75 75 74 74 73 74 75 77 78 79 79 79 80
64 64 64 64 64 63 62 60 59 58 59 60 61 63 64 65 66 67 68 70 71 73 74 75 75 76 76 76 76 77 77 77 76 76 75 76 77 78 80 81 82 82

ECMWFNIL_250_spd_024.txt.gz
Wind_Speed
34 33 32 32 33 32 32 31 29 29 29 30 31 31 31 31 30 30 30 29 29 28 27 26 26 26 26 27 29 30 32 33 35 37 39 41 41 42 42 41 39 38
36 35 34 34 35 35 35 33 31 30 30 31 32 32 33 33 33 32 32 31 31 30 29 28 28 28 29 31 31 32 32 33 33 34 36 38 40 41 42 42 41 40
37 36 37 37 37 38 38 38 35 33 33 33 34 35 35 35 35 35 35 35 34 34 33 32 31 31 32 32 33 34 34 34 34 34 34 36 38 40 41 42 42 42
40 40 41 40 39 39 40 40 39 38 37 37 36 36 37 37 37 37 37 37 37 37 36 36 36 36 35 35 35 35 35 36 36 36 36 36 36 37 39 39 40 40
43 43 41 39 38 38 39 42 43 43 43 42 40 39 39 39 38 38 38 38 38 38 38 38 38 38 39 39 38 38 37 37 38 38 39 39 38 38 38 38 38 39
47 46 45 43 41 40 40 41 44 47 47 46 44 43 43 42 41 40 40 40 39 39 40 40 41 41 41 41 41 40 40 40 40 40 40 41 41 41 40 40 39 39
53 53 52 51 49 47 46 44 44 47 50 50 48 47 46 45 45 44 44 44 43 42 43 43 43 43 43 43 43 43 43 43 43 43 42 42 43 43 42 42 42 42
55 56 56 54 53 53 54 52 49 48 50 52 52 51 50 49 48 47 47 47 46 46 46 46 45 45 45 46 46 46 45 45 44 44 44 43 43 43 43 44 45 46
56 56 57 56 55 54 56 57 56 53 51 51 51 51 51 52 52 51 51 50 49 48 48 49 49 48 48 48 48 47 47 46 45 44 44 44 44 45 46 46 47 48
59 57 57 56 55 54 56 58 58 56 54 53 52 51 51 52 53 54 53 53 53 52 51 51 51 50 49 48 48 48 48 48 48 47 46 45 45 45 46 47 48 48
62 57 56 56 57 57 58 60 60 58 57 56 55 54 53 52 52 53 54 54 54 53 52 51 50 50 49 49 49 50 50 51 52 51 50 49 48 47 46 46 47 47
64 60 59 59 60 61 62 62 61 60 59 59 58 57 56 55 54 54 54 54 55 55 54 53 52 51 51 51 52 52 53 54 54 54 54 53 51 50 49 48 47 48
68 66 65 64 65 65 65 63 62 62 61 61 60 59 58 57 56 56 56 56 56 57 57 57 57 57 57 57 56 56 56 56 56 56 57 56 54 53 52 50 49 49
67 68 68 68 67 66 64 63 63 63 62 62 61 60 60 59 58 58 58 58 58 58 58 58 58 59 60 60 60 60 60 59 59 59 58 58 57 55 53 51 50 49
65 67 68 68 67 65 64 64 64 63 63 63 63 62 62 61 60 60 59 59 59 59 58 58 58 59 59 59 60 61 61 60 60 59 58 57 55 53 51 50 50 49
66 67 68 68 67 66 66 65 64 64 64 64 64 64 64 63 61 60 59 59 59 59 59 59 59 59 58 58 57 57 57 58 58 59 56 53 51 50 50 49 49 50
68 69 70 70 69 69 68 67 66 66 66 66 66 66 66 64 62 60 59 59 59 59 59 60 60 59 59 58 57 56 56 56 57 57 55 52 51 50 50 50 49 50
71 72 72 72 72 72 71 71 70 69 68 68 68 67 66 65 63 62 61 60 60 59 59 60 61 61 61 60 58 57 56 56 56 56 54 53 54 55 55 51 47 47
73 74 75 75 75 75 75 74 73 72 71 70 69 68 67 66 65 63 62 62 61 61 60 60 61 62 61 60 59 58 56 56 56 56 55 55 56 56 54 47 41 46
75 76 77 77 78 78 77 77 76 75 73 72 71 69 68 67 66 65 64 63 62 62 61 61 62 62 62 61 60 59 58 57 56 57 58 58 58 56 52 47 47 54
77 78 78 79 79 79 79 78 77 76 75 73 72 71 69 68 67 66 66 65 63 63 62 61 63 63 63 63 62 61 61 59 57 58 60 62 62 60 59 58 58 60
79 80 80 80 80 80 80 79 79 78 77 75 74 72 71 70 69 68 67 66 65 65 64 63 63 64 64 64 64 63 63 63 61 61 63 66 66 65 64 63 63 62
80 80 81 81 81 81 80 80 79 78 77 76 75 74 73 71 70 69 67 66 65 65 65 65 65 66 66 66 66 66 66 67 66 65 67 70 71 69 68 67 66 65
78 79 79 78 78 78 78 77 77 76 76 75 75 74 73 71 70 70 69 68 67 67 68 67 68 69 70 70 70 69 69 69 69 69 70 72 73 73 71 70 68 68
73 74 74 73 73 72 72 72 72 71 72 72 72 72 70 69 69 69 69 69 70 70 71 71 72 73 73 74 74 74 73 72 71 71 72 73 75 76 75 74 73 72
70 70 70 70 70 69 68 67 68 67 68 68 68 68 67 66 66 67 67 67 68 69 71 72 72 74 75 76 76 76 76 75 75 74 74 75 76 77 78 78 77 77

ECMWFNIL_250_spd_027.txt.gz
Wind_Speed
29 31 32 32 31 31 28 27 27 27 27 27 27 28 28 27 26 24 23 24 24 25 26 26 26 26 27 27 27 29 30 31 32 32 32 32 33 35 37 39 41 42
32 35 37 36 35 34 31 29 29 29 29 29 29 29 29 29 28 26 25 25 26 27 28 29 29 29 29 29 30 30 31 31 31 31 31 31 31 32 34 36 39 42
37 39 41 40 38 36 34 32 32 33 33 33 33 32 32 32 31 29 28 28 28 29 29 30 30 30 31 31 32 32 32 33 33 33 33 32 32 32 33 34 35 38
38 41 43 43 41 39 39 39 39 38 37 36 36 35 34 34 33 32 31 31 31 30 31 31 31 32 32 32 33 33 33 33 34 35 35 35 35 34 34 35 35 37
32 40 45 45 43 42 41 42 42 40 38 37 37 38 37 37 36 36 35 34 33 33 33 34 34 34 34 34 35 35 35 35 35 35 36 37 37 37 37 37 38 38
27 36 44 44 45 45 43 43 41 40 39 38 40 40 41 42 42 42 41 39 38 37 36 37 37 37 37 37 37 37 37 37 37 37 38 38 38 38 38 39 39 39
35 40 46 45 46 47 47 46 44 42 42 42 44 45 46 47 47 48 48 48 46 43 41 40 40 40 40 40 39 39 39 39 39 39 40 40 40 40 40 40 40 40
43 48 51 50 50 51 51 50 48 47 44 43 45 47 50 51 50 50 51 51 51 49 47 45 43 43 43 43 42 42 41 41 41 41 42 42 42 42 42 41 41 40
49 53 56 56 55 55 54 53 52 51 49 48 49 50 52 54 54 54 52 51 51 51 50 48 47 47 47 46 46 45 44 43 43 44 44 44 44 44 43 42 41 41
59 60 60 60 60 58 57 57 56 56 57 57 57 57 58 58 57 55 52 50 51 52 51 50 50 50 50 49 50 49 48 47 46 46 46 46 46 45 45 44 44 43
66 66 65 65 64 62 61 61 62 63 63 63 63 63 62 60 57 55 53 52 52 52 52 51 51 52 52 52 52 52 51 51 50 49 49 48 48 48 47 47 47 47
70 70 70 69 69 68 67 67 68 68 67 66 66 65 62 59 57 58 57 56 55 54 53 53 53 53 53 54 54 54 54 53 52 52 52 52 51 51 51 50 50 50
71 71 70 70 70 70 69 69 69 69 68 68 66 64 61 58 58 60 62 61 59 58 57 56 55 54 54 55 55 56 56 55 55 54 54 55 54 54 53 53 52 52
71 72 71 71 71 71 70 70 70 70 70 69 67 63 61 60 60 62 64 64 63 62 60 59 58 57 56 56 57 57 57 57 56 56 56 56 56 55 54 54 53 53
73 75 75 76 75 74 74 73 71 71 70 68 66 64 62 61 61 62 64 65 64 63 62 61 60 60 59 59 59 59 58 58 57 56 56 56 56 55 53 53 52 51
71 73 74 75 75 74 72 70 68 67 67 66 66 64 62 61 61 62 63 63 63 62 62 62 61 60 60 59 59 60 60 59 58 56 55 55 55 55 54 53 49 44
69 71 71 72 72 71 70 69 68 68 68 67 66 64 62 61 60 60 59 58 57 57 57 57 57 57 58 58 59 59 59 59 58 56 55 54 53 53 54 53 45 37
68 69 70 70 71 71 71 71 71 71 71 69 66 63 61 58 56 55 55 54 53 51 51 51 53 56 57 58 58 58 59 59 58 56 55 54 52 51 51 50 45 41
67 68 69 70 70 71 71 72 72 72 71 70 68 64 60 56 52 52 55 56 55 52 51 52 54 57 58 57 57 57 58 58 58 57 56 55 54 52 52 51 51 51
68 69 69 70 70 71 71 72 72 72 72 71 70 67 64 59 56 54 55 58 59 59 56 52 49 51 55 55 54 56 57 58 58 58 58 58 56 55 54 53 55 57
69 70 70 71 71 72 72 72 73 73 73 73 72 71 69 67 64 61 58 60 63 62 59 54 50 52 55 53 51 53 55 56 56 56 58 59 58 57 57 57 57 59
71 72 73 73 74 74 74 75 75 76 76 76 75 75 74 73 73 71 68 68 70 69 67 65 63 65 65 61 59 59 60 60 60 60 61 61 60 60 61 61 60 61
72 73 74 75 76 77 77 78 79 79 79 80 79 79 79 78 78 77 75 75 76 75 74 70 66 66 67 67 68 69 69 68 68 67 65 63 63 64 65 65 64 65
70 72 74 75 77 78 79 79 80 81 81 81 81 81 81 80 80 78 76 76 75 74 72 68 63 62 64 66 67 69 70 70 69 67 65 65 65 66 67 68 68 69
69 71 72 74 76 77 77 77 78 78 78 78 77 77 77 76 75 74 72 70 68 66 66 63 61 64 67 67 66 66 67 68 66 65 64 66 67 69 70 70 70 71
70 71 72 73 74 75 75 74 75 74 74 73 73 73 73 72 70 68 66 65 63 61 61 59 57 61 65 65 64 66 67 67 66 65 65 69 72 72 72 71 71 72

ECMWFNIL_250_spd_030.txt.gz
Wind_Speed
45 43 42 39 35 33 33 33 32 31 30 29 27 25 24 23 23 23 23 23 24 24 24 25 24 24 24 24 25 25 26 27 28 30 31 33 34 36 38 40 43 45
50 48 48 46 43 40 37 35 34 34 36 36 33 29 28 27 27 26 26 25 25 26 26 27 27 26 26 25 26 26 26 27 28 29 30 31 32 33 34 36 38 40
54 52 52 52 51 50 46 43 41 41 40 39 37 35 34 34 32 31 29 28 27 28 28 29 29 29 28 28 28 27 27 27 28 28 29 30 32 33 34 35 36 37
54 53 53 52 52 53 52 50 48 46 43 41 40 40 39 39 38 35 33 31 30 29 29 30 30 31 31 31 31 30 29 29 29 29 30 31 32 33 34 36 37 38
55 54 53 52 51 51 53 52 48 44 43 42 42 43 42 42 42 40 38 35 33 32 32 32 33 34 35 35 34 33 33 32 32 32 32 33 34 35 36 37 38 39
58 55 53 51 50 50 52 53 48 44 42 42 44 45 46 46 44 43 42 41 37 35 34 34 36 37 39 40 39 39 38 38 37 37 37 36 36 36 37 38 39 39
59 58 55 53 51 49 51 53 51 48 46 46 46 48 50 51 49 46 44 44 42 38 35 36 38 41 44 45 45 44 44 43 43 42 42 41 40 39 39 39 40 41
60 59 57 56 54 52 52 54 55 54 54 53 52 53 54 55 55 52 48 47 46 42 39 39 42 46 49 50 50 49 47 46 45 45 45 45 44 43 42 42 42 42
62 61 60 58 57 56 55 56 58 59 60 60 59 58 58 58 58 56 52 50 49 48 46 46 48 52 54 55 55 52 48 46 46 46 46 46 46 46 46 45 44 44
63 63 62 60 60 60 59 59 60 62 64 65 65 65 63 62 59 56 54 53 53 53 53 53 55 57 57 57 56 53 50 48 48 48 47 47 48 48 48 48 47 46
62 63 63 62 62 62 63 63 63 64 66 68 69 69 68 66 63 59 57 56 56 56 57 58 61 61 59 56 55 53 52 52 51 50 50 50 50 51 51 50 50 49
62 62 63 64 64 64 65 66 66 67 68 70 70 71 71 70 69 67 65 63 62 62 63 64 63 61 58 56 54 53 53 54 54 53 53 52 52 53 53 53 52 52
65 64 64 65 66 67 67 68 69 70 70 70 71 71 72 72 73 73 72 71 70 69 67 65 63 61 59 57 56 55 54 54 55 55 55 54 54 54 55 55 55 54
67 65 65 66 68 69 69 69 71 72 73 74 75 75 76 77 78 78 77 75 72 69 67 66 64 62 59 57 57 56 56 56 56 55 54 54 54 54 55 55 54 54
67 65 64 64 66 68 69 70 71 73 75 76 78 79 79 80 80 78 76 74 72 71 70 68 65 61 58 58 58 57 56 55 53 52 51 51 51 51 51 52 53 55
67 66 65 65 66 67 69 71 72 74 76 76 77 78 78 78 77 75 74 74 74 74 72 69 64 60 58 57 56 54 53 52 51 51 51 50 49 49 50 52 55 57
66 68 68 69 70 71 72 72 73 74 75 76 77 77 78 78 77 76 76 75 75 74 69 63 59 56 55 55 53 51 50 49 48 48 47 47 48 49 50 52 53 54
68 69 70 70 71 72 73 74 74 74 74 74 75 75 76 77 77 76 75 73 72 70 64 58 55 56 57 57 55 50 46 44 43 42 43 44 46 48 49 50 51 52
70 70 70 70 70 71 72 72 72 72 72 72 72 72 73 74 74 73 72 70 68 66 63 60 58 58 59 57 54 48 43 41 41 41 43 44 45 47 49 50 51 51
70 70 71 71 70 70 70 70 70 70 71 71 70 70 72 72 71 71 69 68 67 67 66 64 61 59 57 54 51 50 49 48 50 51 51 49 46 46 46 48 49 52
71 72 72 72 72 72 71 71 71 71 72 71 70 70 71 72 72 71 70 69 69 69 67 66 65 63 60 58 56 56 57 58 60 60 58 54 50 48 48 47 48 51
71 73 73 73 73 73 73 72 72 73 72 72 71 71 71 72 72 72 71 70 70 69 68 68 68 67 67 67 67 67 66 66 67 66 65 62 60 60 60 58 58 60
72 73 74 73 73 73 73 73 73 73 73 73 72 72 73 73 73 73 72 72 72 72 71 71 71 71 72 73 74 74 73 73 74 74 73 72 73 72 71 70 71 72
74 75 74 74 74 74 74 73 73 74 74 74 74 74 74 74 75 74 74 74 74 75 75 75 74 74 75 75 76 77 77 78 78 78 76 74 74 75 74 74 75 74
74 74 73 72 72 72 72 72 72 72 73 73 73 73 74 74 74 74 74 75 74 75 76 75 74 74 75 75 76 77 77 78 77 75 73 72 71 72 73 75 76 75
72 72 71 69 69 68 67 67 67 67 68 68 68 68 69 69 70 70 70 71 71 70 71 71 70 70 71 71 71 72 72 73 72 69 68 70 70 70 71 73 74 75

ECMWFNIL_250_spd_033.txt.gz
Wind_Speed
48 48 47 46 43 42 43 44 44 45 45 45 45 45 44 43 42 41 39 36 33 30 27 24 23 24 24 24 24 24 24 24 25 25 25 26 27 29 30 32 33 35
48 47 46 45 45 45 45 47 47 48 48 48 48 48 47 48 49 50 49 46 43 40 35 29 26 24 24 24 26 26 27 26 26 26 27 28 29 30 31 32 33 34
48 48 45 44 44 45 45 47 49 51 51 51 51 52 52 54 55 55 55 53 50 48 45 39 32 28 26 25 25 27 29 30 30 30 29 29 30 31 32 33 34 35
47 47 46 45 45 46 46 47 49 50 52 52 52 53 54 55 56 57 57 56 54 52 50 48 42 36 31 28 27 27 29 32 33 34 34 34 34 34 34 35 35 36
46 46 47 47 47 48 48 48 49 50 50 51 51 51 52 54 55 56 56 57 56 55 54 53 50 46 40 35 32 31 31 33 34 36 37 38 38 39 39 40 40 40
45 45 46 47 47 48 49 50 50 50 50 51 51 52 53 54 55 57 57 58 58 58 56 54 53 51 48 43 39 38 37 37 38 40 41 42 43 43 44 45 46 47
45 46 46 47 48 49 50 50 51 52 52 52 53 53 55 56 58 59 60 60 59 58 57 55 53 52 51 49 47 44 42 43 44 46 47 48 49 48 49 51 52 53
47 48 48 48 49 50 50 51 51 52 53 53 53 54 55 57 58 59 60 59 58 57 56 55 54 53 52 51 50 48 46 46 48 49 50 51 52 52 54 57 58 56
47 46 46 47 48 50 51 52 52 52 52 52 52 53 55 56 57 58 58 57 57 57 56 55 55 54 53 52 52 50 49 49 50 52 52 52 53 54 57 59 60 58
48 46 47 50 53 55 55 53 53 53 53 53 53 53 54 55 56 57 58 58 58 58 57 56 56 55 54 54 53 52 51 51 52 52 52 53 56 59 61 61 60 57
48 49 51 53 56 59 59 58 56 56 56 55 54 55 56 56 57 58 59 60 60 60 59 59 58 58 57 57 56 55 54 54 53 54 55 58 61 63 64 63 61 58
46 50 51 51 52 56 59 60 59 58 57 57 56 56 57 58 59 59 60 61 61 61 61 61 61 61 62 61 60 60 60 60 60 61 63 65 67 66 64 63 61 59
42 44 43 41 42 46 51 55 57 57 58 58 59 59 59 59 60 60 61 62 63 63 63 63 64 64 65 65 64 64 65 65 66 68 70 70 70 68 65 64 62 60
41 42 40 36 36 41 46 50 53 54 56 58 59 61 62 63 63 63 63 63 64 64 64 65 66 67 67 68 68 68 69 69 70 72 72 71 70 68 66 65 64 62
42 44 44 42 42 45 48 51 54 57 60 62 63 64 64 64 63 63 63 62 63 63 64 65 66 67 68 69 70 70 70 71 71 72 72 71 70 69 69 67 65 62
45 44 46 47 51 55 58 58 59 61 63 65 66 67 67 66 64 63 63 62 61 61 62 64 65 66 68 69 70 70 70 70 71 71 72 71 71 71 69 68 66 64
52 52 52 54 57 61 62 61 59 59 61 63 65 66 67 67 66 66 66 66 65 65 66 67 68 69 70 70 70 70 71 71 71 71 71 71 71 70 68 67 67 66
59 61 61 63 63 62 62 60 57 57 59 61 62 65 66 67 67 68 69 70 71 72 73 73 73 73 73 73 72 71 71 71 71 71 70 69 68 66 65 65 64 63
65 65 66 67 66 63 61 57 51 49 54 57 59 62 64 66 69 71 72 74 75 76 77 77 77 77 76 75 73 71 70 70 70 69 68 66 64 63 64 65 64 62
71 70 69 69 68 66 65 61 55 56 63 66 66 69 71 73 75 76 77 77 77 77 78 78 77 77 76 74 73 71 70 69 69 68 67 65 64 64 65 65 64 62
76 75 74 73 73 73 73 73 72 74 78 80 80 81 81 81 81 81 81 80 79 78 77 76 75 75 74 74 73 72 71 70 70 69 67 66 66 67 66 65 64 62
76 76 75 75 76 76 76 77 78 79 82 83 83 82 81 81 81 81 80 79 78 77 76 76 75 75 75 75 75 74 73 72 72 71 70 68 68 69 69 68 67 65
75 75 74 74 74 75 75 76 76 78 79 79 79 79 79 80 80 81 80 79 78 78 77 77 77 76 76 76 76 76 75 74 73 73 72 71 70 70 71 72 72 72
72 72 73 73 73 74 74 75 76 77 78 78 77 77 77 79 80 81 80 79 79 78 77 77 78 78 78 77 77 78 77 76 76 75 75 74 73 74 74 75 76 77
72 72 73 74 74 75 75 75 76 77 78 78 77 76 77 79 81 82 81 80 80 79 78 78 79 79 79 79 79 79 79 79 78 78 77 77 77 77 76 77 78 79
74 74 74 75 75 76 76 76 76 77 78 78 77 77 77 79 80 80 80 80 79 79 77 76 76 76 77 78 78 78 78 77 77 77 77 77 77 77 76 76 76 77

ECMWFNIL_250_spd_036.txt.gz
Wind_Speed
47 45 44 42 41 41 40 39 38 38 38 38 37 37 38 37 37 38 39 41 42 44 45 46 46 46 45 45 45 44 42 41 38 35 31 28 26 25 25 26 28 30
50 48 45 43 42 43 43 42 40 40 40 39 38 38 39 39 40 40 41 42 44 45 46 47 48 48 48 49 48 46 45 44 42 38 34 31 28 27 26 26 28 29
52 51 49 46 47 47 45 43 42 41 41 41 40 40 41 41 42 43 44 45 45 46 47 49 50 50 50 49 49 48 46 45 44 42 39 35 32 30 28 28 29 30
52 53 52 51 51 50 47 45 43 41 40 41 42 43 44 44 44 45 46 46 47 47 48 49 49 50 50 49 49 48 47 45 45 44 43 41 38 35 33 32 32 32
51 51 51 51 50 48 46 45 44 42 41 40 41 43 44 45 46 46 46 47 47 48 48 49 50 50 50 50 49 49 48 47 46 45 45 45 43 41 38 37 36 36
46 47 47 48 47 46 45 45 44 44 43 42 42 43 44 44 44 44 45 45 45 46 47 48 49 50 50 50 49 49 49 48 48 47 47 47 46 45 44 42 41 41
43 44 45 46 48 48 49 48 48 47 47 47 47 47 46 46 45 45 45 45 44 44 45 46 48 48 48 49 49 49 49 49 48 48 47 47 48 48 48 47 46 46
40 42 44 46 48 50 51 52 51 51 51 52 52 52 52 51 51 50 50 49 47 46 45 46 47 47 48 49 49 49 49 49 49 48 48 48 49 50 50 50 50 49
31 34 39 42 45 49 52 54 54 54 55 55 55 55 55 55 55 55 55 54 51 49 48 48 49 49 50 50 50 50 50 50 50 50 49 49 50 50 51 52 52 52
25 26 29 33 36 40 43 47 50 52 53 54 55 55 55 55 55 55 55 55 53 52 51 50 50 51 51 51 50 50 50 51 51 51 51 51 51 52 53 54 54 54
31 31 30 30 31 33 36 41 44 48 51 53 55 56 57 57 56 55 54 54 53 53 52 52 51 52 52 52 51 51 51 52 52 52 53 53 54 54 55 56 57 57
36 37 36 36 37 37 39 43 48 51 54 57 59 60 61 60 58 56 53 51 50 51 52 52 53 53 54 54 54 54 54 54 54 54 54 55 56 57 57 58 59 59
41 42 43 44 46 46 47 50 53 53 52 53 55 57 59 59 59 59 56 54 53 53 54 54 55 56 56 56 56 56 55 55 54 54 54 54 55 56 56 57 57 58
49 48 48 49 51 53 54 54 54 52 50 49 48 48 50 52 53 55 57 57 58 59 58 58 59 59 59 58 58 57 56 54 54 53 52 53 53 55 57 58 59 60
55 54 53 52 53 54 56 55 54 54 54 51 48 46 46 48 50 51 53 55 56 58 60 61 63 63 62 62 61 59 57 55 55 54 54 55 56 58 60 61 62 63
57 57 55 55 54 55 57 58 56 55 54 52 51 49 47 50 53 55 57 57 59 61 63 64 65 64 63 63 62 61 59 57 57 58 59 60 61 62 63 64 64 64
53 52 53 55 55 54 57 57 55 55 55 52 50 50 50 51 53 56 61 62 63 64 64 64 65 65 65 65 64 63 62 61 61 62 64 65 66 66 67 67 66 65
50 49 50 51 51 51 53 52 49 49 52 52 51 51 54 56 57 59 63 64 62 63 64 65 67 68 68 67 65 64 64 65 66 68 70 71 71 71 70 69 68 67
57 58 59 58 55 52 54 53 48 45 48 53 57 58 60 62 63 65 67 66 64 64 67 68 69 69 69 68 68 68 69 71 73 74 75 75 74 72 71 70 69 68
67 68 68 68 66 64 63 61 58 53 53 56 61 64 65 65 64 62 64 67 69 69 71 72 73 74 74 74 75 75 76 77 78 78 78 77 74 72 71 69 69 69
75 75 74 73 73 74 72 70 69 68 67 67 67 69 71 71 69 65 66 71 74 75 77 78 79 80 80 80 81 81 81 81 81 80 78 75 74 72 71 70 70 69
80 79 78 78 77 77 77 76 76 76 76 77 77 76 77 79 80 80 81 83 83 83 84 84 84 84 85 85 85 84 82 81 79 77 76 74 74 73 72 71 71 69
82 81 80 79 79 78 78 78 78 78 79 80 80 81 81 82 83 85 86 86 86 85 85 85 85 85 85 84 83 82 80 78 77 76 75 74 74 73 73 73 73 71
81 81 81 80 79 79 79 79 79 79 79 79 79 80 80 80 81 82 82 81 81 81 80 80 81 81 81 81 81 81 79 78 77 76 75 74 74 74 74 74 74 73
81 82 81 81 81 80 80 80 79 79 78 78 79 79 79 79 79 79 79 78 77 77 77 77 78 78 79 79 80 80 79 79 78 77 76 75 74 74 73 73 73 73
83 83 83 82 82 82 81 80 80 80 79 79 79 80 80 80 80 80 79 79 78 78 78 78 78 78 79 79 79 79 79 78 77 75 74 73 72 70 70 70 70 69

ECMWFNIL_250_spd_039.txt.gz
Wind_Speed
48 47 47 47 47 47 47 48 48 48 48 47 46 45 43 41 39 37 35 32 30 29 29 30 31 33 34 34 35 36 36 37 37 37 36 35 35 35 35 35 35 35
45 45 46 46 47 47 48 48 48 47 47 48 47 46 46 44 41 38 35 32 31 30 31 31 32 33 35 36 37 38 38 39 39 39 37 36 35 35 35 35 36 37
44 44 44 44 45 45 45 46 46 46 45 45 45 44 42 41 38 35 33 32 31 31 33 33 33 34 36 37 38 39 39 39 38 37 36 34 34 34 34 36 37 38
45 45 44 44 44 44 44 45 46 46 45 44 42 41 39 36 34 32 32 32 33 34 35 36 36 35 36 36 36 36 36 36 35 35 34 33 32 33 34 35 37 39
45 46 46 45 45 46 46 46 46 46 45 44 42 41 39 36 34 33 33 32 32 33 34 35 34 34 34 34 34 35 35 35 36 35 35 34 33 33 34 35 37 38
46 47 48 47 47 46 46 46 46 46 45 43 42 41 40 38 38 37 36 35 35 34 35 35 36 36 38 39 39 40 39 39 39 38 37 36 35 35 35 36 37 38
47 48 50 51 50 49 47 46 46 45 45 44 43 43 43 42 42 42 42 41 41 41 42 42 43 43 44 44 43 43 42 41 41 40 39 38 38 37 37 38 38 39
47 49 51 52 53 52 51 49 47 46 46 45 45 45 45 46 47 47 47 46 47 47 48 47 47 46 45 45 44 44 43 43 42 41 40 39 39 39 40 40 40 40
46 47 47 45 44 44 43 44 44 45 46 47 47 47 48 48 48 49 48 48 48 48 48 47 47 46 46 45 45 45 44 44 43 42 41 41 41 42 43 43 42 41
44 46 45 42 38 37 36 38 41 43 45 48 49 49 49 49 49 49 48 48 48 47 48 49 49 49 48 47 47 46 46 46 45 44 44 45 45 46 45 44 43 43
39 42 42 41 39 40 40 41 42 43 44 47 49 49 49 48 48 48 48 49 50 51 52 53 52 51 49 49 48 48 48 48 48 48 48 49 49 49 48 46 46 46
34 36 36 37 38 40 41 43 44 45 45 47 48 48 47 48 48 49 49 51 52 53 53 53 52 51 51 51 50 51 50 50 50 50 51 51 51 51 51 50 49 49
32 35 36 38 40 41 42 44 46 47 48 48 49 51 51 52 52 52 51 51 51 51 50 49 48 47 47 47 47 48 49 49 50 51 51 52 53 53 53 52 52 52
34 37 38 40 43 45 46 48 48 48 49 50 51 53 53 53 53 52 50 49 48 47 48 47 43 39 39 40 42 45 47 49 50 51 52 53 55 55 54 54 55 56
42 43 44 46 48 50 50 51 51 51 53 53 53 51 50 50 49 49 48 46 43 41 42 43 42 41 42 43 46 48 50 52 53 54 55 56 56 56 56 57 59 59
51 52 53 54 55 56 56 56 56 56 56 56 55 53 51 51 50 48 47 47 45 43 42 43 45 48 51 53 54 55 55 56 57 57 58 57 57 57 58 61 62 60
57 56 55 55 55 55 56 58 58 59 58 56 54 53 52 52 52 52 51 51 50 50 50 50 51 53 56 58 59 59 60 60 60 59 59 59 59 60 62 63 62 61
58 58 56 55 53 52 52 52 52 53 54 53 51 50 50 51 52 53 53 55 56 57 59 59 59 61 62 62 62 61 61 61 61 61 62 62 62 62 62 63 64 66
58 58 57 58 56 53 51 49 49 49 51 52 51 51 51 53 54 55 55 58 61 63 65 65 66 66 66 65 65 64 63 64 64 64 65 65 65 66 67 69 71 73
59 59 58 59 58 57 55 54 54 55 55 56 56 57 58 60 62 62 61 63 66 66 67 67 67 67 67 67 67 68 69 70 70 70 70 72 73 75 76 77 77 77
63 63 62 62 62 62 62 62 62 61 61 62 63 64 65 67 69 70 70 70 70 70 69 68 68 68 68 69 70 72 74 76 77 77 78 79 79 80 80 79 78 76
66 67 67 67 67 66 66 67 67 67 67 68 68 69 71 72 75 76 77 76 75 74 74 74 74 74 75 76 78 80 81 82 82 82 81 80 80 79 78 76 75 74
69 70 71 72 72 72 72 72 73 73 73 74 75 76 77 78 80 81 82 82 81 79 78 78 78 79 80 81 82 82 82 82 81 80 79 78 78 77 76 75 74 73
73 74 75 76 76 77 77 78 78 79 79 79 80 81 81 83 84 86 87 87 85 83 81 80 80 80 79 79 80 80 80 79 79 78 77 77 76 76 75 74 73 72
78 79 79 79 80 81 82 82 82 82 83 84 84 84 86 88 89 90 89 87 86 85 83 82 81 81 80 79 79 79 78 78 78 77 76 76 76 75 74 73 72 71
83 83 83 83 83 84 85 85 86 86 87 87 87 89 90 90 90 88 87 86 85 84 83 82 82 82 81 80 80 80 79 79 78 77 77 76 76 75 73 71 70 70

ECMWFNIL_250_spd_042.txt.gz
Wind_Speed
49 49 49 49 49 49 49 49 49 48 46 45 45 44 44 43 42 40 39 39 38 37 36 35 35 35 35 34 32 29 27 26 25 25 25 25 24 23 22 22 23 23
49 48 47 47 47 46 46 45 45 44 44 44 43 43 43 42 40 39 38 38 38 37 36 36 36 36 36 34 32 30 28 26 25 25 25 25 24 24 24 25 25 25
47 46 45 44 43 42 42 41 41 40 40 39 39 40 40 39 39 38 37 37 37 37 37 36 35 35 34 33 31 29 28 27 26 24 24 25 26 27 28 28 28 28
44 42 40 39 39 38 39 39 39 39 38 37 37 38 38 38 38 38 37 37 37 37 36 34 33 32 31 29 28 27 27 26 25 25 26 29 30 31 31 31 30 30
42 41 40 39 38 38 39 39 38 38 37 37 36 37 37 37 37 36 36 36 36 35 34 32 30 29 28 27 26 27 27 27 28 30 33 34 34 33 33 33 33 32
40 40 40 39 38 38 37 37 36 36 36 36 37 36 37 37 37 37 37 37 38 37 36 34 32 31 31 30 31 31 32 34 35 36 36 36 36 36 36 36 35 33
37 37 37 37 37 35 34 35 35 36 37 37 38 38 39 39 39 39 39 38 39 38 37 36 35 34 34 34 35 36 37 37 37 37 38 39 39 39 39 38 36 34
35 35 34 34 35 35 36 38 38 38 38 39 39 39 39 40 40 39 38 38 37 37 37 37 37 37 37 37 37 38 38 39 40 41 42 42 41 40 40 39 38 36
36 36 35 35 36 38 39 40 39 39 39 39 39 40 40 40 40 39 39 38 38 38 38 38 39 39 39 38 38 39 39 41 42 43 42 42 41 42 42 40 39 37
37 37 36 36 38 38 38 38 37 37 37 37 38 38 39 39 40 39 39 39 38 38 39 39 40 40 40 40 40 40 41 42 43 43 43 43 43 43 42 40 38 37
37 37 36 36 36 35 34 33 34 34 35 35 36 38 38 38 39 39 39 39 39 39 40 40 41 41 42 42 42 43 43 43 43 42 42 43 43 42 40 39 37 37
37 36 35 35 34 33 32 32 34 35 35 36 38 39 39 38 38 39 39 40 41 42 42 42 42 44 44 44 45 45 44 43 43 42 42 42 41 40 39 39 39 40
36 34 32 32 31 31 33 33 35 37 37 38 38 39 38 38 37 39 41 42 43 44 44 44 46 46 46 46 46 45 44 43 41 40 39 39 39 39 40 42 43 45
34 34 32 31 31 33 35 36 37 38 38 38 39 39 39 39 40 42 44 45 45 46 46 47 48 47 46 46 46 45 43 42 40 38 38 39 40 41 43 46 49 50
35 35 34 33 34 35 37 37 37 38 39 40 41 41 41 42 43 45 46 47 48 49 49 48 48 47 47 46 45 43 41 40 40 41 42 43 45 47 50 53 54 55
37 36 36 37 38 40 40 39 39 39 40 42 43 44 45 46 48 50 51 52 53 53 52 50 48 47 45 43 41 39 39 40 42 44 47 49 51 54 56 58 59 59
41 40 40 41 42 43 43 42 41 42 43 44 46 49 51 52 53 54 54 53 52 51 49 47 46 44 42 41 40 40 42 44 46 50 52 55 57 59 60 60 61 62
47 47 46 47 48 47 47 46 47 48 50 52 53 54 55 55 55 54 53 51 49 47 45 44 43 43 42 42 42 44 46 50 53 56 59 60 61 62 62 62 63 64
51 52 52 52 53 52 52 52 52 53 54 55 55 55 54 53 52 51 50 50 50 50 49 47 46 46 46 47 49 52 55 58 60 61 62 63 64 64 64 65 66 67
57 56 55 55 55 55 55 55 54 54 54 55 55 56 55 54 53 52 51 52 52 53 53 52 52 52 54 55 58 60 62 63 64 64 64 65 66 67 67 69 70 71
62 61 61 59 58 57 58 57 57 57 57 57 58 58 58 58 58 58 58 58 58 59 59 59 59 60 61 62 64 66 67 69 70 70 71 71 71 72 73 74 75 75
65 65 65 64 63 62 62 62 61 61 61 61 62 62 62 63 63 63 64 65 66 67 67 66 66 67 67 68 69 71 72 74 75 76 77 78 78 78 79 79 79 78
70 69 69 68 68 67 67 67 67 67 67 67 67 68 68 69 69 69 70 70 71 72 73 72 72 72 73 74 75 76 77 78 80 81 81 81 82 83 83 82 81 80
73 73 73 73 72 71 71 71 71 71 71 71 72 72 73 73 73 73 73 74 75 76 77 77 78 78 79 80 80 81 82 83 84 84 85 84 85 86 86 84 83 82
75 75 75 76 76 76 76 77 77 77 77 77 76 76 76 76 76 76 76 77 78 79 80 81 82 83 83 84 85 86 87 88 88 88 88 88 88 88 87 85 83 82
76 76 77 78 79 80 80 81 82 82 82 82 81 81 80 80 80 80 81 81 82 82 83 84 86 86 87 88 89 89 90 90 91 90 90 90 90 89 87 85 83 82

ECMWFNIL_250_spd_048.txt.gz
Wind_Speed
56 55 54 54 55 54 54 53 52 51 49 47 45 44 44 44 43 41 40 39 39 37 36 35 34 34 34 32 31 30 28 26 25 23 22 22 22 21 21 21 22 22
56 56 55 55 53 51 50 50 49 48 46 44 41 40 40 40 39 39 38 37 37 36 35 34 33 33 32 32 31 29 28 26 25 24 23 23 23 23 22 23 23 24
47 45 44 43 43 43 43 43 44 44 43 43 42 41 39 38 37 36 35 34 34 34 34 34 32 32 32 31 31 30 29 27 26 25 24 25 25 25 25 24 25 25
37 35 35 35 34 36 38 40 43 44 44 44 44 42 39 36 34 34 33 33 33 33 33 32 31 31 32 32 31 30 29 28 27 26 25 25 26 27 26 26 26 27
35 34 32 31 31 31 32 34 37 39 40 40 39 37 35 33 33 33 34 33 33 32 31 31 31 31 31 31 30 29 29 28 27 27 26 27 28 28 28 28 28 28
36 34 33 33 33 32 32 32 33 33 33 33 32 31 30 29 30 32 33 33 32 31 30 30 31 30 30 30 30 29 28 28 28 29 29 29 29 30 30 29 29 29
40 38 37 37 36 35 34 34 33 32 31 29 28 27 27 27 28 29 31 31 31 31 31 30 30 30 29 29 29 29 29 30 30 30 30 30 31 31 31 31 31 30
44 42 39 36 35 35 35 35 35 33 30 29 28 27 27 27 28 30 31 32 32 32 31 30 30 30 30 30 31 31 32 32 32 32 31 31 32 32 32 32 30 28
45 43 41 38 35 34 35 35 34 33 31 29 28 28 28 30 32 33 35 35 34 34 33 32 32 33 33 34 35 35 35 34 33 32 32 33 33 33 32 31 29 28
44 44 44 41 38 36 35 34 33 32 30 30 30 31 32 33 35 36 36 36 35 35 35 35 35 36 37 37 37 37 36 35 34 34 34 34 34 33 31 29 29 30
45 46 47 45 43 40 37 35 35 34 34 34 35 37 38 38 38 38 37 36 36 36 37 37 37 38 38 38 38 37 37 35 35 35 35 34 33 31 30 31 33 34
45 47 49 48 46 44 42 40 39 38 38 40 41 41 41 40 39 39 39 38 39 39 40 40 39 38 38 39 39 39 38 36 35 35 34 33 32 32 33 35 36 37
35 40 43 44 44 45 46 46 45 44 42 41 42 40 39 39 39 39 40 40 40 41 41 41 41 40 40 41 41 40 38 37 35 34 34 34 35 36 37 39 40 40
31 35 37 39 40 43 45 45 44 44 42 40 41 40 39 40 41 41 42 41 41 41 41 42 42 42 41 41 39 39 38 36 35 34 35 36 38 40 41 43 43 43
38 40 41 42 42 42 43 41 39 39 39 38 39 39 40 41 41 40 40 39 39 39 40 41 42 42 41 40 39 39 39 37 37 37 38 40 42 45 46 46 46 46
43 45 45 45 45 43 42 41 39 39 40 39 38 38 38 40 40 40 40 41 41 42 44 44 44 43 42 42 42 41 40 38 39 40 42 45 48 49 49 49 48 47
43 44 45 45 45 44 42 42 42 45 46 46 45 45 44 44 45 45 46 47 48 48 48 47 45 44 44 44 44 43 41 41 43 45 48 50 51 51 50 49 48 46
39 40 43 43 43 43 42 42 44 47 48 48 49 51 51 52 53 53 53 53 51 50 48 47 46 45 44 45 45 45 45 47 49 51 52 52 52 51 50 49 47 46
42 42 45 46 45 45 45 44 46 48 50 50 51 53 54 56 56 55 54 52 50 49 48 48 47 47 47 47 48 49 50 52 52 53 53 52 50 50 50 49 48 48
47 47 48 50 50 49 49 48 49 50 52 54 55 55 56 56 56 56 55 53 52 50 49 49 49 49 50 50 51 51 51 52 52 52 52 51 50 51 51 52 51 52
53 52 52 53 53 52 52 52 51 52 54 55 56 57 57 56 54 53 52 52 52 51 50 49 49 49 50 51 53 53 53 53 53 53 52 52 53 54 55 56 57 59
53 53 53 54 55 55 54 53 53 54 55 56 58 58 58 57 55 52 50 49 49 49 49 50 50 50 51 52 54 55 55 55 56 56 57 57 58 60 62 64 66 69
53 52 52 53 55 56 56 55 55 55 56 57 58 59 60 60 60 58 56 55 55 55 55 55 55 55 55 56 56 58 59 60 61 62 64 65 67 69 71 72 73 74
55 54 52 52 54 55 55 55 55 56 57 58 59 60 60 61 61 61 61 61 61 61 60 60 60 60 61 62 63 64 66 68 69 70 72 73 75 76 76 76 76 77
55 54 54 54 55 56 56 56 56 56 57 58 59 60 61 62 63 63 64 65 65 65 65 66 66 67 68 69 70 71 73 74 75 76 77 78 78 79 79 79 79 80
56 56 56 56 57 58 59 60 60 60 61 61 62 62 63 64 65 66 67 68 68 69 69 70 71 72 73 74 75 76 77 78 79 79 80 81 81 82 82 83 83 84

ECMWFNIL_250_spd_051.txt.gz
Wind_Speed
43 39 45 52 51 50 50 49 48 49 49 49 50 51 50 49 50 52 52 49 45 40 37 34 31 29 28 28 27 27 26 26 26 26 26 27 27 28 28 27 26 26
46 45 49 52 53 53 52 50 49 50 51 52 53 54 55 55 55 52 48 42 38 36 33 32 30 29 28 27 27 27 26 26 26 26 26 27 28 28 28 28 27 27
56 57 58 58 58 58 57 57 58 58 56 54 51 50 50 50 48 43 39 37 36 34 33 33 32 31 29 28 27 27 26 26 25 25 26 28 29 29 29 29 28 29
64 65 64 63 63 62 62 62 60 55 50 44 40 38 38 40 40 39 38 38 37 35 33 32 31 30 29 29 28 28 26 25 25 26 27 28 29 30 30 30 29 30
56 58 58 59 59 59 57 55 51 46 42 36 32 30 30 32 34 35 36 36 34 32 29 28 28 27 27 28 28 27 26 25 25 26 28 29 30 30 31 31 31 31
49 49 50 52 51 50 47 44 42 41 38 35 31 29 29 29 30 31 32 32 30 28 27 27 26 26 25 25 26 26 26 26 26 27 28 29 29 30 31 32 32 33
47 46 46 46 46 44 42 41 40 39 37 35 33 31 31 32 31 31 31 30 30 28 28 27 26 26 26 27 27 28 28 28 28 28 29 30 30 30 31 33 34 35
46 45 44 44 43 41 41 41 41 40 39 38 36 34 34 33 32 31 31 32 32 31 30 30 29 29 30 31 31 30 30 30 30 30 30 30 30 31 32 34 35 36
45 43 44 45 45 44 43 42 42 43 42 41 40 39 37 34 33 34 34 34 34 33 32 32 32 32 33 34 33 33 32 32 31 32 31 31 31 31 33 35 36 37
45 43 42 44 46 46 46 45 46 46 45 44 43 42 39 37 36 36 36 35 35 34 33 33 34 35 35 35 35 34 33 33 34 34 33 32 31 32 34 35 37 37
44 43 42 43 43 44 44 46 47 46 45 43 41 40 38 36 36 36 36 36 36 36 36 37 38 38 37 36 35 34 34 35 36 36 34 33 32 34 35 36 36 36
46 45 45 45 45 44 44 46 47 45 44 43 40 38 36 36 36 37 38 39 41 42 42 43 42 40 38 37 36 35 36 37 37 36 35 35 35 36 36 36 36 36
45 45 44 45 45 45 45 45 45 45 44 44 43 41 39 39 39 40 42 44 45 45 45 44 43 41 39 38 37 37 37 38 38 37 37 37 39 38 37 36 35 35
42 41 41 40 40 41 41 42 43 43 43 43 42 41 40 40 41 41 41 43 44 44 43 41 40 39 38 38 37 37 38 38 38 39 40 42 41 38 36 36 35 35
44 43 40 38 39 41 41 42 42 43 43 42 40 38 38 38 38 37 37 38 40 41 41 40 39 39 39 39 38 38 38 39 41 43 45 45 42 38 36 36 36 36
42 41 39 39 41 43 42 40 41 42 42 41 40 39 39 38 37 36 35 36 39 41 41 41 42 41 40 40 40 40 41 43 46 47 47 44 41 39 38 38 39 40
38 38 39 40 42 43 42 40 40 41 41 41 41 41 40 38 37 37 36 37 39 41 42 43 44 43 43 43 44 45 47 49 49 48 47 45 43 42 41 41 41 43
37 39 42 44 45 45 44 43 41 41 43 44 44 44 42 39 38 40 41 41 43 44 45 47 48 48 49 50 51 52 52 51 50 49 47 46 45 45 45 45 45 46
42 43 46 47 47 47 47 46 46 46 46 46 45 43 41 40 42 44 45 46 48 49 50 51 52 53 54 55 55 54 53 52 51 50 49 48 48 48 48 49 49 50
48 50 51 52 52 52 51 52 52 50 49 48 45 42 42 43 45 46 47 49 50 51 52 52 53 53 54 54 55 55 54 53 52 51 51 50 50 49 49 49 50 50
50 52 53 54 55 55 54 53 51 50 50 51 49 47 46 46 47 48 49 50 52 53 53 53 54 54 54 54 54 54 53 52 51 51 50 50 50 51 51 52 52 53
46 47 49 51 52 52 50 50 49 50 52 53 51 50 49 48 49 51 51 52 53 54 55 55 54 54 54 53 52 51 50 49 49 50 50 51 52 53 54 55 57 57
45 46 47 49 50 50 50 51 52 52 54 55 54 53 53 53 53 54 54 54 54 55 55 55 54 53 51 51 51 50 51 51 52 53 54 55 55 56 57 58 59 60
48 49 49 49 50 50 52 55 57 58 59 59 59 58 57 57 57 56 56 56 56 56 57 57 57 57 57 58 58 58 58 59 59 59 60 61 60 60 61 62 64 65
50 50 51 51 50 50 52 55 58 60 61 61 61 60 59 59 58 58 58 58 58 59 59 60 60 61 62 63 63 63 63 63 63 63 64 65 66 66 68 69 70 72
52 53 53 54 54 54 54 56 57 59 60 59 58 58 58 58 58 58 58 58 59 60 61 62 62 63 63 64 64 65 65 65 66 67 68 69 70 72 73 74 75 76

ECMWFNIL_250_spd_054.txt.gz
Wind_Speed
42 42 43 44 45 46 47 48 47 45 43 43 42 43 44 45 46 46 45 45 44 43 43 45 47 46 43 41 40 37 35 33 31 31 31 31 30 30 31 31 32 33
41 40 42 43 42 41 42 43 42 40 39 41 42 43 45 45 43 41 40 41 42 44 46 48 48 44 39 37 35 34 33 32 31 31 32 32 31 31 31 31 32 32
46 42 45 47 43 39 41 43 42 41 40 42 43 43 44 44 43 43 44 45 46 46 46 45 42 38 35 34 33 32 30 29 29 29 30 30 30 30 31 31 31 32
54 51 50 50 47 45 46 46 44 42 41 43 45 46 47 48 49 51 52 49 47 45 42 39 37 34 33 31 30 29 28 28 28 27 26 26 26 27 29 31 31 32
59 58 57 55 52 51 52 52 49 45 43 44 46 49 52 53 54 54 50 46 45 42 38 34 31 30 29 29 28 29 29 29 28 27 25 25 24 25 27 29 31 32
60 60 62 61 59 57 56 55 53 50 49 50 51 53 55 55 54 51 48 46 44 39 34 29 27 27 28 28 29 30 31 30 30 29 29 28 27 28 28 28 30 31
60 59 60 61 61 59 56 53 52 51 52 54 56 57 56 53 50 48 46 45 42 38 34 30 29 29 29 30 31 31 31 32 32 32 32 31 31 31 30 28 29 30
58 56 56 57 59 56 52 50 50 51 53 54 55 54 52 49 47 46 45 43 41 39 36 34 33 32 32 32 32 32 32 33 33 33 33 33 33 33 31 29 28 29
56 55 52 52 54 55 53 50 48 48 49 50 50 49 48 47 46 46 44 43 41 40 38 38 37 36 36 34 33 33 33 34 34 34 35 35 35 34 31 29 29 30
54 56 54 49 48 50 51 50 47 46 47 47 46 46 45 44 44 44 44 43 43 42 42 41 40 39 38 35 34 33 34 35 36 37 38 37 36 33 31 30 30 31
52 56 57 54 50 49 51 52 51 49 47 45 45 45 45 44 44 45 45 45 45 45 44 43 41 39 37 35 35 35 36 38 38 39 38 37 35 33 32 32 32 32
51 55 57 57 54 53 53 54 54 52 49 48 47 46 46 46 46 47 48 48 47 45 44 42 40 39 37 37 37 38 39 39 38 38 36 35 33 33 33 34 33 34
50 53 55 56 56 56 55 54 54 52 51 51 50 49 48 47 47 48 48 47 45 43 41 40 39 39 38 38 38 38 38 37 37 37 35 34 33 32 33 34 35 36
51 53 54 55 55 55 54 54 53 52 51 51 50 49 48 48 47 46 46 44 42 40 40 39 39 39 39 39 39 38 37 37 37 36 35 34 34 33 33 34 36 37
51 53 55 55 53 51 49 50 50 51 52 51 50 48 47 47 45 43 41 40 40 40 41 40 39 39 40 40 40 39 38 38 38 37 36 36 36 36 35 36 38 40
46 50 52 51 49 47 45 45 47 50 51 51 50 48 47 45 43 41 41 42 44 44 44 43 43 43 42 41 40 38 38 38 38 38 39 39 39 39 39 40 42 45
38 43 46 45 45 45 45 45 46 49 50 49 49 49 47 46 46 46 48 49 49 49 47 47 46 44 43 42 42 40 39 39 40 40 41 42 42 43 44 45 46 47
41 43 45 44 44 44 44 44 45 47 47 47 48 47 47 47 49 50 52 52 53 52 51 50 48 46 45 45 44 42 41 40 41 42 43 45 46 47 47 47 47 47
49 49 48 46 45 45 44 45 46 46 46 46 46 45 46 47 48 49 50 51 51 51 51 50 49 48 47 46 44 42 40 41 42 44 45 47 47 48 48 48 48 48
50 51 50 47 45 44 44 44 44 43 43 44 44 44 46 47 47 48 49 50 51 52 52 51 50 49 47 45 44 43 42 44 45 46 46 47 48 49 49 50 50 48
48 50 49 47 45 43 42 42 42 42 42 43 45 46 47 47 49 50 52 53 54 55 55 54 52 51 49 47 46 46 47 48 49 49 49 49 50 51 51 50 49 48
48 49 49 49 48 45 43 42 43 45 46 47 49 50 51 53 55 56 57 58 59 60 59 57 55 53 51 50 50 51 52 52 52 52 52 51 52 51 50 49 48 48
50 51 51 52 52 51 49 49 50 51 51 53 56 58 59 60 61 62 62 62 62 62 60 58 56 55 53 53 55 56 56 55 55 54 54 53 52 52 51 51 51 52
51 52 53 54 54 54 55 56 56 56 55 57 59 61 62 62 63 64 63 62 61 59 57 56 55 55 56 58 59 60 59 58 57 55 54 54 54 54 54 55 56 56
52 53 54 55 55 55 55 56 57 57 56 56 57 58 59 60 61 62 62 61 60 58 57 56 56 58 59 61 61 61 60 59 58 57 56 56 56 56 56 57 58 60
55 54 54 55 56 56 55 55 55 56 57 57 57 57 57 58 60 61 62 62 61 60 59 59 60 61 62 62 62 61 60 59 58 58 58 58 58 58 58 58 59 61

ECMWFNIL_250_spd_057.txt.gz
Wind_Speed
45 45 46 46 46 47 46 45 44 45 45 45 44 43 40 39 40 41 41 40 39 38 38 39 41 43 44 44 43 41 39 39 41 39 33 30 29 27 27 29 30 31
45 45 45 47 48 48 46 45 44 43 44 44 44 43 42 41 40 40 39 38 37 37 39 41 44 45 44 42 40 41 41 41 41 38 32 29 27 26 26 26 25 26
46 46 46 48 49 49 48 47 45 44 43 43 43 42 42 42 42 42 39 36 37 39 42 44 45 44 43 42 43 44 42 41 39 35 32 29 27 26 26 26 25 25
47 47 48 49 49 49 49 47 45 45 44 43 42 42 44 45 45 44 41 38 39 41 43 44 44 43 44 45 47 46 42 40 37 34 32 29 27 27 28 28 28 28
48 46 46 48 49 50 51 47 44 43 44 43 44 46 47 48 47 44 40 40 41 41 42 43 45 47 49 50 49 46 42 40 37 34 32 29 28 29 29 29 29 30
47 44 43 45 48 51 53 53 50 47 46 45 47 49 51 50 47 43 41 41 42 43 44 45 48 51 52 50 48 46 42 38 35 33 31 29 29 30 31 31 31 31
45 43 41 42 45 49 52 55 56 56 54 52 50 50 49 48 46 45 44 44 45 46 47 48 50 52 51 50 48 45 40 36 34 32 31 31 31 31 32 32 32 33
42 42 40 41 43 47 50 53 56 59 60 59 56 53 50 49 48 48 48 49 50 50 51 51 52 53 52 51 47 42 38 36 35 34 34 34 33 32 32 33 33 35
38 39 38 38 39 43 48 53 56 58 59 60 60 58 56 55 54 53 53 53 52 52 52 52 53 52 50 47 44 41 39 38 38 38 37 35 34 33 33 34 35 36
37 37 36 35 36 40 47 53 57 58 59 60 60 59 58 57 55 54 53 52 51 50 50 50 49 48 46 44 43 42 41 41 40 39 37 35 34 34 35 36 36 34
39 40 40 37 35 38 45 50 53 56 57 58 58 56 54 53 52 51 50 49 48 47 46 46 46 45 45 44 44 44 43 43 42 39 36 35 35 35 36 36 34 32
39 38 39 38 34 36 44 49 50 52 54 55 56 54 52 49 48 48 47 46 45 45 46 47 47 46 46 45 46 45 45 43 41 38 36 35 35 35 35 35 33 32
36 33 33 36 36 40 46 50 50 52 53 53 53 53 52 50 48 48 49 50 50 50 49 48 47 47 47 47 47 46 44 42 39 37 36 34 35 35 35 35 34 33
37 34 32 34 37 41 48 53 54 55 54 54 54 54 53 52 49 49 51 54 55 54 52 49 48 48 48 48 47 46 43 40 38 37 35 34 35 37 37 37 37 36
37 36 35 36 36 39 45 52 54 55 56 57 57 56 55 54 52 51 53 56 57 56 53 51 50 50 49 48 47 44 41 39 37 37 36 36 37 39 40 40 39 38
38 36 36 39 39 41 47 52 52 51 52 54 54 54 53 53 51 51 53 56 56 54 52 50 50 49 48 47 45 42 40 39 38 38 38 38 40 41 42 41 41 41
37 38 39 43 44 45 50 53 51 50 51 51 50 51 51 51 50 51 53 54 52 50 49 48 48 47 47 46 44 43 42 41 40 40 40 41 41 42 43 43 43 42
38 41 43 46 46 46 49 51 50 50 52 53 53 52 52 52 52 52 52 51 49 49 48 48 47 47 46 46 45 45 44 43 42 42 43 43 43 44 45 45 44 42
41 43 44 44 44 46 51 53 51 50 51 54 54 54 54 53 53 52 51 50 50 50 49 49 48 48 48 48 47 46 45 44 44 44 44 45 46 47 47 46 44 42
43 45 46 45 44 47 52 54 52 52 53 54 55 56 56 55 53 53 51 50 50 50 49 49 48 48 48 48 48 47 45 45 45 45 47 48 49 49 48 48 46 44
47 46 48 48 47 48 50 50 49 50 51 51 53 55 56 55 54 52 51 50 50 49 48 48 48 48 48 48 47 46 45 45 46 47 49 51 52 51 51 50 49 48
55 52 50 50 50 49 49 49 49 50 51 53 55 56 56 55 53 50 49 49 49 48 48 48 48 49 48 48 47 47 47 48 49 50 52 54 54 54 53 52 51 52
62 59 55 52 52 52 52 52 52 53 55 55 56 57 57 56 53 51 50 49 49 49 49 49 49 49 48 48 49 49 50 52 53 55 56 56 55 54 53 53 53 55
65 64 60 56 54 55 55 55 54 54 55 55 56 57 57 55 55 53 51 50 50 49 49 49 49 50 51 52 53 54 56 58 58 58 58 57 57 56 55 55 56 59
65 66 64 60 57 57 57 57 56 56 57 58 58 57 56 55 55 54 52 51 51 50 51 52 54 55 56 58 59 60 60 61 61 60 60 60 59 58 58 59 61 63
65 66 66 64 62 60 60 61 60 60 59 59 59 58 57 57 57 56 55 55 55 55 56 58 60 60 61 61 62 62 62 62 62 63 63 63 62 61 62 63 65 67

ECMWFNIL_250_spd_060.txt.gz
Wind_Speed
35 32 32 35 38 42 48 51 50 48 47 46 47 47 45 42 41 41 42 43 44 44 40 35 35 39 41 41 40 38 37 38 41 41 40 41 41 40 39 38 37 36
38 36 36 38 38 39 42 45 48 48 45 44 44 46 46 44 42 40 40 41 41 40 38 36 38 41 42 40 39 38 38 40 41 41 41 41 40 41 41 39 38 36
40 38 39 39 39 41 39 37 43 46 46 45 44 44 43 43 42 40 38 38 37 36 35 36 37 38 39 39 38 39 39 39 40 41 41 40 41 43 43 41 39 35
38 38 38 38 39 41 38 35 40 45 46 46 46 44 42 41 41 39 38 37 36 36 35 35 36 37 38 39 38 38 37 38 41 41 40 41 43 44 43 41 38 33
32 32 32 34 36 38 36 33 36 40 44 46 46 44 43 42 41 40 39 39 37 36 37 37 38 39 40 39 38 38 38 39 40 41 41 43 44 44 43 41 36 32
31 30 29 30 33 32 29 28 30 36 42 46 47 45 44 42 42 42 41 41 39 38 39 39 40 41 42 41 40 40 41 40 41 43 44 45 45 44 43 39 34 32
32 29 27 27 29 26 23 25 30 34 38 44 47 46 45 44 44 44 42 40 39 39 41 42 43 44 45 44 43 43 42 43 44 46 47 47 46 45 42 38 34 33
32 26 24 24 23 22 24 30 34 33 35 43 46 45 46 47 47 47 46 45 44 44 45 46 46 45 45 44 44 44 46 47 47 47 47 46 45 44 40 37 35 35
32 28 25 25 24 21 26 34 35 31 36 45 46 44 46 48 48 49 50 50 49 48 48 48 46 45 45 46 48 50 50 49 47 45 44 44 43 41 39 38 37 37
34 30 27 26 27 25 27 34 35 31 38 48 48 45 44 45 47 49 48 48 49 49 49 50 50 51 52 53 52 51 48 46 44 43 42 41 41 41 40 39 39 38
35 31 27 27 29 28 29 34 35 34 38 45 48 46 43 41 42 44 44 46 47 50 52 53 54 54 52 50 48 45 44 44 42 41 41 42 42 42 41 41 40 39
35 29 27 28 28 27 29 32 34 35 36 39 45 48 45 41 39 40 43 46 48 50 51 51 50 48 46 44 43 42 42 42 41 41 43 43 43 43 42 42 41 39
36 31 30 30 28 27 30 32 34 36 36 38 43 49 48 44 41 41 43 46 47 48 47 46 44 43 42 42 42 41 42 42 43 44 45 44 44 44 43 42 41 39
35 33 33 33 31 30 31 34 36 37 39 41 44 49 50 47 45 44 44 45 45 45 44 44 43 42 42 42 43 44 45 46 46 46 45 45 45 45 44 43 41 38
33 33 34 35 34 33 33 36 37 38 41 45 48 50 51 48 47 48 47 46 45 44 44 44 44 44 44 45 45 46 46 47 47 47 46 46 46 45 44 42 40 37
33 33 34 34 34 35 36 36 37 38 43 47 48 49 49 47 46 48 50 50 48 48 48 48 49 49 48 49 49 48 48 48 48 47 47 47 46 44 43 41 39 38
37 36 35 32 33 36 37 37 38 40 45 48 49 48 48 48 47 49 54 56 53 50 50 51 53 53 52 51 50 49 48 48 47 47 47 46 44 43 42 40 39 39
42 40 37 33 33 36 38 39 40 42 47 52 52 51 51 52 52 54 57 58 53 50 51 52 52 52 50 49 48 48 48 47 47 47 46 45 44 43 42 41 40 40
45 43 40 36 37 38 39 41 41 43 49 54 54 53 53 54 54 53 55 56 52 50 53 53 52 51 50 50 50 50 50 49 49 47 46 47 45 43 42 42 42 41
47 47 43 39 38 40 40 42 44 46 50 53 54 54 54 53 52 51 53 56 55 53 55 56 56 55 55 55 54 53 52 50 48 48 48 48 47 45 44 44 43 43
50 51 49 43 40 42 44 46 49 51 53 54 54 55 56 56 56 55 56 58 58 57 57 59 59 58 57 57 55 54 52 49 47 48 49 49 48 48 47 45 44 44
56 56 54 50 46 46 49 51 52 55 58 59 59 59 60 59 58 57 56 57 58 58 59 59 58 56 56 55 55 54 52 50 48 50 51 51 50 50 49 47 46 46
63 60 58 56 53 53 54 55 55 57 58 60 61 62 60 58 57 57 58 60 62 62 62 60 58 57 56 55 54 54 52 51 51 51 52 52 51 50 50 49 49 48
66 62 59 57 57 59 60 59 59 60 60 60 60 60 59 57 58 59 61 63 64 64 63 63 62 61 59 57 56 56 55 54 53 52 52 52 51 51 51 51 52 52
66 63 60 59 60 62 64 63 63 64 63 61 60 58 58 58 59 60 62 63 63 62 61 61 61 60 58 56 55 55 55 54 54 53 53 53 52 52 52 53 55 57
66 64 61 61 63 65 65 65 66 66 65 63 59 57 57 59 60 61 62 62 62 61 60 59 58 57 56 55 55 54 54 54 54 54 54 54 54 54 55 56 58 60

ECMWFNIL_250_spd_063.txt.gz
Wind_Speed
44 40 36 34 30 28 29 32 34 35 36 37 38 40 40 40 42 44 45 44 43 39 37 35 36 38 40 41 41 41 39 38 36 35 35 35 36 36 36 35 36 37
41 40 37 35 32 29 27 27 28 27 28 29 31 35 39 43 45 45 45 44 45 44 43 42 41 40 40 40 40 40 39 39 38 37 37 38 37 35 33 33 33 35
36 39 38 36 35 33 30 29 28 27 26 26 26 29 32 36 40 42 42 40 40 41 43 44 44 42 38 36 36 36 37 38 38 37 37 37 35 32 31 31 31 34
32 38 41 39 37 35 32 29 26 26 25 22 23 26 30 33 36 38 39 39 38 38 40 42 42 40 36 32 32 32 33 33 34 34 34 34 32 31 31 31 32 35
32 37 41 40 37 35 31 28 26 25 24 23 23 26 30 35 39 40 39 39 39 38 38 40 40 38 35 31 31 30 30 30 30 31 31 32 32 32 32 33 35 39
36 37 40 38 34 32 33 32 29 27 25 26 29 30 32 34 38 40 39 37 38 39 39 40 39 38 35 31 30 30 30 30 31 31 32 33 33 34 34 35 39 41
38 38 38 36 31 31 35 34 31 28 26 29 33 34 35 36 35 38 39 35 35 37 38 40 40 38 36 33 32 32 32 33 33 34 35 35 35 35 36 39 42 41
39 37 37 36 32 31 34 33 31 32 30 31 35 36 36 36 35 39 39 36 35 36 37 38 39 37 36 35 35 35 35 35 36 37 37 36 36 37 41 42 41 38
38 35 36 38 36 34 33 32 34 36 35 34 37 39 38 34 34 39 41 39 38 38 37 39 39 39 38 39 40 40 40 39 39 38 37 37 39 42 43 41 38 37
40 33 36 41 40 37 35 33 35 36 36 37 39 42 43 38 36 41 44 43 43 42 41 40 41 42 43 44 44 44 44 41 38 38 40 42 43 43 40 38 36 37
43 37 38 42 43 41 36 33 34 34 36 40 41 43 46 45 42 43 44 45 47 47 47 45 44 45 46 47 47 46 45 42 40 41 43 43 41 39 37 36 36 37
47 42 41 44 46 43 38 34 34 34 36 39 42 44 46 46 46 45 44 45 47 48 49 50 48 45 45 47 48 47 45 43 41 42 41 39 37 36 36 35 36 37
46 45 44 47 48 43 38 36 35 35 36 37 39 42 46 48 47 44 44 46 47 47 48 50 47 42 40 41 43 44 43 40 39 39 38 37 36 35 35 36 37 39
44 45 46 49 49 43 35 33 34 37 39 38 38 41 46 51 51 46 44 47 47 46 47 48 48 44 41 40 40 39 39 38 38 38 37 36 36 36 37 39 40 41
44 45 47 49 48 42 36 32 33 37 40 40 41 41 44 51 54 50 47 48 48 49 51 51 52 51 48 44 41 39 38 38 38 39 38 38 39 40 40 41 42 42
47 48 49 50 49 46 41 37 35 37 39 39 41 43 43 47 54 55 54 53 53 53 56 56 55 55 51 46 44 43 42 41 41 41 42 42 43 43 43 43 44 43
51 51 51 52 51 48 45 41 39 41 41 40 42 45 45 45 51 56 59 59 58 55 55 54 53 51 49 47 47 46 45 44 44 44 44 44 45 45 45 44 43 42
54 54 53 54 52 48 46 44 42 40 39 40 44 47 48 47 49 53 56 57 57 54 52 51 50 50 49 48 47 46 46 48 49 48 46 46 47 46 44 43 42 42
56 55 55 55 52 49 48 46 42 38 37 41 45 47 49 50 50 51 53 54 53 52 51 52 52 52 51 50 47 47 49 52 54 53 52 51 50 48 46 45 45 46
55 54 54 53 51 49 50 48 45 42 39 42 46 48 50 51 51 51 52 52 51 52 53 54 54 54 55 54 53 52 52 52 53 53 53 52 52 51 50 49 49 49
51 53 52 52 50 50 50 49 48 48 47 46 47 49 52 54 52 52 52 51 52 53 54 55 56 56 55 54 54 54 51 50 51 52 53 54 54 53 52 51 51 50
50 51 52 51 51 51 51 49 49 49 49 49 49 50 53 55 54 54 54 54 54 55 56 56 57 57 55 54 53 52 52 52 54 55 56 55 55 54 53 51 51 51
50 51 51 51 51 51 52 52 52 50 47 47 50 52 53 56 56 56 56 55 55 56 57 58 58 59 58 57 57 56 55 57 58 57 57 57 56 56 56 54 54 53
50 51 52 52 53 53 52 51 53 53 50 48 51 53 54 57 59 58 57 56 56 58 59 60 61 61 60 60 61 61 61 62 62 60 59 60 60 61 60 59 58 56
52 52 53 55 57 58 56 54 53 54 54 54 55 55 56 59 60 60 59 58 57 58 59 60 62 63 63 63 64 64 65 66 66 64 62 63 64 64 64 62 61 60
56 54 55 57 60 62 62 61 58 57 57 58 59 58 59 60 59 59 60 59 58 59 60 61 62 64 64 64 65 66 66 67 67 66 66 67 67 67 66 65 64 64

ECMWFNIL_250_spd_066.txt.gz
Wind_Speed
33 35 36 33 28 26 25 25 27 31 35 38 38 36 35 36 38 41 43 42 40 38 38 39 39 40 40 39 36 33 33 34 36 37 38 39 40 40 39 38 38 37
36 36 37 34 30 29 27 25 24 26 28 31 35 38 38 38 38 38 39 42 44 44 44 44 42 44 46 45 42 39 37 37 38 38 39 39 40 40 39 39 39 38
39 39 38 36 33 31 32 29 25 26 27 27 31 37 40 40 39 37 35 36 41 44 46 47 46 46 47 47 47 46 46 45 43 42 41 38 38 37 38 38 38 37
41 41 39 37 34 33 37 37 31 29 29 29 31 34 38 40 39 38 36 34 37 40 43 48 49 48 48 48 49 49 48 47 44 42 40 37 34 33 35 36 35 35
41 41 40 40 38 36 38 42 38 34 33 32 32 33 37 40 40 38 38 36 33 34 38 45 49 49 48 48 47 45 44 43 42 40 37 35 32 31 33 34 33 31
41 41 41 41 40 39 39 42 42 39 37 36 35 35 38 42 42 41 40 39 35 33 37 42 44 44 44 43 41 40 39 39 39 38 36 34 32 30 30 31 31 30
42 42 42 40 39 40 40 42 42 41 41 40 38 36 37 39 41 41 41 41 39 38 38 40 39 38 40 40 39 38 38 38 38 37 35 34 32 30 29 30 31 30
44 44 44 43 42 41 41 43 43 41 41 41 40 37 36 38 39 40 41 43 43 40 38 38 36 34 35 37 36 36 36 35 36 36 36 36 34 33 33 33 32 31
48 47 46 46 46 43 41 42 41 39 38 39 40 39 37 38 41 42 42 44 46 43 38 37 36 33 31 31 31 32 33 33 33 34 35 37 37 38 37 36 35 34
52 50 48 49 50 45 40 39 39 40 39 38 39 40 39 38 41 44 45 45 47 44 39 37 37 36 35 33 33 34 35 35 35 35 36 36 38 39 40 40 39 37
55 53 50 50 51 48 43 40 38 39 38 37 38 40 40 39 40 44 47 47 47 45 42 41 40 40 40 39 38 38 38 38 38 39 39 39 39 40 42 43 42 40
57 56 53 51 51 50 47 42 39 38 37 37 39 42 43 43 42 43 46 48 47 46 46 45 44 44 43 43 42 41 41 42 42 42 42 42 41 41 42 44 43 41
58 58 55 53 52 53 50 45 41 42 41 38 39 42 44 45 45 45 46 48 49 48 49 49 48 48 48 46 45 45 46 46 45 44 43 42 40 38 38 39 39 38
60 60 58 55 53 53 53 49 44 44 45 41 40 41 42 44 46 47 47 48 49 50 50 52 52 51 51 49 47 47 47 47 46 46 44 42 39 36 36 35 35 34
61 61 61 58 54 53 54 52 48 46 47 45 42 42 43 43 45 47 48 50 51 51 51 52 53 52 52 51 50 50 48 48 48 48 47 45 43 41 41 39 37 36
61 62 62 60 56 54 54 54 51 47 48 47 43 42 45 45 44 45 48 51 52 51 51 52 54 55 55 55 54 54 53 52 51 51 51 50 48 49 50 46 42 40
59 61 62 61 58 56 55 54 51 47 47 48 44 41 44 46 47 47 47 48 48 49 50 51 53 56 57 57 56 57 56 55 55 55 55 55 54 55 54 48 43 42
57 58 60 60 58 56 56 55 52 49 48 49 49 46 44 46 47 49 50 49 47 47 49 50 52 53 54 53 55 57 56 55 55 55 55 55 55 55 52 47 44 44
54 55 57 57 56 55 56 56 54 52 51 52 53 50 47 46 47 49 51 52 51 49 49 50 51 53 52 51 53 56 56 55 55 53 53 53 52 51 50 48 46 45
52 54 55 56 56 55 55 55 54 52 53 55 55 53 50 49 49 49 51 53 54 53 52 52 52 53 52 51 53 55 56 57 57 55 53 52 51 51 51 50 50 50
50 52 55 56 56 55 55 55 55 53 53 55 58 57 55 52 51 50 51 53 54 54 54 54 54 54 53 52 52 54 56 57 58 57 55 53 52 53 54 54 54 54
47 49 52 54 56 56 55 55 56 55 54 56 59 60 58 55 54 52 51 50 51 52 54 55 56 56 55 55 54 54 55 57 57 57 55 54 54 55 56 56 56 56
47 47 48 51 53 56 56 56 56 56 56 58 60 59 58 57 57 55 53 52 51 50 51 53 55 56 56 57 56 56 56 56 57 57 57 56 57 58 58 58 57 57
52 49 48 49 50 53 57 58 58 57 58 59 61 61 59 57 57 57 57 57 56 54 52 52 54 56 56 57 57 57 57 57 57 58 59 59 59 59 59 59 59 58
56 53 51 50 50 50 53 56 58 59 60 61 62 63 62 60 59 59 58 58 59 57 55 55 56 57 58 58 59 60 60 61 60 60 61 63 62 61 61 60 60 60
60 58 55 53 52 50 50 51 54 57 59 61 63 62 61 61 61 60 59 59 58 57 57 57 58 59 60 60 60 61 63 63 62 62 63 65 65 64 63 62 62 63

ECMWFNIL_250_spd_069.txt.gz
Wind_Speed
41 41 42 42 39 37 35 32 32 34 34 34 35 36 39 42 40 35 34 33 31 32 33 34 34 34 33 31 28 29 31 32 32 33 34 34 34 35 36 36 36 36
47 45 44 43 42 41 40 37 35 35 36 36 36 36 37 41 42 38 35 34 34 34 34 33 32 33 33 32 31 32 34 36 36 36 37 37 37 36 35 35 35 35
53 50 47 44 43 43 41 39 38 36 36 36 36 36 37 38 41 41 38 36 37 38 36 33 33 35 35 35 35 36 38 39 39 39 39 40 40 39 38 37 39 40
60 56 52 48 45 43 40 40 41 38 36 36 36 36 37 38 41 43 42 39 38 40 39 37 36 37 39 41 42 41 41 41 41 41 42 43 44 45 44 44 45 45
64 62 57 52 48 44 41 42 42 40 37 36 36 37 36 37 41 44 44 43 41 40 41 40 39 38 38 40 42 44 45 46 46 46 47 47 47 47 47 46 46 43
65 66 62 55 50 47 44 44 44 41 39 37 38 39 38 37 39 42 43 45 46 44 43 43 42 41 40 38 39 42 44 47 50 51 50 48 47 47 46 45 42 39
64 66 64 56 52 50 48 46 45 43 42 40 40 42 41 38 39 40 41 42 45 47 48 48 46 45 44 43 42 42 41 43 47 50 51 50 48 46 44 41 39 36
66 65 64 58 53 52 50 48 47 45 44 43 43 44 45 42 40 42 44 42 41 44 48 50 49 48 48 47 45 42 40 39 41 44 48 49 46 43 40 37 36 35
67 67 65 61 56 53 51 50 48 46 45 46 45 45 48 47 43 43 46 46 43 42 45 49 51 50 49 48 46 44 41 40 38 38 41 44 42 37 34 33 32 32
64 68 66 63 59 55 53 51 49 47 47 48 47 46 48 50 48 45 47 47 45 43 43 47 52 52 49 47 47 45 43 42 39 34 33 36 36 33 31 30 29 30
58 66 66 62 59 57 55 53 50 48 48 49 49 48 48 51 51 48 48 49 47 44 43 45 49 52 50 47 46 45 45 44 42 37 32 31 31 32 32 31 30 32
52 61 63 60 59 57 55 54 52 50 49 50 50 49 49 51 52 50 48 49 48 46 45 44 45 48 48 46 46 45 46 47 46 43 39 35 35 35 34 33 35 36
46 55 60 58 58 59 56 54 53 51 50 50 50 49 48 50 53 53 50 48 47 47 47 45 44 44 45 45 45 47 49 49 48 47 45 42 41 39 39 40 41 40
43 50 55 56 57 60 59 55 54 53 52 51 50 49 48 48 50 52 52 50 47 47 48 48 46 46 47 46 46 48 51 51 50 50 49 47 45 43 43 44 43 43
40 46 51 54 56 60 61 58 56 55 54 53 52 50 48 48 49 50 51 51 49 47 48 50 50 50 50 50 49 49 52 53 52 53 54 54 52 49 48 47 45 46
37 43 49 53 56 60 63 61 58 56 55 55 55 54 50 48 48 49 49 50 49 47 47 49 52 53 53 53 51 50 52 53 52 54 57 58 58 56 55 54 51 50
35 41 48 53 54 57 61 63 61 58 55 54 55 57 55 51 49 49 49 49 49 49 49 50 52 54 54 54 53 52 53 53 53 55 57 58 58 58 58 58 57 56
34 39 46 52 55 55 58 61 63 61 56 54 54 56 57 55 52 51 51 50 50 52 53 53 54 55 56 56 56 55 55 55 55 57 57 57 57 57 57 58 58 59
34 38 44 50 54 56 57 60 63 64 61 57 55 55 57 58 57 55 54 53 52 53 54 54 54 55 56 57 58 58 59 58 59 60 59 58 57 56 56 57 57 58
35 38 43 47 51 54 57 60 63 64 64 61 58 56 56 58 58 58 58 57 56 56 56 56 56 56 56 56 58 59 60 60 61 61 60 57 55 54 54 55 56 56
37 38 42 46 50 53 56 59 62 64 65 65 63 60 57 57 57 58 59 59 59 59 58 57 58 59 58 58 58 59 59 59 60 60 58 56 54 54 54 55 56 57
40 40 42 44 49 53 55 57 60 63 66 66 65 63 60 58 58 58 58 58 60 62 60 58 57 58 59 60 60 59 59 58 58 58 58 56 55 55 56 56 56 57
44 43 43 44 46 50 54 57 59 62 65 67 67 65 62 60 59 59 58 58 59 62 63 61 60 58 58 59 61 62 62 61 59 58 58 57 56 57 57 57 57 57
49 48 47 46 45 46 50 54 58 60 62 64 66 66 64 62 60 60 60 59 60 62 63 64 64 63 61 59 60 62 64 65 65 63 61 60 58 58 58 59 59 59
53 53 52 51 49 48 47 50 54 58 59 61 62 63 63 62 61 60 61 61 62 63 64 65 65 66 65 63 62 63 64 66 67 67 67 65 63 61 61 61 62 62
56 57 57 55 54 53 51 49 51 55 57 59 60 60 60 60 60 60 60 61 62 63 64 64 64 64 64 64 63 64 65 66 67 67 68 68 68 67 66 67 67 67

ECMWFNIL_250_spd_072.txt.gz
Wind_Speed
57 58 58 58 57 56 54 48 45 45 42 38 36 34 38 44 44 42 40 38 36 35 36 37 37 37 37 38 38 35 31 29 28 31 34 33 31 30 30 32 34 35
58 59 60 61 60 59 56 51 48 48 45 41 40 38 39 44 46 44 42 41 39 37 37 38 39 39 39 39 40 37 33 31 32 34 37 36 34 32 31 33 35 36
57 60 61 63 63 61 58 53 50 50 49 46 44 42 40 43 47 47 45 44 43 42 40 41 42 42 42 40 39 37 35 35 36 38 38 38 36 35 35 35 36 38
53 57 61 64 65 65 62 58 54 54 53 50 48 46 43 43 45 48 48 46 46 46 45 44 44 45 42 39 38 37 38 38 38 38 38 38 37 38 39 37 37 39
50 52 56 61 65 67 66 63 60 58 56 52 49 48 47 45 44 46 48 49 49 50 49 47 45 45 43 40 39 38 38 38 38 38 38 38 38 39 41 39 39 40
50 50 51 55 61 66 68 66 64 63 59 54 51 50 49 47 45 45 46 50 51 51 52 51 48 45 44 43 42 40 38 36 37 38 37 37 38 41 42 43 43 44
48 48 49 50 54 61 66 67 67 65 61 56 51 50 50 48 47 46 45 48 51 49 49 51 51 46 43 44 44 43 40 37 37 37 37 38 40 42 43 44 44 45
46 45 46 47 49 55 62 66 68 67 64 59 53 50 50 49 48 48 46 47 49 48 45 46 51 50 46 45 46 46 43 41 40 39 39 41 42 42 41 41 40 42
44 43 42 44 45 49 57 63 67 68 66 63 58 53 51 50 49 49 47 46 46 46 43 42 47 50 49 47 48 48 46 44 43 42 42 43 44 42 41 40 40 41
41 41 40 40 42 44 51 59 65 67 67 66 63 57 53 51 50 50 48 46 46 45 43 41 43 46 48 48 49 50 50 49 48 47 46 47 47 46 44 43 43 42
38 38 38 38 39 40 45 54 61 66 67 67 65 60 56 53 52 52 50 47 47 47 45 43 43 44 46 47 48 49 50 51 51 51 51 50 49 48 47 45 44 43
36 35 35 35 35 36 40 48 57 64 66 66 65 62 58 55 53 54 52 49 47 48 47 46 46 46 47 49 49 48 48 48 48 50 53 53 51 50 50 49 49 47
35 33 33 33 33 33 36 43 53 62 65 65 65 62 58 56 55 55 54 51 48 48 48 48 49 50 52 53 53 51 50 47 45 46 50 52 53 52 53 54 53 51
35 31 30 30 30 31 33 39 48 58 64 65 65 63 59 57 57 56 55 53 50 49 49 47 48 52 54 55 55 55 53 49 46 45 47 51 53 52 53 54 54 53
34 31 29 28 28 29 32 36 44 54 62 65 65 64 60 58 58 56 56 55 53 52 51 48 47 50 53 54 55 55 54 50 48 47 48 50 52 52 53 53 52 53
35 31 28 27 27 27 30 34 41 50 58 63 65 65 61 58 58 58 57 56 54 53 53 52 51 51 53 54 54 54 53 50 50 50 49 50 52 53 55 55 53 53
35 32 29 27 26 26 28 33 39 46 54 60 63 64 62 58 57 58 58 57 56 55 54 54 54 55 56 57 56 54 52 48 49 51 51 50 51 53 56 57 56 54
36 33 30 28 27 26 27 31 37 44 50 56 61 63 62 59 58 58 58 58 57 56 55 54 54 56 58 58 58 57 54 50 48 51 53 52 52 53 55 56 55 55
37 35 32 30 29 28 27 29 35 42 48 52 57 61 62 61 59 57 56 56 56 55 54 54 55 57 57 57 56 57 56 54 51 51 54 55 54 55 55 55 54 54
38 36 35 33 31 30 30 30 33 40 46 50 54 59 62 63 60 58 55 54 55 55 54 55 57 58 57 56 56 55 55 55 55 56 58 57 57 57 57 57 57 55
41 38 37 37 35 34 33 33 34 37 44 49 52 56 61 63 62 59 57 55 54 54 55 57 58 58 57 57 57 56 55 56 57 59 60 58 58 59 59 60 59 58
43 40 39 40 39 37 36 36 37 38 41 46 50 53 57 62 64 62 59 57 55 55 56 58 59 58 58 58 59 58 58 59 60 61 61 59 59 59 59 59 59 59
46 43 41 42 43 42 40 39 40 42 43 45 48 51 54 58 62 63 61 59 57 55 56 58 60 61 60 61 62 61 60 62 62 61 62 61 61 61 60 59 59 59
48 45 43 43 45 46 45 44 43 44 46 47 48 50 52 55 59 62 62 61 59 57 57 59 61 63 64 64 65 64 64 64 64 63 63 63 64 64 64 62 62 62
51 48 46 45 46 48 49 48 47 47 48 50 52 52 52 54 56 60 62 63 62 60 59 60 62 64 65 65 65 66 66 66 66 65 64 64 65 67 67 66 66 67
53 51 49 47 47 49 51 52 52 51 50 51 54 55 56 55 56 58 61 64 65 63 61 60 61 61 61 61 62 64 65 66 67 66 65 64 65 66 67 67 69 69

ECMWFNIL_250_spd_075.txt.gz
Wind_Speed
42 41 41 40 42 46 51 54 54 54 56 54 45 39 41 46 47 45 43 42 41 44 48 49 46 43 39 35 34 33 32 31 31 33 33 34 37 38 38 39 38 37
44 43 42 42 42 43 48 53 56 57 57 57 55 48 41 39 43 46 46 46 45 44 47 50 47 45 43 40 37 36 34 33 33 33 34 36 37 36 37 38 38 38
45 44 42 42 42 42 45 49 54 59 59 58 57 56 49 39 37 43 46 48 48 46 47 49 47 45 44 42 40 40 38 36 36 36 36 37 35 34 35 37 38 38
46 44 43 43 43 43 44 45 49 54 58 59 57 58 57 47 40 42 46 48 48 46 47 50 49 47 45 44 43 41 39 37 38 39 40 39 35 34 36 37 38 38
46 45 45 46 46 46 45 44 45 48 52 56 56 59 61 55 50 48 46 48 49 46 46 49 51 50 46 44 44 43 40 38 40 43 43 42 39 37 38 40 41 39
47 47 47 47 47 48 48 45 44 44 47 51 55 58 57 54 55 55 49 48 50 46 45 48 52 52 49 45 44 43 41 40 43 46 44 43 42 41 41 42 42 41
48 48 48 48 48 48 47 46 44 41 43 48 54 57 55 51 53 56 51 49 48 46 46 48 51 53 51 48 45 43 40 39 41 46 46 44 44 45 45 45 45 46
49 50 49 49 49 48 47 45 43 41 40 46 53 58 60 57 55 56 53 51 48 45 45 47 50 54 53 51 50 48 45 43 42 44 45 44 44 45 46 48 49 49
51 51 50 49 48 47 46 45 43 40 39 43 50 56 61 61 60 60 56 53 51 47 44 45 46 50 53 54 54 52 51 50 48 46 44 44 45 44 44 46 48 48
52 52 51 50 48 46 44 44 44 40 38 40 45 52 58 59 61 64 60 55 54 50 48 47 44 43 48 52 55 55 54 53 52 51 48 46 45 45 45 46 47 47
54 53 52 50 48 46 42 42 44 42 38 38 40 46 54 56 59 65 64 57 53 52 51 50 47 42 42 46 51 53 53 52 52 53 53 50 48 47 47 49 50 49
55 54 53 50 48 46 42 41 42 42 39 38 38 40 47 54 57 63 67 61 52 51 52 52 52 49 43 44 47 48 48 48 49 52 53 52 50 48 48 49 51 52
56 55 54 51 48 46 42 40 40 41 39 37 36 36 41 50 55 61 69 64 53 51 52 51 54 55 49 46 48 49 47 46 48 51 52 50 48 48 49 50 50 51
57 57 55 52 49 46 42 39 38 39 39 37 36 35 37 46 53 60 68 67 58 54 53 50 53 58 55 49 49 51 49 46 47 50 51 49 49 50 52 53 51 49
58 58 57 54 51 48 44 39 37 37 38 36 34 34 35 42 51 59 67 69 64 60 56 52 54 58 57 52 51 51 50 48 48 50 52 51 51 52 54 54 52 49
59 59 58 56 53 49 45 40 37 36 36 36 34 33 35 39 48 57 65 70 69 65 61 56 55 57 56 55 53 50 47 48 49 53 57 57 55 54 54 55 54 52
60 60 59 57 55 51 47 42 38 36 35 36 34 34 35 38 45 54 62 68 70 69 65 60 57 56 56 57 55 50 46 46 48 52 57 59 60 59 56 56 56 54
62 61 60 59 57 53 48 44 40 37 35 35 35 34 36 39 44 52 59 66 70 71 69 65 60 57 57 59 58 55 51 47 45 47 52 56 60 61 60 59 59 56
63 63 62 61 59 56 51 45 41 38 36 36 35 35 37 40 44 50 57 64 69 70 70 69 65 62 61 62 62 61 59 53 46 44 47 49 53 57 58 59 58 55
65 64 64 63 62 59 54 47 42 39 37 37 37 36 37 40 45 50 56 63 68 70 70 69 68 66 66 66 65 65 64 59 52 50 49 47 49 51 53 54 55 52
67 66 66 66 65 62 58 51 44 40 38 38 39 38 38 40 45 50 55 61 67 70 71 70 69 69 68 69 69 67 65 62 60 61 60 57 55 54 54 54 54 52
69 68 68 68 67 65 62 56 48 42 39 39 40 41 40 41 45 50 54 59 65 70 72 72 71 71 70 70 71 70 68 66 66 66 67 67 64 61 59 58 56 55
72 71 71 70 69 67 64 59 52 45 40 39 41 44 43 43 45 50 54 58 62 67 71 72 72 73 72 72 72 73 72 70 68 67 67 68 67 64 62 61 59 58
74 75 74 73 71 68 64 60 55 49 43 40 41 45 47 46 46 49 54 58 60 64 68 71 71 71 73 73 73 74 74 73 71 69 68 68 67 66 64 64 62 60
78 78 76 74 71 67 64 60 57 52 47 43 41 45 49 50 49 49 53 57 61 63 65 68 70 70 70 71 73 74 74 74 73 72 70 69 68 68 67 67 66 65
81 79 77 73 69 66 62 60 58 55 51 47 43 43 49 53 54 53 53 56 60 63 65 67 68 69 70 70 71 73 74 73 73 73 72 70 70 69 69 69 69 68

ECMWFNIL_250_spd_078.txt.gz
Wind_Speed
47 44 43 42 41 40 39 38 37 37 38 40 42 43 42 41 43 48 49 45 43 43 46 46 43 42 44 45 44 42 41 40 40 41 41 40 40 39 37 37 38 39
47 45 43 42 42 41 40 39 39 39 40 41 42 44 45 44 44 48 51 49 43 43 46 46 45 43 41 42 44 45 44 42 41 40 41 41 40 40 38 37 38 38
47 45 43 43 43 43 42 41 41 41 41 42 42 43 45 47 46 46 50 51 46 41 44 47 47 45 42 40 42 45 46 46 44 42 41 41 40 39 37 36 36 37
47 45 44 44 44 44 43 42 42 42 41 42 42 41 42 45 48 48 48 51 51 44 41 44 48 48 46 42 41 43 46 47 48 48 44 41 41 40 39 38 37 36
46 45 45 45 45 45 44 43 42 42 41 42 42 41 40 41 45 49 48 50 56 53 46 43 46 50 49 46 43 43 43 45 47 50 47 44 43 42 41 41 39 39
46 46 46 46 46 45 44 43 42 42 42 43 43 43 41 39 42 46 49 49 55 60 57 48 45 48 51 49 47 45 44 46 48 48 46 45 45 43 42 41 40 41
47 47 47 47 46 45 44 43 42 42 42 43 44 45 43 40 40 44 48 49 52 60 62 55 48 47 49 51 51 49 46 47 49 47 46 47 46 43 41 40 40 42
48 48 48 48 47 46 45 43 43 43 43 43 45 46 44 41 40 42 46 49 51 56 60 59 55 50 49 51 54 54 51 48 48 49 48 49 50 47 44 42 42 44
49 49 49 48 48 47 45 44 43 43 43 44 46 47 46 42 39 40 45 48 51 55 57 59 62 59 53 51 53 56 55 51 49 51 51 50 51 51 49 47 44 44
51 50 50 49 49 48 47 45 44 43 44 45 46 47 47 44 39 37 42 47 51 56 58 60 65 68 62 56 54 55 56 54 51 52 53 52 50 49 50 49 45 43
52 52 51 50 50 49 48 47 45 45 45 46 46 47 47 46 42 37 38 45 50 55 60 62 65 70 69 61 56 57 57 55 53 52 53 53 52 49 48 46 43 42
54 53 53 52 52 51 50 49 47 46 46 47 47 47 48 47 45 40 36 40 49 54 60 63 64 66 68 64 59 59 60 57 54 53 53 52 52 51 50 47 46 46
56 55 54 54 54 53 52 51 50 48 48 48 48 46 47 48 47 43 37 36 44 53 60 64 64 64 64 64 64 62 60 59 57 56 55 54 53 53 52 50 49 51
57 57 56 56 56 55 53 53 52 51 50 50 49 46 46 48 47 46 40 34 38 50 60 66 67 65 64 65 67 66 62 60 60 58 55 55 56 57 55 53 51 52
58 58 57 57 57 56 55 55 54 53 52 51 50 48 46 46 47 47 44 36 35 44 56 67 71 68 66 65 67 68 64 61 61 60 57 54 54 56 56 54 52 54
59 59 59 59 59 58 57 57 56 55 55 54 52 50 46 45 45 47 46 40 35 39 50 64 74 74 69 67 68 69 67 63 61 61 60 56 53 54 54 51 50 52
60 60 60 60 60 59 58 58 58 57 57 56 55 53 49 45 44 45 47 43 37 37 45 58 72 78 74 70 70 71 69 66 63 62 61 58 54 54 55 52 49 50
61 61 62 62 61 61 60 59 59 59 60 59 58 56 53 48 44 43 45 45 40 37 43 53 66 77 79 73 70 71 71 69 67 65 64 60 55 57 60 57 51 49
63 63 63 63 63 63 62 62 62 62 62 62 60 59 56 52 47 43 44 46 44 39 42 51 62 73 80 77 72 70 70 69 69 68 68 65 61 61 63 61 55 51
64 65 65 65 65 65 65 65 65 65 65 65 63 62 60 56 52 46 43 45 46 42 41 49 59 70 79 81 76 71 69 69 69 69 71 70 68 65 64 63 61 57
66 66 67 67 67 68 68 68 68 68 68 68 66 65 63 60 56 51 46 45 46 45 43 47 57 67 77 83 81 74 70 70 68 68 70 72 73 70 65 63 64 62
68 68 69 70 70 71 71 71 71 71 71 71 70 68 66 63 60 56 49 45 46 47 46 47 54 65 75 83 85 79 74 71 68 68 70 72 74 73 67 63 64 64
70 71 72 73 73 73 73 74 74 74 73 73 72 71 69 67 64 59 52 47 47 48 48 48 53 61 71 80 87 86 80 75 69 67 70 73 75 75 71 65 65 64
73 74 75 75 75 76 76 76 76 76 76 75 75 74 73 71 68 62 54 48 47 49 50 50 52 59 67 76 85 90 88 82 75 70 69 72 75 76 74 70 68 65
75 76 77 77 78 78 79 79 78 78 78 78 77 77 76 73 69 62 55 48 47 50 51 52 53 57 64 72 80 88 92 90 85 78 73 72 74 76 76 75 74 70
77 78 79 80 80 81 81 81 81 81 81 80 80 79 76 72 66 61 55 49 48 50 52 53 55 57 62 69 75 83 90 94 92 88 82 77 75 76 76 77 78 76

ECMWFNIL_250_spd_081.txt.gz
Wind_Speed
55 54 52 50 50 49 50 50 50 49 47 46 46 46 45 45 46 46 46 45 45 45 44 42 42 44 46 44 42 45 46 45 46 43 39 40 42 42 42 42 42 41
53 52 51 50 49 49 50 50 50 48 47 46 46 45 45 45 46 47 47 47 46 45 45 45 43 44 48 47 43 46 48 46 46 46 42 41 42 41 41 41 40 39
52 51 50 50 50 49 50 50 50 48 46 46 46 45 45 46 46 48 48 48 47 46 46 47 46 43 47 50 46 46 50 48 46 47 45 44 44 42 42 42 40 38
50 50 50 50 50 50 50 50 49 47 46 46 46 45 45 46 47 48 49 49 49 47 46 47 48 45 45 51 49 47 49 50 48 48 47 47 47 46 45 43 41 40
49 49 49 49 50 49 50 49 48 47 46 46 46 46 46 46 47 48 49 50 49 47 45 45 48 46 44 50 53 49 48 50 49 50 49 48 47 47 46 44 43 42
49 49 49 49 49 49 49 49 48 47 47 47 47 47 47 47 47 47 48 49 48 46 44 43 45 46 44 49 56 55 50 50 50 50 51 49 47 47 46 44 44 44
50 50 50 49 49 49 49 49 48 47 47 48 48 48 47 47 47 47 47 48 47 45 43 42 43 45 45 48 56 60 55 51 51 51 52 52 49 48 48 46 46 46
50 51 50 50 49 49 49 49 49 48 48 49 49 49 48 48 47 47 47 47 46 45 43 41 40 42 45 48 55 62 60 55 53 52 52 55 53 50 49 48 47 46
50 51 51 50 49 49 49 49 49 48 48 50 50 50 49 49 48 47 48 47 46 46 44 41 40 41 44 47 52 61 64 61 56 54 53 55 56 54 51 48 46 45
50 50 50 50 50 49 50 50 50 50 50 50 51 51 51 50 49 48 48 48 47 47 46 42 39 40 43 45 49 57 65 66 61 58 56 55 56 55 53 51 49 47
50 50 50 50 50 50 50 51 50 50 50 51 52 52 52 51 50 49 48 48 47 47 48 45 41 40 42 43 46 53 63 68 66 63 60 58 58 57 54 53 52 51
50 50 50 50 51 51 51 51 51 51 51 52 53 53 54 52 51 50 49 48 48 48 48 46 44 42 41 41 44 49 59 67 69 67 64 62 61 61 59 56 54 54
52 51 51 51 52 52 51 51 51 51 51 52 54 54 55 53 51 50 49 48 48 48 48 47 46 46 43 40 42 46 53 63 69 70 68 66 64 64 63 62 59 56
53 53 52 52 52 52 52 52 52 52 53 53 55 56 55 54 52 51 50 49 49 49 49 48 46 47 46 42 40 44 50 58 66 71 72 70 69 67 66 66 65 61
54 54 54 53 53 53 53 53 53 53 54 55 56 56 56 54 53 52 51 51 50 50 50 49 47 47 48 46 41 42 47 55 63 69 74 75 73 71 68 67 68 66
55 55 55 54 54 54 54 54 55 55 56 56 57 56 56 55 54 53 52 52 52 51 51 51 49 47 48 49 45 42 45 52 60 68 74 77 77 74 71 67 66 68
55 56 56 55 55 55 56 56 56 57 57 58 58 57 57 57 56 55 54 54 53 53 52 52 52 50 48 49 48 44 43 49 58 66 72 77 80 78 75 70 67 67
56 56 56 57 57 57 57 58 58 59 59 59 59 58 58 58 57 57 57 56 55 55 55 54 54 53 51 49 50 48 45 46 54 65 71 75 78 81 80 77 71 68
57 57 57 58 58 59 59 59 60 60 61 61 61 60 60 60 60 60 59 59 58 57 57 57 56 55 54 52 50 50 48 47 51 61 71 74 74 78 82 83 79 74
58 59 59 60 60 61 61 61 62 62 62 63 63 63 63 63 63 63 62 61 61 60 60 60 60 58 57 55 52 51 51 50 50 56 69 75 74 75 79 82 83 80
59 60 61 61 62 63 63 63 63 64 65 65 66 66 66 66 66 66 66 65 64 64 63 63 63 62 60 58 55 53 53 53 52 54 64 76 79 76 76 78 80 81
60 61 61 62 63 64 64 65 65 66 67 68 69 69 69 69 69 69 69 69 68 68 67 66 66 65 64 61 59 56 55 56 56 55 60 74 82 80 77 77 78 79
61 62 63 63 64 65 66 66 67 68 69 70 71 72 73 73 73 73 73 73 73 72 72 71 69 69 67 65 62 60 58 59 59 58 59 68 82 85 81 78 79 80
62 63 64 65 66 67 67 68 70 71 72 73 74 75 76 76 77 77 77 77 77 77 76 75 73 72 70 68 66 63 61 60 61 62 60 64 77 87 87 83 81 81
64 65 66 67 68 69 69 70 72 73 75 76 77 78 79 80 80 81 81 81 81 81 80 78 77 75 73 71 69 66 63 61 61 63 63 64 71 84 91 89 85 84
65 66 67 69 70 71 72 73 75 76 78 80 81 82 83 84 84 84 84 84 83 83 82 81 79 77 74 72 69 67 63 60 61 64 65 65 69 78 89 93 91 88

ECMWFNIL_250_spd_084.txt.gz
Wind_Speed
62 61 61 59 58 57 57 57 57 56 55 54 53 52 50 49 48 48 47 47 47 47 46 45 45 44 43 43 42 42 43 42 40 41 45 48 48 50 50 45 42 43
59 59 57 55 55 54 54 53 53 52 52 52 51 50 49 49 48 48 47 47 47 47 46 45 45 45 44 43 43 42 43 43 42 40 43 49 48 48 51 46 41 43
58 57 55 54 54 53 52 51 50 50 50 50 49 49 49 49 48 48 47 47 47 47 46 46 45 45 45 45 44 43 43 44 44 42 41 48 51 49 51 48 42 43
57 56 56 56 55 53 51 50 49 49 49 49 49 48 49 49 48 48 47 47 48 48 47 46 46 46 46 46 45 44 44 44 45 44 42 45 51 52 52 50 43 42
58 57 56 55 54 53 51 50 50 49 49 49 49 48 49 49 49 48 47 48 48 48 48 47 47 47 46 46 45 44 44 44 44 45 43 43 49 54 54 51 46 41
59 57 55 54 53 52 51 51 50 50 49 49 49 49 50 50 49 48 48 48 49 49 49 49 49 48 46 46 46 45 45 44 43 44 44 43 46 54 56 54 50 44
59 56 54 53 53 52 52 51 51 51 50 50 50 50 51 51 50 49 48 49 49 49 49 50 50 49 47 46 46 46 45 44 43 43 44 44 45 52 58 57 54 50
58 54 53 53 53 53 53 53 53 53 52 51 51 51 52 52 51 50 50 49 50 50 50 51 51 50 49 48 47 46 46 45 44 42 43 44 45 50 57 59 57 55
55 54 54 55 54 55 55 55 55 54 53 52 52 52 52 53 53 52 51 51 50 50 50 51 52 51 50 49 48 47 47 46 45 42 42 43 45 48 55 60 60 57
54 56 57 56 56 57 58 57 56 54 53 53 52 52 53 53 53 53 53 52 51 51 51 52 53 52 51 50 49 48 48 47 46 43 41 42 44 47 52 59 61 59
57 59 58 58 58 58 57 56 55 54 53 53 53 53 53 53 54 54 53 53 52 51 51 52 52 52 51 51 50 49 48 48 47 45 42 40 43 46 50 56 62 63
59 60 59 58 57 56 55 55 55 54 54 53 53 53 54 54 54 54 54 53 53 52 52 52 53 52 51 51 51 50 49 48 48 47 44 40 40 44 48 54 61 65
59 60 59 58 56 55 56 56 56 56 55 55 54 54 54 54 55 55 55 54 54 53 53 53 53 52 51 51 52 52 51 50 49 48 46 42 39 41 45 51 58 65
60 60 59 57 57 58 58 58 57 57 56 56 56 55 55 55 55 55 55 55 54 54 54 55 54 53 51 51 52 52 53 52 51 49 48 46 42 40 42 47 54 62
60 59 58 58 59 60 59 58 57 57 56 56 56 56 56 56 56 56 56 56 56 56 56 55 55 54 52 52 52 53 54 54 53 51 50 49 46 42 41 43 49 58
58 58 59 60 60 60 59 58 58 57 57 57 57 57 57 56 57 57 57 57 57 57 57 57 56 55 54 53 53 54 55 56 55 55 53 51 49 46 43 42 45 53
59 60 61 61 60 59 59 59 58 58 57 57 57 57 57 57 58 58 58 58 59 59 59 58 58 57 56 56 55 55 56 57 57 57 56 54 51 49 47 44 43 48
61 62 62 61 60 60 60 60 59 58 58 57 57 57 58 58 59 59 59 60 60 60 60 60 60 60 59 59 58 58 57 58 58 58 58 57 55 53 51 48 45 45
63 62 62 62 62 61 61 61 59 59 58 58 58 58 58 58 59 60 60 61 62 62 62 63 63 63 63 62 61 61 60 60 60 60 60 60 59 57 54 52 49 47
62 62 63 63 63 63 63 62 60 60 60 60 60 60 60 60 60 61 61 62 63 63 64 65 65 65 65 65 64 64 64 63 63 62 62 61 61 60 58 55 53 51
62 63 64 64 64 65 64 63 61 61 61 61 61 62 62 62 62 63 63 64 64 65 65 66 67 67 67 68 67 67 66 66 65 65 65 64 63 63 62 59 56 54
63 64 64 65 65 65 65 64 63 63 63 63 63 63 64 64 64 65 65 66 66 67 68 68 69 69 69 70 70 70 69 69 69 68 68 67 66 66 65 63 60 58
63 64 64 65 66 66 66 66 66 66 66 66 66 66 66 66 66 67 67 68 69 69 70 71 71 72 72 72 73 73 73 72 72 72 71 71 70 69 68 67 65 62
63 64 65 66 66 66 67 67 69 69 69 69 69 69 69 69 70 70 70 71 71 72 73 74 75 76 76 76 76 76 76 76 75 75 74 74 74 73 71 70 68 66
64 64 65 66 66 67 68 69 71 71 72 72 72 72 73 73 73 73 74 74 75 76 77 78 79 79 80 81 81 81 81 80 79 79 78 77 77 76 74 72 70 69
64 65 66 66 67 68 70 71 72 73 74 74 74 75 75 75 76 76 77 78 78 79 80 80 81 83 83 84 84 84 84 84 83 82 81 80 79 78 77 75 72 71

ECMWFNIL_250_spd_087.txt.gz
Wind_Speed
60 61 61 62 63 62 62 61 61 60 58 57 56 56 56 55 54 54 53 51 50 49 49 49 49 48 47 47 47 47 46 46 45 43 41 40 39 38 38 38 38 39
58 58 59 59 60 60 60 60 60 58 57 56 56 55 55 56 56 55 54 52 50 49 49 49 49 48 48 48 47 47 47 46 45 44 43 41 39 38 38 38 37 38
57 57 57 57 58 59 59 59 58 58 57 57 57 56 56 57 57 56 55 54 52 51 49 49 49 49 49 49 48 48 47 47 46 45 44 42 40 39 38 38 38 37
57 56 56 57 58 59 60 59 58 58 59 59 58 58 58 57 57 56 55 54 53 52 51 50 49 49 49 49 49 49 48 47 47 46 46 44 41 40 39 39 39 38
57 57 58 58 59 59 60 59 59 60 60 60 60 60 60 59 57 56 54 53 52 52 51 51 50 50 50 51 51 50 50 49 47 46 46 45 43 41 40 39 40 39
58 59 59 59 59 59 59 60 61 62 62 62 62 62 61 60 58 55 52 51 51 52 52 51 51 51 51 52 52 52 51 50 49 47 46 46 45 43 41 40 40 41
60 60 60 60 60 60 60 61 63 63 63 63 63 62 60 58 56 53 52 52 52 52 52 52 51 52 52 52 53 53 53 52 50 49 47 46 46 45 43 41 40 41
62 62 61 61 61 61 62 63 64 64 63 63 62 60 58 56 55 55 55 55 54 53 52 52 52 52 53 53 53 54 54 53 52 51 49 47 46 45 44 43 41 41
63 63 63 62 62 63 63 63 63 62 62 62 61 59 58 57 57 57 57 56 54 52 51 51 52 52 53 53 54 55 55 55 54 52 51 49 46 45 45 44 43 41
62 62 63 63 63 63 63 62 62 61 62 62 61 61 59 59 58 58 57 55 53 52 52 52 52 52 53 53 54 55 55 56 55 54 53 50 48 46 45 45 44 43
60 60 61 61 61 61 61 61 61 61 62 62 63 62 60 59 59 58 57 55 55 55 54 54 54 53 54 54 54 55 55 56 57 56 55 52 49 47 46 46 46 45
58 58 58 59 59 60 60 60 60 61 62 63 63 62 61 60 60 58 57 58 57 57 56 56 55 55 55 55 55 55 56 56 57 57 57 55 52 49 47 46 47 46
55 56 57 57 58 59 60 60 61 62 63 63 63 62 61 60 59 59 59 59 59 58 57 56 55 55 55 55 55 56 56 56 57 57 57 57 55 52 49 48 48 48
53 54 54 55 56 57 58 60 61 62 62 62 62 61 61 60 60 61 61 60 59 58 57 56 56 56 56 56 56 56 57 57 57 58 58 57 56 54 52 51 51 50
54 54 54 54 54 54 56 57 59 59 60 60 60 61 62 62 63 63 62 61 60 58 57 57 57 57 56 56 57 57 58 58 58 58 59 58 58 57 55 54 54 53
54 54 54 54 54 54 55 55 56 57 58 59 61 62 63 64 65 65 63 62 61 60 59 58 58 58 58 57 58 58 59 60 60 60 60 60 60 59 59 58 57 56
55 54 54 54 54 55 56 56 57 59 60 62 63 64 65 66 66 65 64 63 63 62 61 60 60 59 59 59 59 59 60 61 62 62 62 62 62 62 62 61 60 60
57 56 56 56 57 57 58 60 61 62 63 64 65 66 67 67 66 66 65 65 64 63 63 62 62 61 61 61 61 61 62 62 63 64 65 65 65 65 64 64 64 64
57 58 58 59 59 60 61 62 63 64 65 65 66 67 67 68 68 67 67 66 66 65 65 64 64 64 63 63 63 63 64 64 65 66 67 67 68 68 68 67 67 67
57 58 58 59 59 60 61 62 63 64 65 66 67 67 68 69 69 68 68 67 67 67 66 66 66 66 66 66 65 65 66 66 67 67 68 69 70 71 71 70 70 69
57 57 57 58 59 59 60 61 63 64 65 67 68 68 69 69 69 69 69 68 68 68 68 68 68 69 69 69 69 69 69 69 69 70 70 71 72 73 73 73 73 72
55 55 56 57 58 60 61 62 64 66 67 67 68 69 69 69 69 69 69 70 70 70 71 71 71 71 72 72 72 72 72 72 72 72 73 73 74 74 75 76 76 75
55 55 56 57 59 60 62 64 65 66 67 67 68 68 68 69 69 70 71 71 72 73 73 74 74 74 74 74 74 74 74 75 75 76 75 76 76 76 76 77 78 78
55 56 57 58 60 61 63 64 65 66 67 67 68 68 69 69 71 72 73 74 74 75 76 76 76 76 77 76 76 76 76 77 77 78 79 79 79 79 78 78 79 79
56 57 58 59 61 62 63 65 65 66 67 67 68 69 70 71 73 74 75 76 77 77 77 78 78 78 78 78 78 78 79 79 79 81 82 82 82 83 82 80 79 79
57 58 59 60 62 63 63 64 65 66 67 68 69 70 72 74 75 76 77 78 78 78 79 79 80 80 80 80 80 80 80 80 80 80 81 82 82 83 83 82 79 78

ECMWFNIL_250_spd_090.txt.gz
Wind_Speed
59 59 60 60 60 60 60 60 60 60 59 58 58 57 56 56 55 54 54 53 53 53 53 53 53 54 54 54 53 52 51 50 49 48 47 46 46 46 46 45 44 42
58 58 59 59 59 59 59 58 58 58 57 57 57 57 56 55 54 54 54 54 54 54 54 54 54 54 54 55 54 53 52 50 49 49 48 47 47 47 47 47 47 45
59 59 59 59 58 58 58 58 58 58 58 58 58 58 57 56 55 55 55 55 55 55 55 55 55 55 55 54 54 53 52 51 50 49 48 48 47 48 48 48 48 47
60 60 60 60 60 60 60 60 60 60 60 60 60 59 58 58 57 57 57 56 56 56 56 57 57 56 55 54 53 52 52 51 50 50 49 49 48 48 49 49 49 49
60 61 61 61 61 61 62 62 62 62 61 61 60 60 60 59 59 58 58 58 57 58 58 58 57 56 55 53 52 51 51 51 51 51 51 50 49 49 49 50 50 50
59 59 60 60 61 62 63 63 63 63 62 62 61 61 61 61 61 60 60 59 59 59 59 59 58 57 56 54 53 52 53 53 53 52 52 51 51 50 49 50 50 51
57 57 58 59 60 61 62 63 63 63 63 62 62 61 62 62 62 62 61 60 60 61 61 60 59 58 57 56 56 55 54 53 52 51 51 51 51 51 50 50 50 51
56 57 58 58 59 60 61 61 61 61 61 61 61 61 62 62 62 61 61 61 61 61 61 61 60 59 58 57 57 56 55 53 51 51 51 51 51 51 51 51 51 51
56 57 58 58 59 60 60 60 60 60 60 59 59 60 60 60 60 60 60 60 60 60 61 61 60 59 58 57 57 57 55 53 52 52 53 53 53 53 53 53 52 52
56 57 57 58 59 59 59 59 59 59 59 58 58 58 58 58 58 59 59 59 59 59 60 60 60 59 58 58 58 56 55 54 55 55 55 54 54 54 54 54 54 54
56 56 56 57 58 59 59 59 59 58 58 57 57 56 56 56 56 57 57 57 58 59 59 60 60 59 59 59 57 56 56 56 57 57 56 56 55 55 55 55 55 56
56 56 56 57 58 58 59 59 58 57 56 55 55 55 54 54 54 54 55 56 56 57 58 59 59 59 59 59 59 59 59 59 59 58 57 57 56 56 56 56 56 57
55 56 57 58 58 58 58 58 57 56 55 54 54 54 53 53 53 54 54 55 55 56 57 58 58 59 60 61 61 62 61 61 60 59 58 58 58 57 57 57 57 57
55 57 58 59 58 58 57 56 57 57 56 55 55 54 54 54 54 54 54 55 55 56 57 58 59 60 62 64 65 65 64 62 61 60 59 59 59 59 59 58 58 58
56 58 59 59 58 57 56 56 56 57 57 57 57 56 56 55 55 55 55 56 56 58 59 60 62 63 65 67 67 67 66 64 63 62 61 61 61 62 61 60 60 59
57 59 59 58 57 56 56 57 57 58 59 59 58 58 57 57 57 57 58 59 60 61 62 64 66 67 67 67 68 67 67 66 66 65 64 64 64 64 64 64 63 62
58 59 58 57 57 57 58 58 59 59 59 59 59 58 58 58 58 59 60 61 62 63 65 66 67 68 68 68 68 68 68 68 67 67 67 66 66 66 66 67 67 67
58 58 58 58 58 58 59 60 60 61 61 61 60 59 58 58 59 60 61 62 63 64 66 67 68 69 69 69 69 69 69 69 69 69 69 69 68 68 68 69 69 70
58 59 59 59 59 59 60 61 61 63 63 61 60 59 59 59 59 61 62 63 64 66 67 69 70 70 70 70 70 70 70 70 70 71 71 71 71 71 70 70 71 72
58 59 60 60 60 60 61 62 63 64 63 61 60 59 60 60 61 62 63 65 66 67 69 70 70 71 71 72 72 72 72 73 73 74 74 74 74 73 73 72 72 73
59 60 61 61 61 62 63 64 64 62 61 60 60 60 61 61 62 63 65 66 67 68 69 70 71 72 72 73 74 75 75 76 76 76 77 77 77 77 76 76 75 75
60 60 61 62 63 64 64 63 60 59 58 59 59 60 61 62 63 64 66 67 68 69 70 71 72 73 74 75 76 77 78 79 79 79 80 80 79 79 79 78 77 76
60 61 62 63 63 62 60 57 56 57 57 58 59 60 61 63 64 66 67 68 70 71 72 73 74 74 75 76 77 78 79 80 81 81 81 81 81 80 79 79 78 77
59 60 60 59 57 56 55 55 56 57 58 59 61 62 63 65 66 68 69 70 71 72 73 74 75 76 77 78 79 79 80 80 81 81 82 81 81 81 81 80 79 78
57 57 55 54 53 53 53 54 56 58 60 61 63 64 66 67 68 69 70 71 72 73 75 76 77 77 78 79 79 79 80 80 80 81 81 81 81 81 80 80 79 78
54 54 54 53 53 53 54 56 58 59 61 63 64 66 67 68 69 70 71 72 73 74 76 77 78 78 78 79 79 80 80 79 79 79 79 79 78 78 77 77 77 76

ECMWFNIL_250_spd_093.txt.gz
Wind_Speed
60 60 60 60 60 60 61 61 61 60 60 60 60 60 59 59 59 58 58 58 57 57 57 57 56 55 54 53 53 52 52 52 51 50 49 49 49 49 48 47 46 45
62 62 61 61 61 61 61 61 61 61 61 61 61 61 61 60 60 60 59 59 59 58 58 58 58 57 56 56 55 55 54 54 53 52 51 50 49 49 48 47 46 45
63 63 62 62 62 62 62 62 62 62 62 62 62 62 61 61 61 61 60 60 60 60 60 59 59 59 58 58 57 57 57 56 55 54 53 52 51 50 49 48 47 47
63 63 63 62 62 62 62 62 61 61 61 61 61 61 61 61 61 60 60 60 60 60 60 59 59 59 59 59 58 58 58 57 57 56 55 54 53 51 50 49 49 48
61 61 61 60 60 60 60 59 59 60 60 60 60 61 61 60 59 59 59 58 58 58 58 58 58 58 58 58 58 58 59 58 58 57 56 55 54 52 51 50 50 50
58 58 58 58 58 57 57 57 58 59 59 59 60 60 60 59 59 58 58 57 57 57 56 56 56 57 57 57 58 58 58 58 58 58 57 56 54 52 52 51 51 50
55 55 55 56 56 56 56 57 57 58 59 59 60 60 59 59 58 58 57 57 56 56 56 56 56 56 56 57 57 57 57 58 58 58 57 56 54 53 53 52 52 51
54 54 55 55 55 56 56 57 58 58 59 59 60 59 59 59 58 57 57 56 56 55 55 55 55 55 56 56 56 56 57 57 57 57 57 56 56 55 54 54 53 52
54 55 55 55 56 57 57 58 58 59 59 59 59 59 58 58 57 56 56 56 56 55 55 55 54 54 55 55 55 55 56 56 56 57 57 57 57 56 56 55 54 52
56 56 56 57 57 58 58 59 59 59 59 59 58 57 57 57 56 56 56 57 56 56 55 55 54 54 54 54 54 55 55 55 56 56 57 57 58 57 57 56 55 54
57 57 58 58 59 59 59 59 59 59 59 58 57 56 56 56 56 57 58 58 57 56 55 55 55 54 54 54 55 55 55 56 56 57 57 58 58 58 58 57 57 57
58 58 59 59 59 60 60 60 60 59 59 58 57 56 56 56 57 58 59 59 59 58 57 56 56 56 55 55 56 56 56 57 57 57 58 58 59 60 60 61 61 61
58 58 59 59 60 60 60 60 59 59 59 58 57 56 57 58 58 59 60 60 60 60 59 58 58 57 57 57 57 57 57 58 58 59 60 60 61 62 63 64 65 65
57 58 59 59 59 59 59 59 59 59 58 58 57 57 58 59 60 60 60 60 61 61 61 61 60 59 59 58 58 58 59 59 60 61 63 64 65 66 66 67 67 66
57 58 58 58 58 58 58 58 58 58 58 58 58 59 59 60 61 61 61 61 62 62 62 62 62 61 60 60 60 60 61 61 62 63 64 65 66 67 68 68 68 68
57 57 58 57 57 57 57 56 57 57 58 58 58 59 60 60 61 61 62 62 63 64 64 63 62 61 59 59 60 61 62 63 64 64 65 66 67 68 69 70 70 70
57 57 57 57 57 57 56 56 56 57 57 58 58 59 60 60 61 62 63 64 64 65 65 63 61 58 58 58 59 61 62 63 65 66 66 67 68 69 69 71 71 72
56 56 57 57 57 57 56 56 56 57 57 58 58 59 60 61 62 63 64 65 66 65 62 60 58 57 58 58 60 61 62 64 65 66 67 68 69 70 70 71 72 73
56 56 57 57 57 57 57 57 57 58 58 59 60 61 62 63 64 65 65 64 63 60 58 58 58 58 59 60 61 62 63 65 66 67 69 70 71 72 72 73 74 75
58 58 57 57 57 57 57 57 58 59 59 60 61 62 63 64 64 63 62 61 59 57 57 58 59 60 61 63 64 65 66 67 69 70 71 72 73 74 75 76 77 78
59 59 58 58 58 58 58 58 59 60 60 61 62 62 62 62 61 60 59 58 57 58 58 59 61 62 64 65 67 68 69 71 72 73 75 76 77 78 78 79 79 80
58 58 57 57 57 57 58 59 59 60 61 61 61 61 60 59 58 58 58 58 58 59 60 62 63 65 66 68 70 71 73 74 76 77 78 79 80 81 81 81 81 81
57 57 56 56 56 57 58 59 60 61 61 60 59 58 57 57 58 58 59 60 61 62 64 65 66 68 69 71 72 74 76 78 79 80 81 82 82 82 82 82 81 80
56 55 55 56 57 58 59 60 60 61 60 59 58 57 57 58 59 60 61 63 64 66 67 68 70 71 72 73 75 77 78 80 81 81 81 82 82 81 81 81 81 80
55 55 55 56 57 58 59 60 61 60 59 58 57 57 58 59 60 62 64 65 67 69 70 72 72 73 74 76 77 78 79 79 80 80 80 80 80 80 80 80 79 79
54 55 55 56 57 58 59 60 60 59 58 57 57 58 59 61 63 65 66 68 69 71 73 74 75 76 76 77 77 78 78 78 78 79 79 79 79 78 78 77 76 75

ECMWFNIL_250_spd_096.txt.gz
Wind_Speed
60 62 63 65 66 67 68 68 69 69 68 67 65 65 66 66 66 65 65 64 63 63 63 62 62 62 61 61 60 59 59 58 57 56 56 55 54 54 53 53 52 51
64 65 67 67 68 69 69 70 69 69 67 65 64 64 65 65 64 64 63 62 62 62 62 61 61 61 60 60 59 58 58 57 56 56 55 55 54 54 54 54 54 53
66 66 67 68 69 69 70 70 69 67 65 63 63 63 63 63 62 62 61 61 61 61 61 60 60 60 60 59 59 58 57 56 55 55 54 54 54 54 55 55 54 54
65 66 67 68 69 69 69 68 67 65 63 62 62 62 61 61 60 60 60 60 60 60 60 60 60 60 60 59 59 58 57 56 55 54 54 54 54 54 55 55 55 55
65 66 67 67 68 68 67 66 64 62 61 61 61 61 60 60 60 60 60 61 61 60 60 60 60 60 60 59 58 57 56 55 55 54 54 53 54 54 55 55 55 55
65 66 66 67 67 66 65 63 62 62 61 61 60 60 60 60 60 60 61 61 61 61 61 60 60 60 59 58 57 56 56 55 55 55 54 54 54 54 55 55 55 56
65 66 66 66 65 64 63 62 62 62 61 60 60 60 60 61 61 61 61 61 61 61 61 60 60 59 59 58 57 55 56 56 56 56 56 55 55 55 56 56 56 56
64 64 64 63 62 62 62 61 61 61 60 60 61 61 61 61 61 61 61 61 61 61 60 60 59 59 58 58 57 56 57 57 57 58 57 57 57 57 57 57 58 58
62 61 61 60 60 60 60 60 60 60 61 61 61 61 61 61 61 61 61 61 61 60 59 59 59 58 58 58 57 57 58 59 59 59 59 59 59 59 59 59 59 60
59 59 59 59 59 59 59 59 60 60 60 60 60 60 60 60 60 61 61 61 60 59 59 58 58 58 58 58 58 59 60 60 60 61 60 60 60 60 61 61 61 62
59 59 59 59 59 59 58 58 58 58 58 58 58 58 59 60 60 61 60 60 59 58 58 57 57 57 58 58 59 59 60 61 61 62 62 62 62 62 62 63 63 63
59 59 60 59 59 58 58 58 58 57 57 57 58 59 60 60 60 60 59 59 58 57 56 56 55 56 56 57 58 59 60 61 62 63 63 64 64 64 64 64 64 63
59 60 59 59 58 58 58 58 58 58 58 59 60 60 60 60 60 59 59 58 57 56 55 55 54 55 55 57 58 59 61 62 64 65 66 66 66 66 65 64 64 63
59 59 58 58 58 58 58 58 59 59 60 60 60 60 60 60 59 59 58 58 57 56 56 55 55 56 57 58 59 61 62 64 66 67 68 68 67 66 65 64 63 63
58 58 58 58 58 58 59 59 59 60 60 60 60 60 60 60 60 59 59 58 58 57 57 57 58 58 59 61 62 63 64 65 66 67 66 66 65 64 63 63 63 63
58 59 59 59 59 59 60 60 60 60 60 60 60 60 60 60 60 60 60 59 59 59 59 59 60 61 62 63 64 65 65 65 65 64 63 63 63 63 64 64 64 65
59 60 61 61 61 61 60 60 61 60 60 60 60 60 61 61 61 61 61 60 60 61 61 61 62 63 64 65 65 65 65 64 63 63 62 62 63 63 64 65 66 66
59 61 63 64 64 63 63 62 62 62 62 61 61 62 62 62 62 62 62 62 62 62 63 64 64 65 65 66 65 65 64 64 64 63 63 63 64 65 65 66 67 69
59 61 63 65 66 66 65 65 64 64 63 63 63 63 63 63 63 63 63 63 63 63 64 65 66 66 66 66 66 65 64 64 64 65 65 66 66 67 68 69 70 71
60 61 63 65 66 66 66 65 65 64 64 64 64 64 64 63 63 63 63 63 63 64 65 66 67 67 67 66 66 65 65 65 66 67 67 68 69 69 70 71 72 73
61 62 63 65 66 66 66 65 64 64 64 64 64 63 63 62 62 62 62 63 64 65 66 66 67 67 67 66 66 66 67 67 68 68 69 70 70 72 73 74 75 76
62 64 65 66 67 66 65 64 64 64 64 63 62 61 61 61 61 61 62 63 64 65 66 66 66 66 66 66 67 67 68 69 70 71 71 73 74 75 77 77 78 78
64 65 66 67 67 66 64 64 63 63 62 61 60 59 59 60 61 62 63 65 65 66 66 66 66 66 66 67 68 69 70 71 72 74 75 77 78 79 79 79 78 77
65 66 67 68 66 64 63 63 62 62 60 59 58 59 60 61 62 63 65 65 66 66 66 66 66 66 67 68 69 71 72 74 76 77 78 79 79 79 79 78 78 77
67 68 68 67 65 63 62 62 60 59 57 58 58 59 60 62 63 64 65 66 66 66 66 66 66 67 68 69 71 73 74 76 78 78 78 78 78 78 78 77 77 76
68 69 68 65 63 62 61 59 57 56 57 58 59 60 61 63 64 64 65 65 65 66 66 67 67 68 70 71 73 75 76 77 77 77 77 77 76 76 76 76 75 74

ECMWFNIL_250_spd_099.txt.gz
Wind_Speed
58 58 59 60 62 64 66 68 69 71 72 73 73 73 74 74 74 75 75 74 73 72 71 69 67 65 63 61 60 59 59 59 59 59 58 58 57 57 56 55 55 54
62 63 64 66 68 69 71 72 73 73 73 73 73 74 73 73 73 73 72 72 71 70 68 66 64 62 61 61 60 61 61 60 60 60 60 59 58 58 57 56 56 55
67 68 69 71 72 73 73 74 73 73 73 73 73 73 72 72 71 70 70 69 69 67 65 63 62 61 61 61 62 62 62 61 61 61 60 60 59 59 58 57 57 56
69 70 71 72 72 72 72 72 72 72 72 72 72 71 71 70 69 69 68 67 66 65 63 62 62 62 62 62 62 62 62 62 62 61 61 60 60 59 59 58 57 57
70 70 70 70 70 71 71 71 71 71 71 71 70 70 69 69 68 67 66 64 63 62 62 62 62 62 62 62 62 62 62 62 62 62 62 61 60 59 59 58 58 57
69 69 69 70 70 70 71 71 71 70 70 70 69 69 68 67 66 65 64 63 62 61 61 61 61 61 61 61 62 62 62 62 62 62 62 61 60 59 58 58 58 58
69 70 70 70 70 71 70 70 70 69 69 69 69 68 67 66 65 64 63 61 61 61 60 61 61 61 61 62 62 62 63 63 62 62 61 60 59 58 58 57 58 58
70 70 70 70 69 69 69 68 68 68 68 68 67 67 66 65 64 63 62 61 61 61 61 61 62 62 63 63 63 63 63 63 62 62 61 60 59 58 57 57 58 59
68 68 68 67 67 67 67 67 67 67 67 67 66 66 65 63 62 61 61 61 62 62 63 63 63 64 64 64 64 64 63 63 62 62 61 60 59 59 58 59 59 60
66 65 65 65 65 65 66 66 66 66 66 66 65 64 63 62 61 61 62 63 63 64 64 65 65 65 64 64 64 64 63 63 63 62 62 61 61 61 61 61 62 63
64 63 63 64 64 65 66 66 66 66 65 65 64 63 62 62 62 62 63 64 64 65 65 65 65 65 65 64 64 64 64 64 64 64 63 63 63 63 64 64 64 65
63 63 63 64 65 65 65 65 65 65 64 64 63 62 62 62 63 63 64 65 66 66 66 66 65 65 65 65 65 65 65 65 65 65 65 65 65 65 65 66 66 66
62 63 63 64 64 65 65 65 65 64 64 64 63 62 62 63 63 64 66 67 67 67 66 66 65 65 65 65 65 66 66 65 65 65 65 65 65 66 66 67 67 67
62 63 63 64 64 64 64 65 65 65 64 64 64 63 63 63 64 66 67 67 67 67 67 66 66 66 65 66 66 66 65 65 65 65 65 65 66 66 67 67 68 68
63 63 64 64 64 64 65 65 65 65 65 65 64 64 64 65 66 67 68 68 68 68 67 66 66 66 67 67 66 66 65 65 65 65 66 66 67 67 68 69 68 68
63 64 64 64 64 64 65 66 66 65 65 65 65 66 67 67 69 70 71 71 70 69 68 68 67 68 68 68 67 66 66 66 65 66 66 67 68 68 69 69 68 68
64 64 64 64 64 64 65 66 66 66 66 66 66 67 68 70 71 73 73 73 72 71 69 69 69 69 69 68 67 66 66 66 66 66 67 67 68 69 69 69 68 68
64 64 64 64 64 64 65 66 66 67 67 67 67 69 70 71 73 74 75 74 72 71 70 70 70 69 68 67 66 66 66 66 66 67 68 68 68 69 69 69 69 69
64 63 63 63 63 63 65 66 67 67 68 68 69 70 71 73 74 75 75 74 72 71 70 70 69 67 66 65 65 65 66 66 67 67 68 68 68 68 68 68 69 70
63 63 63 63 63 64 65 67 68 68 69 69 70 71 72 74 75 76 76 73 71 70 69 68 67 66 65 65 65 65 66 67 67 68 68 68 68 68 68 69 70 71
63 63 63 63 64 65 66 67 68 69 69 70 71 72 73 75 76 76 74 72 70 69 68 67 66 65 65 65 65 66 67 67 67 68 68 69 69 70 71 72 72 73
63 64 64 65 65 66 67 68 68 69 69 70 71 73 74 76 76 75 72 70 69 68 67 67 66 66 66 66 67 67 68 68 69 69 70 71 72 72 73 74 74 73
64 64 65 66 67 68 69 69 69 69 70 71 72 73 75 76 75 72 70 69 68 67 67 67 66 66 67 68 68 69 69 70 71 71 72 73 74 75 74 74 74 73
64 65 66 67 68 69 70 70 69 70 70 71 72 74 75 75 73 70 68 67 67 67 67 67 67 68 69 69 70 70 71 71 72 73 74 75 75 75 74 74 73 73
65 66 67 68 70 70 70 70 70 70 71 72 73 74 74 72 70 68 67 66 66 67 66 66 68 69 70 70 71 71 72 72 73 75 75 75 75 74 74 74 73 72
66 67 68 69 70 71 71 71 71 71 71 72 74 74 72 70 68 67 66 66 66 66 66 67 68 69 70 71 71 71 72 73 74 75 74 74 74 74 74 73 72 70

ECMWFNIL_250_spd_102.txt.gz
Wind_Speed
60 60 59 59 59 59 60 62 64 66 68 69 70 72 74 75 78 80 82 83 84 84 84 84 83 81 80 79 78 77 75 73 70 68 66 65 64 63 62 61 60 59
64 64 64 64 64 65 66 67 69 70 71 72 74 75 77 79 81 82 83 84 84 83 82 81 80 79 78 77 76 74 72 70 68 66 65 64 64 63 62 61 61 60
68 68 69 69 69 69 70 71 73 73 74 75 77 78 80 82 83 83 84 83 82 81 80 79 78 77 76 75 74 72 70 68 67 66 65 65 64 64 63 63 62 61
71 72 72 72 73 74 75 75 76 77 78 79 80 82 83 83 83 83 82 81 80 79 78 77 76 76 75 74 72 70 68 67 66 66 66 65 65 65 64 64 63 62
74 74 75 75 76 77 77 78 78 79 80 81 82 82 82 82 82 81 80 79 78 78 77 76 76 75 74 72 71 69 68 67 66 66 66 66 66 65 65 64 64 63
75 75 75 76 77 78 78 79 80 80 81 81 81 81 81 80 80 79 78 78 77 77 76 76 75 74 72 71 70 69 67 67 67 67 67 67 66 65 65 64 64 63
75 75 75 76 77 78 78 79 79 80 80 80 80 79 79 79 78 78 77 77 76 76 76 75 73 73 72 71 70 68 68 67 68 68 68 68 67 66 65 64 64 64
74 75 76 76 77 77 78 78 79 79 79 79 79 78 78 78 77 76 76 76 76 75 74 73 73 72 72 71 70 69 68 68 69 70 69 68 67 66 65 65 65 65
74 75 75 76 77 77 77 78 78 78 78 78 78 77 76 76 75 75 75 75 74 73 73 73 73 73 72 71 70 69 69 69 70 70 69 68 67 66 66 65 66 66
73 74 75 76 76 76 77 77 77 77 76 76 75 75 74 74 74 74 74 73 73 73 73 73 73 73 72 72 71 70 70 70 70 70 69 67 66 66 66 66 66 66
71 72 73 74 75 75 75 74 74 74 73 73 73 73 73 73 73 73 73 73 73 73 73 73 73 73 73 73 72 71 71 72 72 71 70 68 67 67 67 66 66 65
68 69 70 71 71 71 71 71 71 71 72 72 72 72 72 72 72 72 72 73 73 74 74 74 74 74 74 74 73 73 73 74 74 73 71 70 69 68 67 66 65 63
66 67 68 68 69 69 69 70 70 70 71 71 71 71 71 71 72 72 73 73 73 73 74 75 75 76 75 74 74 74 75 76 75 74 72 70 69 69 67 66 65 64
65 66 67 67 67 68 68 68 69 69 69 69 70 70 71 71 72 72 73 73 73 74 74 75 76 76 75 74 75 75 76 77 76 74 72 71 70 69 69 67 66 65
64 65 66 66 66 66 67 67 68 68 68 69 69 70 71 71 72 72 73 73 73 74 75 76 76 76 75 75 76 77 78 78 76 74 73 72 71 70 70 68 67 66
64 65 65 65 65 65 65 66 66 67 67 68 69 70 71 71 72 72 72 73 74 75 76 76 76 76 76 77 78 79 79 78 76 74 73 72 71 70 69 68 67 66
64 64 64 64 64 64 64 65 65 66 67 68 69 70 70 71 72 72 73 74 75 76 77 77 77 78 78 78 79 80 79 78 75 74 72 71 71 70 69 68 68 67
63 63 63 62 62 63 63 64 65 65 66 67 68 69 70 71 72 72 73 74 76 77 77 78 78 78 79 79 80 80 79 76 74 72 72 71 70 69 68 68 68 68
62 62 62 62 62 62 63 63 64 65 66 67 68 69 70 71 72 73 74 75 77 78 78 79 79 79 79 80 80 79 77 75 73 72 71 70 69 68 68 69 69 69
61 61 61 61 61 62 62 63 64 65 66 67 68 68 69 70 72 73 74 76 78 79 79 79 79 79 80 80 79 77 75 73 72 71 70 69 68 68 69 69 70 71
61 60 60 61 61 62 62 63 64 65 66 66 67 68 69 70 71 73 75 77 79 80 80 80 79 79 79 78 77 75 73 72 71 70 69 69 68 69 70 71 71 71
60 61 60 61 62 62 62 63 63 64 65 65 66 68 69 70 72 74 76 78 79 80 80 79 79 78 78 77 75 73 71 71 70 69 69 69 69 70 71 72 72 71
61 61 61 61 61 61 62 62 63 63 64 65 67 68 70 71 73 75 77 78 79 80 80 79 78 77 76 75 73 71 71 70 69 69 69 70 71 72 73 73 72 71
61 61 60 61 60 61 61 61 62 63 65 66 67 69 71 73 75 77 78 78 79 79 79 78 77 76 75 73 71 70 70 69 69 69 70 71 73 73 73 72 71 71
60 59 59 59 59 59 60 61 62 63 65 67 68 70 72 74 76 77 78 78 79 79 79 78 77 75 73 71 70 70 69 69 70 71 72 73 74 73 72 71 71 70
58 58 58 58 59 59 60 61 63 64 66 68 69 71 73 75 77 78 78 79 79 79 79 78 76 74 71 70 69 69 69 70 71 73 74 74 74 73 72 72 71 69

ECMWFNIL_250_spd_105.txt.gz
Wind_Speed
55 55 55 55 55 56 57 59 62 65 68 70 71 72 73 75 76 77 78 80 81 82 83 83 83 84 83 83 82 81 80 80 79 79 79 80 80 79 78 77 76 74
55 56 56 57 58 60 62 64 66 69 72 74 76 77 78 79 80 80 81 82 83 84 84 84 84 83 82 81 81 80 79 79 79 79 80 80 79 78 77 76 75 75
57 58 59 61 63 65 67 68 70 73 75 77 79 80 81 81 82 83 83 84 84 84 84 83 82 81 80 79 79 78 78 79 79 80 80 79 78 77 77 76 75 75
60 62 63 65 67 69 71 72 74 75 77 78 80 81 82 83 84 84 84 84 83 82 82 81 79 78 78 77 77 77 78 79 80 80 79 78 78 77 77 76 75 75
62 63 65 68 69 71 73 74 76 77 79 80 81 83 83 83 83 82 82 81 80 79 78 77 76 76 76 76 77 78 79 79 79 79 78 78 78 78 77 77 76 74
63 64 65 67 69 70 72 73 75 77 78 79 80 80 80 79 79 78 77 76 75 75 74 74 75 75 75 76 77 78 79 79 79 78 78 78 78 78 78 77 76 74
63 65 66 67 68 69 69 70 72 73 74 74 74 74 74 74 74 73 73 72 72 73 73 73 74 75 76 77 78 78 78 78 78 78 78 78 78 78 78 77 76 74
64 65 66 67 68 68 68 69 69 70 70 70 70 70 70 70 70 70 71 71 72 72 72 73 74 75 76 77 77 78 77 78 78 78 79 79 79 79 78 78 76 75
65 66 66 67 67 67 67 67 68 68 68 68 68 68 68 69 69 70 70 71 71 72 73 74 75 76 76 76 77 77 77 78 78 79 80 80 80 79 79 78 76 75
64 65 65 66 66 66 66 66 67 67 67 67 67 67 68 69 69 70 70 71 72 72 73 74 75 75 75 76 76 77 78 78 79 80 80 80 80 79 78 77 76 75
62 63 63 64 64 65 65 65 65 66 65 66 66 67 68 68 69 69 70 71 72 72 73 73 74 74 75 75 76 77 78 79 80 80 81 80 79 78 77 76 75 75
60 61 61 62 62 63 63 64 64 64 64 65 65 66 67 68 68 69 70 71 71 71 72 72 73 74 75 76 77 78 78 79 80 81 81 80 79 78 76 75 74 74
58 59 59 60 61 61 62 62 63 63 63 64 65 66 66 67 68 68 69 69 70 70 71 72 73 74 75 76 77 77 78 79 80 81 82 81 80 78 76 75 74 73
56 56 57 58 59 60 61 61 61 62 62 63 64 65 65 66 67 67 68 68 69 70 71 72 73 74 75 75 76 77 78 79 81 82 83 82 81 78 76 74 73 72
54 55 56 57 59 60 60 60 60 61 61 62 63 64 64 65 65 66 67 68 69 70 71 72 72 73 74 75 76 77 79 80 81 83 83 82 80 78 76 75 73 72
54 55 56 57 58 59 60 60 60 60 60 61 62 63 63 64 65 66 67 68 69 70 71 71 72 72 73 75 76 78 79 81 82 83 83 82 80 78 76 75 74 72
54 55 56 58 59 60 60 60 60 60 60 61 62 63 63 64 65 66 67 68 69 69 70 70 71 72 73 75 77 78 80 82 83 84 83 81 80 79 77 74 73 72
56 57 58 59 59 60 61 61 60 60 60 61 62 63 63 64 65 66 67 68 68 68 68 69 70 72 73 75 77 79 81 83 83 83 82 81 80 79 76 74 73 73
58 59 59 60 60 61 61 61 61 61 61 61 62 63 64 65 65 66 67 66 66 66 67 68 70 72 73 75 78 80 82 83 83 83 82 81 79 77 75 73 73 73
60 60 60 60 60 60 61 61 60 61 61 62 62 63 64 65 65 65 65 65 65 66 67 69 70 72 74 76 78 81 82 82 83 82 81 80 79 76 74 73 73 72
59 59 59 59 59 59 60 60 60 61 61 62 63 63 64 64 63 63 63 64 65 66 67 69 71 73 75 77 79 80 81 82 82 82 81 80 77 74 73 73 72 72
57 57 57 57 58 58 59 59 60 61 62 62 62 62 62 62 62 62 63 64 65 66 68 69 72 74 76 77 79 80 81 82 82 81 80 78 75 73 73 72 72 72
55 55 56 56 57 58 59 59 60 61 61 61 61 60 60 60 61 62 63 64 65 67 69 71 73 75 76 77 78 79 81 81 81 80 79 76 73 72 73 73 72 72
55 55 55 56 57 58 58 59 59 59 59 59 59 59 59 60 61 62 64 65 67 68 70 72 73 75 76 78 79 80 81 81 81 80 77 74 72 72 72 72 72 72
55 55 56 56 56 57 57 57 58 58 58 58 58 59 59 60 62 64 65 66 67 68 70 72 74 75 77 78 79 81 81 81 80 78 75 73 72 72 72 72 72 71
55 55 55 55 55 56 56 56 57 57 57 58 58 59 60 61 63 64 65 65 66 68 70 72 74 76 77 79 80 81 81 81 79 76 73 72 72 72 72 73 72 70

ECMWFNIL_250_spd_108.txt.gz
Wind_Speed
46 46 46 47 47 47 48 49 51 53 54 56 57 58 59 60 62 64 66 68 70 73 75 77 79 81 82 83 83 83 83 82 81 80 80 80 80 80 80 80 80 79
48 48 49 49 50 49 49 49 50 52 54 56 58 60 61 63 65 67 68 70 73 74 76 78 79 80 80 80 79 79 79 78 78 78 79 79 80 80 79 79 79 79
51 51 51 52 52 52 52 52 51 52 54 56 59 61 64 65 67 68 70 71 73 74 75 75 75 75 75 75 75 76 76 77 77 78 78 78 79 79 79 79 79 79
54 54 54 54 54 54 54 54 54 54 55 56 57 59 61 63 64 66 67 68 69 70 71 71 71 71 72 73 74 74 75 76 76 77 77 78 78 78 79 79 79 79
57 56 56 55 55 56 56 57 58 58 58 58 59 59 60 61 62 63 64 66 67 67 68 68 69 70 71 72 73 74 74 75 75 76 77 77 77 78 78 79 79 80
59 58 57 57 57 57 58 58 59 60 60 60 61 61 62 62 63 63 64 65 65 66 67 68 69 70 71 72 72 73 74 74 75 75 76 76 77 77 78 79 79 80
60 59 59 59 59 60 60 60 60 61 61 61 62 62 62 63 63 63 64 64 65 66 67 68 69 70 70 71 72 72 73 73 73 74 74 76 77 78 79 79 79 79
59 59 59 60 61 62 62 62 62 62 62 62 62 62 62 62 62 63 64 65 66 67 67 68 69 69 70 70 71 71 71 72 72 73 74 76 77 78 79 79 79 78
60 60 61 62 62 62 62 62 62 62 62 62 61 61 62 62 63 63 64 65 66 67 67 68 68 68 68 69 69 69 70 70 72 73 75 77 78 78 78 78 78 78
61 61 61 61 61 60 60 61 60 60 61 61 61 61 62 62 63 64 64 65 66 66 66 66 66 66 67 67 67 68 69 71 72 74 75 76 77 77 77 77 78 78
60 60 60 59 59 59 59 59 59 60 60 60 60 61 61 62 63 63 63 64 64 64 64 64 65 65 66 66 67 68 70 71 73 74 75 75 75 76 77 77 78 79
59 59 58 58 58 58 58 58 59 59 59 59 60 60 60 61 61 61 62 62 62 63 63 63 64 65 65 66 67 69 70 72 73 74 74 74 74 75 76 77 78 79
57 57 56 56 56 56 57 57 58 58 58 58 58 58 59 59 60 60 61 61 62 62 63 63 64 65 66 67 68 69 71 72 73 73 73 73 73 74 75 77 78 80
55 55 54 54 54 54 55 55 56 56 57 57 57 58 59 60 60 61 61 62 62 62 63 63 64 65 66 67 68 70 71 71 71 72 72 72 73 75 75 76 78 80
55 54 53 53 53 53 53 54 55 56 57 58 59 60 61 61 61 62 62 62 62 62 63 63 64 65 67 68 69 69 70 70 70 71 71 72 73 74 76 77 78 80
55 53 52 53 53 53 54 55 57 58 60 61 62 62 62 62 62 61 61 61 62 62 63 64 65 66 67 68 68 68 68 68 69 70 72 73 74 75 76 77 79 80
54 53 53 54 54 55 56 58 59 61 62 62 62 62 62 61 61 61 61 61 61 62 63 64 65 66 66 67 67 67 67 68 69 71 72 73 74 75 76 77 80 81
53 53 54 55 56 57 58 60 62 62 62 61 61 60 60 60 60 60 60 61 61 62 63 64 65 65 65 65 66 66 67 68 70 71 73 74 75 76 77 79 81 81
54 54 56 57 58 59 60 61 61 60 59 59 59 59 59 59 59 59 60 61 61 62 63 63 63 63 64 64 65 66 67 69 70 72 73 75 76 77 78 80 81 81
56 57 58 59 59 59 59 59 59 58 57 57 57 58 58 58 58 59 59 60 61 61 61 62 62 63 64 64 65 66 68 69 71 72 74 75 77 78 79 81 81 81
57 58 58 59 58 57 57 57 57 56 56 56 56 57 57 57 58 58 58 59 59 60 60 61 62 63 64 64 65 67 68 70 72 73 75 76 77 78 80 81 81 80
57 57 57 57 56 55 56 56 55 55 56 56 56 56 56 56 57 57 57 58 58 59 60 61 62 63 63 65 66 67 69 71 73 74 76 77 77 79 81 81 80 78
55 55 55 55 54 54 55 55 55 55 55 55 55 55 55 56 56 57 57 58 58 59 60 61 62 63 64 65 67 69 70 72 74 75 76 77 78 80 81 80 78 76
54 55 55 55 55 55 55 55 55 55 55 54 55 55 55 56 56 56 57 58 59 60 61 61 62 63 65 66 68 70 71 73 74 75 76 77 78 80 80 79 76 74
56 56 57 56 55 54 54 54 54 54 54 54 55 55 55 55 56 56 57 58 59 60 61 62 63 64 66 67 69 70 72 73 75 75 76 77 78 79 78 76 74 73
57 57 57 56 54 53 53 53 53 53 54 55 55 54 55 55 56 56 57 58 59 61 62 63 64 65 67 68 70 71 72 74 75 75 76 77 78 78 76 73 72 72

ECMWFNIL_250_spd_111.txt.gz
Wind_Speed
50 50 50 50 51 52 53 54 54 55 56 56 56 55 56 56 56 56 56 56 56 57 58 59 61 62 64 65 66 68 69 70 70 71 71 71 72 72 72 73 72 72
51 51 51 51 52 53 53 54 56 57 58 59 59 59 60 59 58 58 58 58 59 59 60 61 62 63 65 66 67 68 68 69 69 70 70 70 71 71 71 71 70 70
51 52 52 53 53 53 54 56 58 59 61 63 63 64 63 61 60 60 59 60 61 61 62 63 64 65 66 66 67 67 68 68 68 69 69 70 69 69 69 69 69 70
51 52 53 54 55 55 57 59 60 62 65 66 66 66 64 63 62 61 62 62 63 63 63 64 65 66 66 66 66 66 67 67 68 68 68 68 68 68 68 69 69 70
51 52 54 56 57 59 61 63 64 65 67 68 67 66 65 65 64 64 64 64 64 65 65 65 65 65 65 65 65 65 65 66 66 67 67 67 67 68 68 69 69 70
52 54 56 58 60 62 63 65 66 66 67 67 67 67 66 66 65 65 65 65 65 65 65 65 64 64 63 63 63 64 64 64 65 66 67 67 68 68 68 69 70 71
54 55 57 59 60 62 63 64 65 66 66 66 67 67 66 66 65 65 65 65 65 64 63 62 62 61 61 61 62 63 63 64 66 66 67 68 68 68 69 70 71 73
54 56 58 59 60 62 63 64 65 65 65 66 66 66 65 65 64 64 63 63 62 61 60 60 59 59 60 61 62 64 65 66 67 67 67 68 68 69 69 71 72 73
55 57 58 59 61 62 63 64 64 65 65 65 64 64 63 62 62 61 61 60 60 59 58 58 59 60 62 63 65 66 67 67 67 67 67 68 68 69 70 71 72 73
58 59 60 60 61 62 63 63 63 63 63 62 62 61 60 60 60 59 59 59 58 58 58 59 61 63 65 66 67 67 67 67 67 67 67 67 68 69 70 71 72 73
60 61 61 61 61 62 63 63 62 62 61 60 60 60 60 59 59 59 58 58 58 59 60 62 64 65 67 67 67 66 66 66 66 66 66 68 69 70 70 71 72 73
60 61 61 61 62 62 62 61 61 60 60 60 60 60 60 59 58 58 58 59 60 61 63 65 66 66 66 66 65 65 64 65 65 65 66 67 68 69 70 71 72 73
60 60 60 60 60 61 61 60 60 60 60 61 61 60 59 58 58 58 59 60 62 63 65 66 66 66 65 64 63 63 63 64 64 65 66 67 68 69 70 71 72 73
59 59 59 59 60 61 61 61 61 60 60 60 59 58 57 57 59 60 61 62 63 65 65 65 64 64 63 62 62 62 63 63 64 65 66 67 68 70 71 72 73 74
60 60 60 61 61 61 61 60 59 57 56 56 56 56 57 59 60 61 62 63 64 64 64 63 63 62 61 61 61 62 62 63 64 65 66 67 68 69 71 72 73 75
61 60 60 60 60 60 59 57 55 53 54 54 55 57 59 60 61 62 63 63 63 63 62 62 62 61 61 61 61 61 62 63 64 65 66 67 68 69 70 72 74 75
59 58 57 57 56 56 55 53 52 52 53 55 56 59 60 61 62 62 62 62 62 61 61 61 61 61 61 61 61 61 62 63 64 65 66 67 68 69 71 72 74 75
55 54 53 52 52 52 51 50 51 53 54 56 58 60 61 61 61 61 61 61 61 61 61 61 61 61 61 61 61 62 63 63 64 64 65 67 68 70 71 73 74 76
52 51 50 50 50 51 51 51 53 55 56 57 58 59 59 59 59 60 60 60 61 61 62 62 61 61 61 61 61 62 62 63 63 64 66 67 69 70 72 73 74 76
50 49 48 49 50 52 52 53 55 56 56 56 56 57 58 58 59 60 61 62 62 62 62 62 61 60 60 60 61 61 62 62 64 65 66 68 69 70 72 73 75 76
50 49 49 50 51 53 54 55 55 55 55 55 55 57 58 60 61 62 62 62 62 62 61 60 60 59 59 60 60 60 61 63 64 65 67 68 69 71 72 73 74 75
50 50 50 51 53 55 55 55 55 55 55 55 56 58 60 61 62 62 62 62 61 60 59 59 58 59 59 59 60 61 62 63 64 65 67 68 70 71 72 73 74 74
51 52 52 53 54 55 55 55 55 55 56 57 58 59 61 62 62 61 61 60 59 58 57 57 58 58 58 59 60 61 62 63 64 66 68 69 71 71 72 72 73 74
53 53 53 54 54 55 55 55 55 56 57 58 59 60 61 61 60 59 58 57 57 56 56 57 57 57 58 59 60 61 62 64 65 67 68 70 71 71 71 71 72 73
54 54 54 53 53 54 55 55 56 57 58 59 59 59 59 58 58 57 56 55 55 55 56 56 57 57 58 59 61 62 63 65 66 67 69 70 70 70 70 71 72 73
53 53 53 53 53 54 55 56 57 57 57 57 57 57 56 56 55 54 54 53 54 55 55 56 57 58 59 61 62 63 64 65 67 68 69 69 69 69 69 70 71 71

ECMWFNIL_250_spd_114.txt.gz
Wind_Speed
40 40 40 41 42 42 43 43 43 43 44 45 46 47 48 49 50 50 51 53 56 58 61 63 64 65 65 65 65 65 64 63 61 60 60 61 62 62 62 63 64 66
36 37 38 39 40 41 42 42 43 44 45 46 47 49 50 50 51 52 54 56 59 61 62 64 64 64 65 65 65 64 62 61 60 60 60 61 61 62 63 64 66 68
36 37 38 39 41 42 42 43 44 45 47 48 48 49 50 51 52 54 56 58 60 61 62 63 64 65 65 65 64 62 61 60 60 60 61 61 62 63 65 67 69 70
38 39 40 41 42 43 44 44 45 46 47 48 48 49 50 52 54 56 58 60 61 62 63 64 65 66 65 64 62 61 60 60 60 61 62 63 65 66 68 69 70 70
39 40 41 42 43 44 45 45 46 46 47 48 49 50 52 54 56 58 59 60 61 63 64 65 66 65 64 62 61 61 61 61 62 63 64 65 67 68 69 70 70 70
40 42 43 44 45 46 47 47 48 48 48 49 51 52 54 56 57 59 60 61 63 64 65 65 64 63 62 62 62 62 62 62 63 64 65 67 68 69 69 69 69 69
42 43 44 46 47 48 49 49 50 50 50 51 53 54 55 57 58 60 61 62 63 64 64 64 64 63 63 63 62 63 63 63 64 65 67 68 68 68 68 68 68 68
44 45 46 48 48 49 50 50 51 52 53 54 55 56 58 59 60 61 62 63 64 64 64 64 64 64 63 63 62 62 63 63 65 66 67 68 68 67 67 67 68 68
47 48 49 50 51 51 51 52 53 54 55 56 57 58 60 61 62 62 63 64 64 64 64 64 64 63 62 61 62 62 63 64 66 67 67 67 67 66 67 67 68 69
50 51 51 52 53 53 54 54 55 56 57 58 59 60 61 62 62 63 63 64 64 63 63 63 62 61 60 61 62 63 64 65 66 66 66 66 66 67 67 68 68 69
51 52 53 54 55 55 56 56 57 58 59 60 60 61 61 62 62 63 63 62 62 62 61 61 60 59 60 61 63 64 65 66 66 66 66 66 67 67 68 68 69 69
52 53 54 55 56 57 57 58 59 60 60 61 61 61 61 61 61 61 61 60 60 60 59 58 58 59 61 63 64 65 65 65 65 66 66 67 67 68 68 69 69 68
53 54 55 56 57 58 58 59 60 60 60 60 60 60 60 59 59 58 58 58 58 57 57 57 59 61 62 64 64 64 64 65 66 66 67 67 67 67 68 68 68 68
55 56 57 57 57 58 59 59 59 59 59 59 59 58 57 56 56 56 55 56 56 56 57 58 60 62 63 63 64 64 65 66 66 66 66 66 66 66 66 66 67 68
56 57 57 57 57 58 58 58 58 58 58 57 56 55 53 53 53 53 54 55 56 57 59 60 61 62 63 63 64 65 66 65 65 65 65 65 65 65 65 66 66 67
53 55 55 56 56 56 56 56 56 56 56 54 53 51 50 50 51 52 54 56 58 59 60 61 62 63 63 64 65 65 65 64 64 64 64 64 64 64 64 65 66 68
51 52 53 54 54 54 55 54 54 54 53 51 50 49 49 50 52 53 56 58 59 61 61 62 63 64 64 64 64 64 63 62 62 62 62 62 62 63 64 65 67 69
48 49 50 51 51 52 52 51 50 50 50 49 48 48 49 51 53 55 57 59 61 62 62 63 63 64 64 63 62 61 61 61 61 60 60 61 61 63 64 66 68 70
47 48 49 49 49 49 48 48 48 49 49 48 48 49 50 52 54 56 58 60 62 62 62 62 62 63 62 61 59 59 59 58 58 58 59 60 62 63 65 67 69 70
48 48 48 48 48 48 48 48 48 48 48 48 49 50 52 53 55 58 59 61 62 62 61 61 61 60 59 58 57 57 57 56 57 58 59 61 62 64 66 68 69 70
47 47 48 48 48 47 47 47 47 47 48 49 50 51 53 54 56 58 59 60 61 61 60 59 58 57 56 55 55 55 55 56 57 59 60 62 63 65 66 68 69 71
44 45 45 45 46 45 46 47 47 47 48 49 50 52 54 56 57 58 59 60 60 59 58 56 55 54 54 54 54 54 55 56 58 60 61 63 64 65 67 68 70 71
42 41 42 45 47 47 47 47 48 48 50 51 52 54 56 56 57 57 58 58 58 57 55 54 54 53 53 54 54 54 56 58 59 61 62 64 65 66 67 68 70 71
39 38 40 44 47 47 47 47 48 50 52 53 54 55 56 57 56 56 56 56 56 55 54 54 53 53 54 55 55 55 57 59 61 62 64 65 65 66 68 69 70 71
36 36 39 43 48 50 50 50 50 52 53 54 54 56 56 56 55 54 55 55 55 55 54 54 54 54 55 56 56 57 59 61 63 64 65 65 66 67 68 69 70 71
40 40 43 48 52 54 54 53 52 53 54 56 56 56 55 53 53 53 54 55 55 55 55 55 55 56 57 57 57 59 61 63 64 65 66 66 67 67 68 69 69 71

ECMWFNIL_250_spd_117.txt.gz
Wind_Speed
42 41 43 45 46 47 46 44 39 36 35 35 37 38 39 40 41 41 42 42 43 45 46 47 49 50 51 53 54 55 57 58 60 61 62 63 65 66 67 67 66 65
43 43 44 45 46 45 43 39 36 34 34 36 37 39 40 41 42 43 43 44 45 46 47 48 50 51 52 54 55 56 58 60 61 62 63 65 65 66 65 65 64 64
44 46 46 46 45 44 41 38 36 35 37 39 40 42 43 44 44 45 45 46 47 48 49 50 51 52 54 55 57 58 60 61 62 63 64 65 64 64 63 63 63 64
44 45 45 45 45 43 41 39 39 40 41 43 44 44 45 46 47 47 48 49 49 50 51 51 53 54 55 57 58 60 61 62 63 64 64 63 62 62 61 62 63 65
44 45 45 45 44 43 42 41 42 43 44 45 45 46 46 48 49 50 50 51 51 51 52 53 55 56 58 59 60 61 62 63 64 63 62 61 60 60 61 62 64 65
46 47 46 44 43 42 42 42 42 43 44 45 46 47 48 49 50 51 51 52 52 53 54 56 58 59 60 61 62 63 63 63 62 61 60 59 59 60 62 63 64 65
46 46 44 44 44 43 43 43 43 44 45 47 48 49 50 51 52 53 53 54 54 55 57 58 59 60 61 62 63 63 62 61 60 58 57 58 59 61 62 64 65 66
46 45 45 45 45 45 45 45 45 47 48 49 50 51 52 53 54 55 55 56 57 58 59 60 61 62 62 63 62 61 59 58 57 56 57 59 60 62 63 64 65 66
48 47 47 47 47 47 47 47 48 49 50 51 52 53 54 55 56 56 57 58 59 60 61 62 62 62 62 61 59 57 56 56 56 56 58 60 61 63 64 65 66 65
49 48 48 48 49 49 50 50 51 51 52 53 54 55 55 56 57 58 59 60 60 61 62 62 61 61 60 58 56 54 54 55 56 58 59 61 62 64 65 65 64 63
49 49 49 50 50 51 51 52 52 53 54 55 55 56 56 57 58 59 60 60 60 60 60 60 59 58 57 54 53 53 54 56 57 59 60 62 63 64 64 63 62 60
50 50 50 51 51 51 52 52 53 54 54 55 56 56 57 58 59 59 59 59 58 58 58 57 56 55 54 53 52 53 55 57 58 60 61 62 63 63 62 60 59 58
49 50 50 51 51 51 51 52 53 54 55 56 56 56 57 58 58 58 57 56 56 56 55 54 53 53 52 52 52 54 56 58 59 60 61 62 62 61 59 57 57 57
48 49 50 51 51 51 52 53 54 55 55 56 56 55 55 56 55 55 54 53 53 53 52 51 51 52 52 52 53 54 57 58 59 60 61 61 60 58 57 56 56 57
47 48 49 50 50 51 51 52 53 53 54 53 53 53 52 52 52 51 50 49 50 50 50 50 51 52 52 52 53 55 57 57 59 60 60 59 57 56 55 55 56 57
46 47 47 48 49 49 49 50 50 50 50 50 50 50 50 49 48 48 47 47 48 49 49 50 51 52 52 53 54 55 56 57 58 58 57 57 56 55 55 56 57 58
44 45 46 46 46 47 47 47 47 48 48 48 48 48 48 47 47 46 46 47 47 48 49 50 51 52 53 54 55 56 56 56 56 56 56 56 55 55 56 57 58 60
42 43 43 43 44 44 45 45 46 47 47 47 47 47 47 46 46 45 46 46 47 48 49 50 52 54 55 56 56 55 55 55 55 55 56 56 55 56 57 58 60 62
41 41 42 42 42 42 43 44 45 45 46 46 45 45 45 44 43 44 45 46 47 48 50 52 54 55 56 57 56 54 54 54 55 55 56 56 56 57 59 60 62 64
40 40 40 39 39 41 42 42 43 43 43 43 43 43 44 44 44 44 46 47 47 49 52 54 55 56 57 57 55 54 54 54 55 56 56 57 57 59 60 62 63 66
38 37 37 37 38 40 40 39 39 40 41 41 42 43 44 45 44 44 45 46 48 51 53 54 56 58 58 56 54 54 54 55 56 56 57 57 58 60 61 63 65 67
35 34 33 34 35 35 35 36 37 40 41 43 44 45 47 48 47 45 46 49 51 53 54 55 58 60 58 55 54 55 55 56 57 57 57 58 59 61 63 64 66 68
31 31 30 31 34 35 37 39 41 43 46 47 48 50 52 53 53 52 52 52 53 54 56 58 60 59 56 55 56 56 56 56 57 58 58 59 61 63 64 65 67 68
28 30 34 38 41 43 45 46 46 47 50 52 54 55 57 58 58 56 54 53 54 56 59 60 59 57 56 57 57 57 57 58 58 59 60 61 62 64 65 66 67 68
26 30 37 43 47 48 49 50 50 51 54 57 58 59 60 61 60 57 55 56 58 59 59 58 57 56 57 58 59 59 59 59 59 60 61 62 63 64 65 66 68 68
29 30 35 42 47 48 49 51 52 53 56 59 60 60 61 62 60 59 58 59 59 58 56 56 56 57 59 60 60 61 60 60 61 61 62 63 63 65 66 67 68 68

ECMWFNIL_250_spd_120.txt.gz
Wind_Speed
49 49 49 49 49 47 44 43 44 47 49 50 51 52 51 51 49 45 39 36 37 40 42 43 45 48 49 51 52 52 53 54 55 56 58 58 60 61 63 64 64 63
51 50 49 49 49 47 45 46 47 48 49 50 51 52 52 50 47 42 38 38 41 43 46 48 49 51 52 53 53 53 54 56 57 58 59 60 62 63 64 64 62 61
51 50 50 50 48 46 46 47 48 49 50 52 53 53 50 48 46 43 42 44 46 48 50 51 51 52 53 53 54 55 57 58 59 60 61 62 63 64 63 62 60 58
50 49 49 48 45 43 44 46 48 50 52 54 53 51 50 49 47 46 46 48 49 50 51 51 52 53 54 55 56 58 59 60 60 61 62 64 64 63 61 59 57 57
48 48 47 45 43 42 44 46 48 50 52 53 52 51 51 49 48 48 48 49 50 51 51 52 54 55 56 57 58 59 60 60 61 63 64 64 62 60 58 56 56 57
47 48 46 44 43 44 46 48 50 51 53 53 53 52 51 50 49 49 49 50 51 52 53 54 56 57 58 59 59 60 61 62 63 64 63 61 59 57 55 55 56 58
45 46 46 45 45 46 47 50 52 53 53 53 53 53 51 50 50 50 50 51 53 54 55 56 57 58 59 60 60 61 62 63 63 62 60 58 56 54 54 55 56 58
45 45 46 46 47 47 49 52 53 54 54 54 54 52 51 50 51 51 52 53 55 56 57 58 58 59 60 60 61 62 63 63 61 59 57 55 53 53 54 55 57 59
46 47 48 49 49 50 51 53 54 55 55 54 53 51 51 51 52 53 54 55 57 57 58 58 59 59 60 61 62 62 61 59 57 55 53 52 52 52 54 56 58 59
44 46 48 50 51 53 53 55 56 56 55 54 52 51 52 53 54 55 56 57 57 58 58 59 59 60 61 61 61 59 57 56 54 53 51 50 51 53 55 57 58 59
42 44 46 48 50 52 54 55 55 55 54 53 53 53 53 54 54 55 56 57 57 58 58 59 59 59 59 59 57 56 54 53 52 51 49 50 51 54 56 57 58 58
41 42 44 46 47 49 51 52 53 53 54 53 53 53 53 54 55 55 56 56 57 57 57 57 56 56 56 55 54 54 53 52 51 49 48 50 52 55 56 57 58 58
38 40 42 43 45 46 48 49 50 51 52 52 52 52 53 53 54 54 55 55 55 55 54 53 53 53 54 53 53 52 52 51 50 49 49 51 54 56 57 57 57 58
37 38 40 41 43 44 46 47 48 49 50 50 50 50 51 51 51 51 51 51 51 51 51 51 51 52 52 52 51 50 51 50 49 49 51 53 55 57 58 57 57 59
36 37 38 39 40 42 43 44 45 46 46 47 47 47 47 47 47 48 48 48 49 50 50 49 49 50 49 49 49 50 50 50 50 50 52 54 57 59 58 57 58 60
36 36 36 37 38 39 40 41 42 43 43 43 43 44 44 44 45 46 47 48 48 48 48 47 47 48 48 49 49 49 50 51 51 52 53 56 59 60 58 58 60 61
35 35 35 36 36 37 38 39 39 40 40 41 41 42 42 43 44 45 46 46 46 46 46 45 46 47 48 49 49 50 52 54 54 54 56 58 61 60 59 60 62 62
35 34 34 35 35 35 36 37 39 39 39 39 40 40 40 41 41 42 43 43 44 45 45 46 48 49 50 50 51 53 55 55 55 56 58 60 61 60 60 61 62 63
35 34 33 32 31 32 34 36 38 38 37 37 37 37 37 37 38 40 43 45 48 49 50 52 53 53 53 53 54 55 56 56 57 59 60 60 60 60 61 62 63 63
34 33 32 30 28 29 31 33 35 37 37 35 34 35 36 38 41 45 48 51 54 56 57 58 57 57 56 56 57 57 56 57 59 60 60 59 59 60 62 63 63 63
34 34 33 32 30 29 30 32 35 38 39 37 36 37 39 42 46 50 52 55 58 60 62 62 61 60 59 59 59 58 58 60 61 61 60 59 60 61 62 63 63 64
35 35 34 31 29 28 30 33 36 39 40 39 40 42 44 47 51 52 54 56 59 62 64 65 64 63 62 60 60 60 61 63 63 62 61 61 62 62 62 63 64 64
36 36 34 31 29 30 31 34 38 41 41 42 43 45 48 51 53 54 56 58 61 64 66 67 66 65 62 60 60 62 64 64 64 62 62 63 63 62 62 64 64 65
36 36 34 32 31 31 31 33 39 42 42 43 45 48 51 53 55 57 59 61 64 67 68 68 66 62 60 60 62 63 64 63 63 63 63 63 63 63 64 65 65 65
37 36 36 35 34 33 31 31 36 41 43 46 48 50 53 55 57 59 61 64 66 68 68 68 65 62 61 61 62 62 63 63 64 64 63 63 64 65 66 66 66 66
38 38 37 37 36 34 31 31 36 42 44 46 48 50 54 57 58 60 62 64 66 67 68 68 66 64 62 61 60 61 63 63 64 64 64 65 66 67 68 68 68 67